GFSSGP_con_3kmhel_000.txt.gz
Helicity
15 -5 -16 -15 55 46 41 62 99 99 96 62 71 33 38 18 17 44 2 18 1 26 43 52 45 41 40 63 76 56 26 8 -2 -17 -3 -4 -7 -5 9 19 30 29 29 43 61 76 60 53 55
22 -10 -7 9 51 43 51 72 87 99 96 92 49 30 21 38 10 3 -9 18 -1 27 31 37 42 33 42 59 48 33 29 19 0 -23 -6 -4 -7 15 10 11 36 40 55 46 50 42 40 58 70
18 6 3 33 50 80 101 93 94 115 95 52 43 36 44 47 19 7 9 22 0 24 20 37 32 36 21 43 40 32 32 27 -5 -22 -22 -2 -13 4 23 40 51 44 45 39 44 42 34 39 53
39 13 10 36 65 62 77 95 86 97 68 40 68 41 28 35 22 20 13 14 -1 18 7 50 -4 1 -9 38 51 31 22 7 1 -32 -34 -20 -2 5 38 35 44 48 45 43 50 52 46 35 35
44 37 47 38 58 61 67 56 86 90 79 97 83 74 55 39 25 17 18 14 1 13 10 24 -15 -21 15 28 26 14 9 10 -7 -22 -24 -6 -3 0 19 54 48 53 48 59 54 45 51 43 38
75 70 53 52 58 59 74 49 70 69 51 83 102 89 61 34 24 22 23 23 10 22 15 8 5 -13 32 23 24 26 8 10 -4 -13 -30 -5 20 11 6 37 51 42 41 51 54 39 41 38 35
101 72 61 55 52 65 58 48 68 105 69 51 89 66 75 86 66 25 24 31 32 35 22 14 16 24 10 2 12 9 11 11 -7 0 -17 -20 -13 24 54 37 33 38 31 45 46 37 31 35 37
114 106 55 32 66 71 49 55 71 73 107 102 45 55 71 85 68 40 34 29 47 44 34 22 11 23 22 36 27 4 8 19 14 5 4 -10 -15 4 17 28 41 40 37 45 47 36 21 14 22
119 102 59 33 51 65 41 63 70 42 46 67 60 60 88 59 44 31 28 34 47 43 43 27 24 29 28 24 49 38 24 25 25 13 23 -2 -2 7 15 36 32 33 33 30 29 24 12 21 26
117 89 37 49 44 56 43 71 93 71 52 80 47 38 68 79 66 63 36 22 45 53 42 39 41 41 39 42 31 32 34 24 21 15 10 15 11 14 26 27 40 31 32 28 24 20 27 33 33
111 57 54 37 31 51 61 57 52 73 44 43 81 94 93 115 74 56 54 21 28 37 53 54 59 62 59 55 49 46 49 44 37 23 21 24 26 26 29 33 29 28 36 19 26 31 31 32 38
115 62 66 44 47 41 48 43 63 63 50 76 86 77 79 73 84 68 55 36 26 30 51 64 73 78 62 56 58 51 58 56 42 41 36 42 44 41 35 40 33 35 39 41 42 50 45 43 43
76 63 48 44 45 38 51 35 48 39 135 76 74 58 33 68 79 61 51 38 48 50 58 54 52 53 52 51 50 47 46 59 52 57 60 63 71 74 62 58 66 61 56 56 56 56 58 57 57
58 66 38 44 43 41 37 50 -7 70 93 64 34 38 45 49 61 55 76 86 84 74 62 55 37 39 59 59 59 59 55 50 67 83 85 85 92 98 96 82 68 66 65 63 59 56 57 58 59
69 49 27 58 42 42 27 29 29 67 48 52 75 49 67 75 79 92 117 126 121 102 100 81 56 60 80 98 93 84 80 70 81 100 98 95 92 86 66 59 57 60 61 52 57 57 61 58 59
78 67 43 33 20 42 18 50 41 38 46 95 126 120 94 84 120 138 149 124 105 113 117 103 84 76 93 122 142 121 103 101 109 108 96 95 89 76 61 53 57 67 58 55 48 51 49 55 66
93 82 42 77 23 49 25 54 56 17 61 67 89 114 89 101 133 163 136 110 108 118 125 126 107 90 87 104 132 154 154 139 134 118 108 103 89 73 63 69 63 52 52 57 59 58 58 55 56
134 103 68 48 54 53 46 34 75 53 53 47 67 64 76 86 118 128 124 120 125 133 136 119 93 87 87 96 119 147 145 155 162 157 149 140 117 107 80 82 99 92 82 74 69 68 64 52 54
89 50 27 53 82 122 89 52 85 93 40 43 45 63 75 94 102 112 118 133 148 167 158 124 108 87 72 92 123 136 147 147 146 134 139 132 121 133 126 96 91 80 64 50 36 30 23 17 23
73 84 35 50 67 89 108 38 81 77 35 45 55 68 81 107 131 147 146 159 164 146 126 105 98 102 92 85 115 116 130 148 140 131 137 130 117 104 84 72 50 41 24 29 29 38 37 58 73
105 83 61 97 96 88 62 67 47 50 59 88 73 95 102 110 128 152 177 167 144 134 102 94 90 94 89 76 67 69 82 92 97 97 87 95 89 77 56 42 29 31 29 35 38 49 50 57 63
97 147 108 101 125 86 98 80 56 52 40 40 78 111 149 149 157 153 157 159 132 91 68 67 64 67 74 75 93 111 101 93 85 81 71 61 68 63 48 40 34 24 11 30 38 60 63 70 79
110 86 84 100 121 82 31 48 78 86 51 38 73 129 149 150 146 140 140 120 85 65 63 51 57 81 99 116 109 90 79 56 51 56 69 66 53 44 25 -11 -21 28 49 62 59 59 57 54 65
69 97 138 110 92 51 44 45 95 84 60 31 66 90 102 110 108 117 118 85 78 75 65 54 69 95 113 115 99 83 73 72 69 73 60 27 -1 -8 25 38 77 93 83 71 57 51 53 55 57
100 113 163 107 92 78 56 49 55 14 17 -11 25 38 51 62 72 95 101 88 89 82 71 69 79 112 121 115 96 85 85 78 75 64 43 34 39 65 97 104 97 87 78 65 56 52 41 32 35
139 113 196 142 112 58 65 76 65 63 64 27 16 60 73 71 69 84 104 93 89 86 83 89 106 136 139 124 115 112 104 81 78 70 49 58 74 77 83 81 83 83 83 77 61 38 38 39 38
192 151 136 133 117 114 55 60 34 25 21 43 23 94 101 92 74 100 101 90 102 113 118 121 141 165 160 150 135 138 126 125 99 81 80 84 86 83 92 97 100 99 90 69 52 54 53 61 68
103 114 142 122 81 86 53 67 68 55 69 45 49 85 109 105 103 102 98 108 124 143 151 151 181 209 181 172 165 159 158 137 110 99 107 108 104 108 102 104 101 87 67 59 65 68 76 82 111
173 171 150 110 97 72 69 47 78 103 93 76 42 66 119 119 104 103 113 130 151 163 159 184 219 211 198 195 180 183 170 146 123 118 119 113 120 111 99 98 86 63 60 70 77 86 97 114 119
56 68 84 108 73 129 155 55 59 65 62 60 73 81 95 105 111 120 140 164 164 174 185 207 225 215 222 211 201 202 164 129 112 115 135 132 128 109 96 77 59 60 73 88 92 105 115 112 109

GFSSGP_con_3kmhel_003.txt.gz
Helicity
38 17 2 -26 40 33 27 41 90 60 82 90 96 58 67 33 66 72 10 28 14 33 72 51 33 51 48 64 75 55 57 38 15 1 17 23 11 4 17 20 35 40 44 47 53 81 97 99 84
40 27 7 3 45 42 18 46 33 80 103 116 77 42 29 48 54 40 6 29 11 27 44 38 51 28 36 71 55 42 33 33 19 7 18 18 14 15 24 29 39 39 37 37 53 62 74 75 78
40 14 22 36 34 75 119 107 134 102 92 69 71 40 58 89 60 38 33 30 11 19 17 69 70 29 51 54 34 29 32 34 23 12 -6 16 30 15 21 24 38 46 38 37 48 60 64 58 63
48 26 24 31 53 55 85 89 72 97 94 59 83 66 37 65 57 56 29 14 4 24 23 85 62 38 23 26 33 31 33 25 23 17 -7 14 33 21 28 44 47 38 42 46 48 57 59 64 68
33 47 39 38 50 52 50 60 24 63 86 84 71 89 84 53 39 40 28 13 15 29 39 52 58 33 21 34 38 24 29 21 20 17 15 21 41 21 24 38 38 42 38 40 40 45 48 58 64
92 70 54 52 38 53 43 54 43 61 72 88 58 106 83 52 68 54 39 25 26 40 40 72 55 30 28 25 30 36 30 22 23 18 1 14 42 72 62 41 36 42 43 45 51 59 41 39 32
78 85 52 56 78 74 46 53 61 102 91 75 86 69 57 88 82 43 37 36 31 40 36 51 48 37 38 15 15 30 31 23 25 45 21 14 11 35 61 67 52 59 54 62 65 44 32 25 22
135 92 55 46 54 45 50 54 64 78 101 137 42 68 86 144 90 56 47 40 36 35 40 48 42 68 63 52 70 43 24 43 39 30 36 39 5 22 36 36 48 59 48 38 37 19 8 -8 -1
111 102 65 41 38 59 45 60 69 60 56 78 70 67 93 46 52 54 49 36 27 34 43 47 54 68 59 59 120 87 53 50 63 43 53 34 24 40 53 78 50 40 25 19 16 11 4 6 13
126 106 49 52 69 63 76 59 65 51 96 76 89 38 34 31 70 75 55 38 38 33 50 58 62 81 77 93 96 74 81 69 74 60 56 43 45 49 56 42 47 36 15 14 -5 -8 -3 16 16
89 85 59 52 59 86 76 75 62 48 69 64 91 132 121 72 90 67 53 45 17 15 61 63 80 81 85 86 75 71 74 76 73 54 57 71 69 63 59 54 50 40 45 29 32 31 45 40 54
89 72 52 65 56 65 47 52 68 53 36 80 82 101 95 51 67 76 81 65 38 40 60 70 66 73 72 79 76 72 79 79 83 96 81 87 92 90 76 74 68 59 56 49 46 52 43 40 35
81 61 59 64 65 48 51 39 25 52 35 56 54 47 63 49 69 91 82 70 57 56 61 60 57 58 58 69 86 85 78 85 88 112 104 101 101 105 97 79 72 70 66 49 59 53 56 60 70
140 38 63 47 50 36 40 36 45 38 56 59 84 52 45 42 79 97 84 105 87 109 98 73 58 55 64 91 116 116 92 92 101 128 119 104 92 87 80 69 72 71 78 71 61 61 63 62 68
33 86 31 90 48 60 36 33 25 32 62 32 37 46 60 66 66 96 131 122 153 166 135 97 77 57 90 137 163 148 123 115 116 129 116 97 92 89 82 75 79 91 75 68 74 64 65 68 70
103 98 102 57 31 41 73 37 70 36 51 50 49 70 74 63 80 98 124 151 185 171 136 116 86 72 101 143 164 159 168 148 130 129 130 133 132 111 91 98 100 85 91 83 91 85 85 75 58
92 154 79 90 16 32 33 44 39 55 39 49 54 63 75 74 101 133 155 181 159 140 128 118 99 105 103 132 172 201 165 173 161 185 178 166 159 144 134 125 115 105 100 98 91 87 80 68 55
163 128 77 49 50 77 51 31 70 25 62 56 52 77 60 71 103 121 135 144 133 133 128 135 131 111 108 118 137 170 208 211 195 191 179 169 153 158 140 129 128 111 97 92 77 67 61 48 59
124 83 90 55 -10 42 48 44 41 47 54 37 63 58 70 83 102 123 145 145 160 167 159 135 92 68 65 88 132 150 153 161 179 180 185 177 173 161 152 122 111 96 75 58 43 38 32 18 65
142 94 54 96 68 95 63 44 49 60 47 45 48 64 91 93 115 135 148 170 188 175 147 122 109 101 109 113 138 148 163 171 159 152 157 156 153 140 112 95 62 45 15 30 20 32 39 69 78
113 77 136 129 74 54 101 61 38 30 70 85 66 84 116 107 129 156 178 189 184 170 129 104 102 107 116 116 125 141 134 131 140 136 117 118 113 98 67 39 15 7 -3 23 49 68 72 74 74
70 92 69 138 83 70 12 97 29 87 71 81 92 139 138 160 154 178 188 195 178 141 105 95 96 104 109 128 154 166 139 127 95 76 71 66 75 55 22 6 9 30 42 65 70 86 73 77 72
47 21 122 146 134 177 59 101 59 23 57 83 60 132 157 165 168 188 195 188 161 117 93 85 90 95 101 107 105 98 91 57 41 39 49 52 42 23 11 5 36 65 81 90 85 83 77 67 72
188 155 226 192 145 114 93 49 103 24 38 50 72 125 177 162 182 167 173 168 149 109 98 87 86 90 98 115 120 97 64 49 51 63 66 61 37 22 56 65 89 101 102 98 83 69 50 51 64
91 197 367 244 140 119 79 71 45 67 82 55 58 104 114 132 149 140 154 156 128 113 111 100 84 87 100 127 131 103 94 92 87 70 71 63 51 67 96 106 112 111 99 83 71 68 56 61 79
160 102 288 263 157 98 67 71 62 114 97 43 33 68 88 91 94 113 137 140 126 125 120 106 91 95 115 151 154 136 131 120 114 117 107 97 95 111 118 121 112 98 88 84 83 82 72 74 108
92 29 192 250 277 134 41 71 25 46 47 49 52 81 86 76 84 109 140 132 126 128 124 115 110 128 151 181 172 175 176 169 150 144 137 120 117 114 128 121 108 99 97 96 92 90 80 100 100
161 111 233 315 190 158 64 73 67 16 44 27 44 65 110 114 111 125 135 132 126 137 139 141 148 168 190 208 202 205 202 184 170 158 146 121 113 133 140 129 117 107 102 99 91 88 94 109 122
218 176 214 154 211 151 71 64 151 93 62 32 28 69 107 137 143 117 129 137 136 131 145 171 180 198 221 231 232 228 213 199 190 165 130 110 96 137 140 136 121 110 103 90 96 94 102 122 135
38 110 103 123 76 169 184 78 79 77 68 44 37 51 84 135 115 119 143 147 133 141 172 183 198 216 252 249 241 236 221 206 187 150 123 97 120 153 149 134 118 100 90 98 96 106 116 143 142

GFSSGP_con_3kmhel_006.txt.gz
Helicity
48 40 26 4 44 37 40 55 73 103 96 92 98 47 38 37 68 65 0 34 50 93 70 35 46 53 69 80 89 70 52 42 28 23 43 50 42 32 20 40 37 40 48 48 52 47 60 76 111
35 54 37 9 40 35 40 -18 83 146 163 99 98 52 49 88 61 39 50 29 54 82 44 36 35 59 57 74 69 52 50 46 37 32 44 23 21 32 26 45 45 42 35 40 46 53 60 62 81
36 22 36 26 52 43 117 229 224 149 151 80 112 77 79 104 135 63 58 18 52 39 34 115 60 39 77 90 70 50 43 51 40 37 19 30 35 12 27 32 48 48 37 33 41 44 55 57 57
33 43 34 44 38 60 43 115 122 134 132 80 117 105 72 87 67 73 49 14 51 36 118 102 91 57 79 73 75 63 48 43 38 28 16 32 36 34 32 38 57 58 34 31 27 31 33 38 39
56 59 63 50 44 64 61 87 43 1 65 64 65 133 82 31 34 43 48 23 66 64 109 94 110 76 68 71 79 69 62 45 37 29 30 33 28 48 46 48 55 43 33 28 27 37 32 28 19
105 79 76 53 39 -12 93 29 85 43 70 48 13 97 81 90 73 59 52 55 66 96 97 75 80 67 69 72 72 59 61 54 51 36 20 23 26 73 82 71 54 45 48 42 43 36 20 6 -2
103 114 74 54 53 52 53 100 43 73 115 95 72 47 61 70 65 24 47 76 63 90 88 75 58 54 52 41 53 60 69 67 71 69 42 32 14 28 56 70 50 34 33 30 18 1 -14 -26 -29
112 104 75 68 64 70 73 101 56 69 87 100 85 74 115 63 26 43 55 65 46 77 56 100 88 71 51 43 60 87 84 90 86 75 66 42 5 4 28 40 40 33 20 5 -2 -15 -22 -25 -26
136 171 112 73 43 36 48 72 38 62 33 95 117 100 48 -38 -32 12 35 60 44 56 54 64 88 97 81 72 103 96 110 108 95 77 66 63 33 40 27 61 64 24 0 -10 -12 -17 -15 -5 9
157 175 118 79 42 71 43 59 47 94 50 97 116 88 46 48 -3 59 49 57 64 72 49 56 78 100 73 112 137 79 105 97 99 70 106 80 63 73 69 45 36 17 0 9 -7 -2 5 20 51
112 117 113 60 55 76 88 147 93 56 60 56 98 124 96 109 96 73 59 33 68 77 88 71 73 90 102 106 98 76 115 66 76 86 102 90 93 76 74 69 62 43 38 58 34 50 69 64 66
92 82 73 85 47 54 115 97 60 47 40 63 111 111 108 180 93 71 72 103 67 110 114 105 82 80 93 114 86 73 104 88 78 87 91 97 97 92 72 68 61 54 51 44 35 47 41 59 69
54 100 57 56 91 98 54 71 30 31 50 45 44 74 68 60 69 67 112 112 97 119 139 120 96 100 84 111 96 86 113 112 93 126 97 100 96 93 88 69 52 67 73 68 68 59 60 60 62
146 62 81 84 72 70 112 74 49 34 42 48 60 77 85 62 70 144 138 118 108 136 147 108 106 97 116 125 135 140 138 137 146 133 102 108 92 89 78 67 108 90 75 75 79 79 68 58 49
98 125 75 50 66 92 10 25 31 27 27 29 73 54 80 155 180 142 170 219 250 249 210 155 142 107 137 134 165 202 211 210 175 148 133 119 130 126 105 119 112 106 115 126 109 106 87 75 64
178 136 98 49 96 68 75 37 45 62 26 48 57 54 92 110 115 148 143 182 175 173 188 145 114 122 150 176 169 183 225 212 184 171 216 192 162 172 209 173 169 158 135 134 114 92 78 63 54
154 167 100 94 144 76 108 28 39 29 48 69 74 48 97 108 113 137 108 144 153 189 150 123 93 109 157 224 261 294 257 293 323 291 232 199 211 249 202 196 174 181 155 127 101 82 54 32 43
224 193 167 116 112 111 22 40 62 101 85 61 66 57 170 106 135 92 100 111 121 147 130 136 133 159 232 241 276 350 343 321 279 238 225 217 217 225 215 184 152 140 124 101 79 66 60 58 48
146 144 107 115 102 105 50 35 45 63 83 76 56 100 139 176 105 72 89 120 168 140 132 134 135 115 109 181 218 225 230 223 231 228 218 211 200 181 171 142 116 95 90 68 68 33 34 31 72
88 112 119 108 51 38 41 34 35 62 57 66 78 97 205 194 105 97 119 150 171 192 208 215 230 223 238 227 207 194 175 175 164 175 178 155 150 132 96 79 66 62 55 65 52 37 23 42 62
65 56 58 104 48 137 102 75 53 57 49 101 66 156 298 159 144 126 175 190 212 221 207 192 189 197 204 216 194 144 132 146 150 119 94 82 80 80 67 57 46 40 30 39 53 53 60 52 75
88 11 28 54 91 247 175 103 33 48 45 97 137 192 316 217 167 163 192 227 236 212 184 167 143 125 99 90 72 116 109 109 68 45 29 42 63 66 41 20 14 37 48 65 59 78 78 82 65
88 40 35 18 91 223 150 117 55 63 19 174 128 225 354 276 232 227 238 238 230 217 190 177 187 190 157 140 131 123 110 72 35 26 29 31 42 53 25 13 24 51 72 86 86 80 77 75 79
124 38 116 -1 93 241 187 127 166 130 146 130 141 281 331 304 274 289 286 271 233 202 178 156 168 163 152 154 151 140 116 77 51 44 43 51 54 53 32 33 61 86 91 87 83 78 77 72 80
65 36 -50 -39 106 97 120 56 122 166 141 101 148 291 350 325 296 304 278 237 208 189 151 138 141 144 132 150 163 166 144 118 111 93 74 76 68 59 50 59 79 89 94 96 93 85 83 84 95
3 24 34 104 151 465 137 135 112 91 123 143 192 295 343 277 256 231 230 210 193 160 128 130 134 139 136 148 155 167 161 143 136 126 106 96 88 76 87 82 95 103 104 100 97 97 98 99 113
-49 -105 -76 106 95 366 268 213 178 157 192 132 182 271 246 195 188 195 204 205 190 160 129 133 148 154 155 157 174 194 201 194 167 163 147 120 116 107 95 86 99 104 104 103 103 110 111 122 132
-3 -66 -94 112 206 187 145 123 99 105 90 122 165 195 185 160 168 162 195 213 196 164 157 151 154 166 180 206 214 229 223 209 197 181 160 144 132 117 87 87 110 107 105 106 114 124 126 132 140
68 58 158 71 162 329 270 221 78 77 56 50 129 182 181 177 187 212 208 217 228 201 168 180 198 202 220 236 255 256 240 226 214 195 170 149 134 116 90 101 106 109 110 113 127 131 126 143 135
131 43 113 250 298 321 222 211 149 112 66 51 37 169 202 213 256 232 233 282 254 194 185 185 189 218 244 267 278 268 249 239 229 202 176 156 137 108 102 110 111 112 118 123 134 141 143 142 173

GFSSGP_con_3kmhel_009.txt.gz
Helicity
23 44 31 29 52 52 42 51 79 131 143 113 99 69 69 59 56 35 -13 58 87 64 52 50 65 72 89 108 127 120 96 75 57 49 63 66 48 46 24 31 48 58 45 36 37 55 39 46 65
22 43 26 28 58 53 74 68 198 178 140 134 99 109 73 76 56 41 47 74 78 45 34 12 27 65 83 99 99 98 97 84 76 50 48 40 32 36 32 37 47 43 34 32 26 32 37 44 48
42 36 31 44 47 51 104 62 124 166 217 162 152 111 86 95 50 43 18 91 78 32 14 1 54 62 70 111 103 91 80 72 79 65 15 28 30 8 23 29 62 64 48 35 23 17 23 27 28
43 76 71 58 44 78 122 41 49 89 139 152 83 137 70 50 49 29 14 64 99 47 33 31 54 67 90 82 94 86 72 60 44 46 20 14 5 19 18 23 58 66 42 30 11 -4 -0 -1 -2
96 82 85 70 39 84 134 15 -1 65 78 100 71 113 99 55 27 17 29 58 145 100 94 75 85 107 89 77 82 79 72 64 42 35 28 5 4 13 54 58 80 60 16 7 -3 -5 -11 -20 -21
149 114 114 84 30 45 80 37 54 42 64 98 66 57 86 23 50 12 54 69 137 121 92 93 107 99 75 71 70 73 70 67 49 36 31 11 14 21 24 39 37 20 -2 -1 -11 -14 -20 -27 -29
122 139 103 71 39 43 115 63 74 50 78 134 113 71 54 53 -0 6 61 120 111 112 89 95 88 70 69 62 52 60 68 77 76 69 46 35 7 5 17 27 10 1 -2 -9 -12 -23 -27 -26 -22
130 149 95 74 38 -30 35 53 78 53 41 58 100 95 69 37 -19 17 68 71 108 105 87 84 81 61 52 44 42 60 74 90 102 92 70 52 26 16 14 18 10 -2 -11 -17 -20 -20 -22 -23 -19
153 215 135 108 52 -27 83 127 47 51 27 53 62 95 52 2 6 24 43 67 98 93 96 87 76 50 45 37 50 65 66 92 95 78 63 58 28 18 24 23 33 30 3 -18 -18 -26 -26 -18 -9
209 239 177 147 74 41 55 111 52 74 80 35 95 151 28 69 24 23 23 47 76 87 104 117 91 51 39 54 72 65 56 65 66 49 42 52 37 23 44 52 53 26 17 16 4 -0 9 25 71
196 149 190 120 56 18 52 90 63 109 64 44 66 134 69 62 84 69 58 75 72 88 88 110 123 65 85 88 80 60 52 52 58 45 29 44 41 42 51 43 38 43 30 37 34 36 36 39 62
128 121 108 57 57 38 61 92 87 83 42 72 69 54 116 118 115 94 84 81 102 104 77 88 104 116 124 126 76 80 64 59 64 38 60 60 78 58 52 56 60 51 45 37 45 42 43 40 50
127 85 104 70 40 61 67 130 114 25 9 58 46 24 35 92 96 87 97 116 110 91 93 104 130 144 135 135 92 104 93 102 117 108 98 103 95 88 82 97 93 87 85 93 112 134 113 82 66
222 157 71 16 50 72 75 129 134 72 39 55 46 37 59 99 105 131 160 186 130 125 157 142 148 152 176 166 119 149 144 165 141 132 116 117 102 95 118 126 133 157 162 167 143 116 99 80 64
173 162 121 88 16 28 109 133 116 57 62 43 31 24 77 119 159 193 215 240 201 208 223 192 137 162 187 171 193 198 221 215 211 233 203 197 158 156 210 209 217 200 172 150 132 128 102 96 97
236 208 144 113 88 72 93 29 89 44 66 84 113 82 101 129 159 161 178 203 215 222 222 199 213 194 212 185 198 203 267 339 342 304 274 266 254 257 226 201 198 188 173 149 133 104 90 93 85
236 237 209 134 101 121 120 3 98 63 54 49 90 84 124 173 166 142 139 146 163 144 150 150 174 231 243 271 343 424 423 362 325 300 266 257 255 235 215 187 177 173 150 137 112 103 86 59 60
267 219 164 154 64 114 87 102 108 55 78 75 66 70 145 216 136 97 97 109 143 115 140 137 187 276 401 402 429 424 404 349 291 263 241 241 224 215 178 155 150 137 117 113 91 79 63 29 24
146 143 156 113 89 103 87 90 61 52 93 89 98 123 211 237 127 83 87 103 125 128 149 160 228 318 384 393 395 367 313 296 262 240 223 209 171 155 137 114 108 90 81 68 56 24 30 34 46
117 106 45 84 97 106 81 68 54 59 34 69 94 148 261 232 148 122 134 154 154 136 145 189 246 295 287 272 260 256 243 229 192 172 168 142 129 110 96 77 64 68 56 55 50 40 27 23 32
104 108 73 66 99 73 54 67 41 62 97 100 93 168 290 267 198 181 184 196 214 204 195 216 241 277 246 220 228 230 225 180 148 125 111 98 98 90 76 69 52 38 32 42 42 54 53 35 42
100 81 63 68 74 47 73 85 61 28 93 107 93 233 324 327 246 249 243 216 218 212 212 233 247 232 198 167 151 110 92 98 84 79 62 71 79 79 65 52 32 23 22 53 49 62 57 64 68
56 47 71 63 71 51 10 77 -4 81 75 90 108 259 360 340 298 292 267 232 247 235 232 227 215 185 143 136 104 105 111 112 98 90 87 82 76 64 47 33 24 25 35 51 75 86 97 82 78
115 86 110 58 63 -7 -16 55 -35 72 49 -2 252 268 377 348 343 350 330 305 314 272 256 256 248 204 176 147 119 125 138 141 143 119 102 63 35 39 44 42 36 40 57 70 78 84 92 85 88
136 88 85 78 110 -47 -92 45 38 83 77 127 216 282 390 398 439 416 394 318 295 261 240 239 240 226 204 200 175 162 170 177 156 119 90 81 61 50 46 45 44 43 60 81 88 88 90 90 98
139 129 152 64 -47 -108 13 17 70 45 14 161 295 389 447 431 418 371 352 301 269 248 216 213 210 207 192 206 208 202 199 185 162 141 128 119 93 70 61 64 70 68 76 88 90 89 94 97 105
76 118 38 47 34 -15 78 175 127 65 155 236 287 369 378 433 402 335 311 251 232 223 190 190 192 190 186 196 222 225 210 204 187 180 165 132 110 88 88 90 79 71 80 91 92 96 99 105 111
68 27 56 -6 7 -60 32 226 121 181 185 218 301 344 367 392 334 290 252 215 196 195 200 203 187 185 185 211 228 230 224 222 214 203 181 151 119 102 101 89 79 81 96 99 101 106 105 112 122
-40 10 25 -55 -288 208 163 178 53 142 150 170 187 266 292 292 270 246 219 188 197 223 223 208 202 213 219 231 243 252 249 251 237 207 173 142 122 112 98 94 93 98 104 103 102 100 96 124 136
-2 -4 -156 -340 5 1 176 241 100 79 93 124 127 183 223 257 236 216 197 211 245 244 238 222 225 230 228 238 256 266 269 265 241 208 171 141 124 103 108 112 108 110 102 95 98 111 125 140 157

GFSSGP_con_3kmhel_012.txt.gz
Helicity
32 47 -1 27 57 50 61 98 106 163 156 115 93 105 67 61 42 67 13 31 76 73 34 46 40 46 86 127 124 120 112 93 85 76 80 82 80 59 33 35 44 38 31 20 19 35 19 12 28
31 30 26 29 66 67 112 67 115 119 98 116 74 113 147 119 89 48 54 1 60 55 15 13 33 42 76 95 93 97 97 79 69 61 46 61 65 56 26 14 24 32 24 17 9 10 16 15 16
54 25 40 54 53 58 132 118 139 89 93 110 91 113 127 117 87 34 28 22 53 35 11 4 23 42 56 66 68 81 75 63 49 22 -1 -16 15 19 29 2 38 42 37 18 7 7 7 9 4
63 75 80 74 47 60 91 206 93 83 96 91 116 143 149 65 42 19 49 69 54 26 8 21 29 47 65 60 61 72 61 47 39 15 -8 -21 -47 -23 26 38 69 56 24 6 9 -3 -2 -8 -11
93 101 106 83 40 52 110 147 111 66 47 103 124 97 105 96 50 53 80 67 73 28 21 40 57 64 76 58 60 60 56 36 32 12 2 -15 -37 -25 -5 34 68 42 11 3 8 9 5 -1 -4
153 139 136 108 47 56 81 148 100 68 24 63 100 108 96 41 21 7 66 68 78 81 52 54 73 98 86 63 56 55 49 45 37 25 19 -3 -10 -5 4 21 21 8 -6 -6 -6 0 -2 4 2
155 189 139 95 49 56 63 132 160 65 48 62 121 126 101 48 1 8 49 114 108 98 104 93 93 84 78 63 52 48 46 46 43 33 22 19 -1 -13 -6 0 1 -3 -4 -1 1 -7 -11 -12 -11
158 182 163 125 85 29 46 129 108 61 55 51 70 113 102 33 -15 7 72 110 118 101 103 101 99 82 72 52 42 42 51 61 51 48 42 30 12 3 -4 12 5 5 8 -5 -12 -21 -28 -29 -24
188 225 193 147 117 35 81 147 130 62 55 43 70 71 74 47 52 58 94 110 113 96 88 93 88 77 60 50 24 36 54 54 52 48 32 22 0 -8 4 10 15 12 9 -8 -12 -13 -9 0 10
219 250 231 173 132 80 54 50 101 115 92 67 87 101 116 128 75 44 49 62 105 100 86 102 85 61 63 40 38 37 49 47 41 25 21 25 23 17 23 25 18 20 18 11 7 3 11 18 53
206 199 208 143 75 77 33 69 50 109 88 46 42 80 151 104 71 68 42 68 61 111 124 97 82 65 87 54 62 49 40 42 27 14 28 30 33 30 35 46 32 28 29 34 31 25 28 32 46
144 158 150 118 107 92 61 21 134 124 104 65 53 53 107 152 131 107 76 55 72 110 127 116 82 100 103 82 85 55 48 49 45 40 46 55 49 49 48 62 52 53 68 72 81 105 116 101 85
113 100 116 75 32 42 52 19 44 59 101 93 51 42 35 68 90 81 70 88 84 109 96 144 111 113 126 113 101 97 67 68 62 66 62 66 78 93 99 112 131 130 147 122 110 106 94 86 74
174 191 79 93 45 64 66 26 54 -7 79 68 51 7 21 39 39 86 101 139 162 127 120 110 139 159 184 147 153 113 101 91 102 130 122 122 114 143 173 189 174 145 122 106 103 96 97 88 75
110 93 89 110 89 68 99 -20 -134 51 78 45 39 50 49 48 76 107 139 172 156 164 146 140 146 181 202 192 188 168 136 210 278 291 245 203 185 206 200 192 160 130 127 124 112 119 111 107 103
150 120 93 102 130 104 101 -128 97 97 101 74 64 62 50 90 116 129 160 207 213 222 187 174 169 182 216 240 235 271 306 361 374 321 277 239 221 193 183 158 153 133 132 118 113 114 121 124 100
123 140 168 155 134 163 134 -63 41 74 65 79 56 56 82 83 152 144 145 159 187 199 227 225 182 198 273 360 352 377 381 419 333 278 241 213 201 185 179 160 139 133 127 130 124 126 107 80 75
157 147 136 161 191 151 72 3 76 81 94 92 58 68 70 125 129 135 129 122 156 193 199 181 207 316 429 429 382 422 444 355 262 249 223 203 176 168 155 140 134 118 114 118 106 101 74 52 53
140 133 111 185 170 115 151 59 67 25 39 94 87 89 70 110 136 141 131 126 147 176 178 186 307 393 467 445 408 391 318 285 277 234 215 200 169 151 138 119 110 99 91 69 63 43 67 56 54
120 106 104 86 78 121 99 72 79 62 19 59 57 99 108 184 187 181 147 145 146 154 195 234 301 371 387 356 356 311 261 243 231 218 212 174 159 142 124 110 97 87 66 70 66 62 48 40 35
135 131 114 107 76 60 97 44 60 39 23 16 10 122 197 189 205 189 188 163 172 169 179 222 251 290 329 344 373 363 327 273 229 194 182 156 139 126 110 92 72 64 51 53 49 52 52 40 28
122 137 82 81 102 140 154 46 61 52 50 63 -7 75 178 241 274 246 240 217 198 174 187 207 223 241 255 254 265 243 204 172 122 130 135 142 134 114 93 76 60 51 38 47 38 50 50 47 53
123 103 99 97 112 116 96 148 -72 87 82 88 35 86 159 278 300 301 268 274 253 216 214 214 228 220 194 197 195 172 164 135 139 150 152 139 121 99 76 60 48 40 37 38 54 70 88 73 72
123 98 123 123 121 181 78 133 -66 31 83 87 128 71 204 311 380 383 373 366 329 268 254 241 248 209 166 162 142 138 153 163 171 139 135 111 94 83 72 57 50 48 51 60 71 85 102 97 93
131 125 238 214 231 236 15 76 67 38 52 71 57 137 228 348 426 418 383 369 352 296 280 255 243 194 169 174 155 152 158 158 164 141 125 111 87 73 65 64 64 60 68 83 94 103 108 102 94
138 157 270 259 198 137 68 47 -38 -101 61 24 26 118 383 360 416 454 409 393 385 336 303 262 243 240 214 204 193 191 194 196 190 171 157 129 99 81 78 79 78 91 106 111 112 102 97 89 92
102 125 70 166 129 111 54 40 -45 -4 25 -38 -17 227 388 510 443 408 426 404 391 331 272 267 263 263 245 238 236 231 227 241 229 212 181 149 126 113 119 112 113 118 123 118 111 103 98 95 95
127 142 176 151 88 56 -19 -72 -12 -13 11 -9 69 238 340 402 438 404 376 344 334 293 273 266 241 241 237 245 244 240 254 257 238 213 191 170 156 146 139 129 129 127 115 117 114 111 106 106 112
84 77 124 106 70 -56 -155 -202 -41 16 46 106 137 211 329 370 394 372 320 286 313 306 263 253 253 256 256 256 263 272 267 258 238 216 197 184 164 153 142 129 133 122 129 127 121 116 102 109 110
-48 -2 0 -60 -74 -101 -103 -71 39 -23 -49 135 91 233 289 345 369 320 285 303 272 244 251 236 239 248 244 254 268 271 263 246 237 227 210 176 167 154 138 133 124 133 132 119 116 111 107 112 132

GFSSGP_con_3kmhel_015.txt.gz
Helicity
42 53 10 34 71 76 74 85 83 128 110 83 89 72 66 77 71 89 30 -0 30 65 2 5 6 31 87 91 87 78 82 79 64 39 68 72 57 43 9 20 16 24 28 19 15 29 30 25 37
44 21 37 36 74 86 95 90 158 113 79 118 94 83 111 90 79 64 38 2 39 56 21 6 8 39 67 75 70 66 68 75 59 34 45 21 36 36 12 -11 16 26 23 27 18 22 20 17 20
46 33 46 70 63 66 93 110 190 141 80 76 103 108 94 93 116 52 10 40 36 42 25 9 22 44 69 66 62 53 51 54 51 31 -4 -11 11 14 43 64 46 36 29 28 28 26 22 25 22
73 71 97 93 62 66 86 155 190 192 73 67 81 102 97 84 106 37 53 55 45 37 26 20 25 42 58 50 48 47 43 39 30 17 -8 -34 -36 -44 -12 38 58 58 36 19 20 20 17 16 14
98 106 126 125 55 60 77 111 149 248 170 79 78 97 97 109 77 71 72 44 46 30 24 25 38 44 60 49 45 48 37 29 14 9 -7 -27 -44 -45 -5 13 54 43 20 16 18 25 29 26 20
151 148 150 96 61 62 84 94 128 137 148 83 80 93 89 72 57 39 54 35 41 54 42 43 48 57 66 53 47 45 33 19 13 12 3 -14 -43 -28 17 34 28 13 2 -2 -2 -0 -3 -5 -6
161 193 157 113 48 72 58 72 117 133 170 60 35 89 90 78 19 61 37 49 60 63 73 61 63 69 78 63 55 42 28 16 9 5 9 -13 -16 -24 5 22 13 3 -4 -0 -2 -10 -16 -15 -12
177 196 158 120 91 16 62 105 105 111 149 67 54 69 94 88 39 84 77 80 84 81 74 81 95 97 78 64 63 46 32 19 24 8 -1 -0 -18 -15 -6 10 5 3 -0 -3 -9 -11 -8 -4 -1
189 211 117 125 130 77 42 138 163 160 154 142 71 64 70 90 138 109 108 99 92 82 84 90 97 104 85 73 48 40 31 28 30 19 8 -2 -10 -9 -5 5 5 -2 -2 -3 -2 -0 3 9 6
195 181 127 112 108 58 58 88 115 125 167 134 118 89 97 114 130 121 106 77 88 75 82 88 90 107 102 65 58 52 40 43 36 25 12 13 13 16 18 21 7 -1 11 13 17 11 18 39 35
192 137 138 114 57 39 15 36 22 59 80 96 65 57 63 103 124 98 71 93 99 84 102 84 85 105 115 82 72 64 64 58 44 22 20 23 33 40 42 48 49 45 40 35 40 55 65 87 73
162 137 115 90 68 57 36 5 68 110 85 120 150 97 81 72 101 130 121 96 136 119 119 100 96 120 112 99 90 77 79 65 50 38 44 48 55 54 61 69 66 72 73 90 89 78 78 79 76
124 81 78 59 39 30 26 36 50 50 81 109 119 131 80 52 59 85 123 119 94 109 142 151 140 133 118 115 101 98 83 77 65 67 69 78 75 81 91 114 115 117 107 93 81 81 84 70 73
114 96 54 70 50 17 17 -5 26 9 30 85 97 118 101 62 39 56 90 45 104 50 158 202 176 152 140 127 111 82 96 85 95 111 113 108 100 122 140 136 137 123 100 99 81 76 74 64 62
86 74 64 56 73 40 58 -57 -131 24 15 22 77 81 90 73 48 33 67 85 125 97 147 233 218 182 150 139 120 91 109 177 196 209 183 135 145 147 143 138 127 102 102 93 90 91 87 87 100
120 91 68 49 82 101 71 -113 58 84 53 11 33 62 72 63 59 56 70 99 129 140 159 216 237 203 180 169 178 219 270 293 282 259 226 197 175 153 157 134 125 113 109 94 84 87 90 96 81
141 136 106 118 85 117 122 20 31 62 101 64 58 47 36 38 43 56 88 96 107 128 168 221 263 237 242 304 320 347 353 348 315 275 228 176 181 158 153 133 123 113 110 110 94 87 73 51 63
181 140 93 47 39 114 104 37 30 29 86 99 38 42 38 59 60 85 116 123 120 134 179 233 301 323 362 426 413 426 431 377 338 264 214 202 176 165 155 137 132 110 100 102 84 81 58 42 41
136 116 119 143 128 120 93 31 15 13 13 66 43 48 24 51 65 95 125 133 141 160 197 266 348 354 417 440 454 429 397 342 302 252 216 221 189 169 154 128 115 102 90 73 77 60 77 55 58
139 139 106 81 64 98 89 29 50 40 23 37 54 54 55 34 65 123 130 142 145 155 190 275 341 397 450 461 380 371 317 303 265 242 254 209 187 158 142 112 96 91 76 79 75 76 60 56 51
155 145 139 108 91 50 57 -38 12 26 60 54 56 73 61 67 91 140 166 162 174 176 203 265 342 427 438 415 408 457 385 307 256 260 234 204 173 150 128 114 96 86 64 58 55 59 67 60 54
122 110 85 87 99 100 98 -80 -41 47 82 81 60 88 89 140 118 204 213 201 169 181 214 242 264 293 296 301 292 278 254 252 193 196 180 180 162 149 126 113 90 70 53 67 57 64 58 52 56
152 86 99 89 131 133 149 152 -212 -97 87 104 93 105 93 125 138 188 198 176 190 205 216 226 225 227 240 247 229 262 300 251 229 208 197 183 167 153 133 106 86 76 64 60 70 73 79 74 79
182 95 114 109 125 189 122 178 -147 1 49 97 92 111 100 114 156 238 285 263 270 233 236 237 231 228 215 231 239 258 265 239 219 177 177 155 149 140 128 114 100 91 80 74 76 83 92 100 110
137 179 267 277 314 311 87 145 120 68 70 46 82 108 107 157 213 297 302 286 265 250 250 256 238 232 217 214 199 211 212 196 173 149 143 144 140 134 130 117 111 92 85 90 100 106 113 116 120
181 183 323 332 325 187 101 168 141 -6 -28 56 80 101 60 162 195 293 332 341 309 303 278 285 277 269 226 218 195 190 196 186 175 157 160 163 164 154 143 132 120 116 115 113 118 117 124 116 115
243 174 114 205 206 160 156 127 68 67 50 57 70 98 149 102 190 283 393 376 352 339 305 313 322 309 267 250 224 212 211 216 201 201 206 197 188 165 152 143 140 131 129 133 135 128 123 117 114
102 97 142 188 165 143 122 66 31 21 23 73 113 75 80 147 239 333 432 421 392 380 348 370 321 291 280 275 248 236 235 232 229 229 223 215 198 180 168 159 157 159 153 145 141 129 115 117 119
176 87 172 152 155 126 26 -24 -70 4 22 102 106 93 114 225 325 397 431 389 407 402 366 366 331 325 314 285 278 278 262 253 250 248 236 221 203 196 191 177 180 169 152 149 139 123 113 126 123
109 140 135 170 98 27 -12 -176 8 -58 -37 33 151 64 62 198 277 353 408 413 398 392 351 335 322 321 295 278 288 281 259 250 258 246 233 221 214 206 195 189 188 170 157 140 130 127 119 117 123

GFSSGP_con_3kmhel_018.txt.gz
Helicity
48 40 12 39 73 81 65 74 78 121 60 54 66 40 53 71 90 94 39 -24 8 34 -15 -13 15 41 60 62 64 53 46 46 28 6 43 57 35 18 -7 12 16 25 27 23 16 21 27 30 35
48 25 46 50 90 98 70 77 122 152 131 125 60 63 62 79 65 63 25 -21 16 55 5 -22 -0 54 72 65 63 57 51 38 24 20 39 16 37 12 -0 15 11 24 24 23 26 27 26 25 28
35 43 60 83 80 80 68 80 139 183 173 108 88 78 70 66 82 65 30 32 38 32 21 -2 -3 65 68 60 51 47 43 43 27 21 34 13 2 61 36 34 30 37 29 28 27 29 31 34 35
66 75 102 116 73 54 60 95 119 203 160 85 65 103 90 66 81 48 41 53 54 27 34 25 36 57 72 53 42 36 35 33 34 22 -10 -33 -17 1 15 42 48 40 28 25 25 26 27 29 23
96 110 139 132 79 57 62 78 97 186 184 133 76 101 75 76 73 76 78 57 59 28 32 38 48 61 57 46 38 33 31 24 23 5 -24 -34 -37 -33 6 36 38 30 13 6 3 7 11 18 18
141 145 153 90 36 58 65 66 96 124 146 151 115 97 90 72 76 55 55 47 49 50 35 35 41 53 58 48 38 29 20 9 4 -9 -21 -43 -63 -49 -10 31 24 20 4 -1 -1 2 4 5 5
163 197 149 96 40 25 50 42 101 93 119 140 90 129 84 82 50 40 61 52 38 45 53 41 41 53 66 56 46 32 17 8 -2 -11 -21 -26 -41 -41 -5 21 21 10 3 -6 -5 -3 2 7 10
166 190 162 101 79 19 18 71 96 87 115 118 84 119 108 71 79 72 76 77 62 51 46 55 58 70 82 73 59 42 27 22 13 2 -10 -15 -30 -37 -16 -0 -1 -3 -3 3 2 3 6 9 7
163 216 153 138 117 101 52 84 114 136 143 177 141 121 97 68 119 139 115 97 80 60 48 65 76 84 92 89 67 47 34 34 26 16 7 8 -3 -11 -15 -7 -0 9 11 10 15 11 16 37 53
186 192 133 113 97 45 32 61 97 140 142 171 169 121 90 63 85 109 103 79 83 68 70 72 82 93 96 87 82 62 51 48 44 32 28 25 25 21 9 7 12 18 34 23 31 45 57 57 55
175 144 128 112 73 55 1 18 -7 80 40 81 153 179 137 81 85 70 62 68 79 100 96 90 104 110 111 99 93 80 68 65 53 46 37 47 55 51 39 35 49 52 57 57 74 79 63 71 61
190 137 91 79 75 46 14 15 46 69 61 44 118 141 172 116 52 59 54 66 88 112 118 101 106 129 119 119 100 91 83 69 62 55 50 64 74 71 58 59 73 85 88 96 88 68 73 71 62
171 138 114 85 68 35 23 14 16 28 83 82 92 103 141 137 90 53 52 77 97 109 132 140 159 143 129 130 109 104 88 75 79 73 70 89 95 72 84 101 105 108 101 92 84 76 74 75 72
167 155 123 90 50 33 22 -0 55 10 9 83 98 114 127 128 103 87 76 53 59 85 104 190 189 186 184 150 123 99 93 98 98 95 100 102 87 101 109 123 122 112 94 74 66 66 69 66 62
115 115 90 74 71 63 40 -15 50 49 64 64 75 117 108 118 124 82 68 55 23 53 90 168 204 246 216 182 125 124 118 130 118 126 144 139 133 126 148 146 130 105 84 82 71 72 73 78 86
132 121 108 105 96 92 97 -28 73 135 85 78 102 128 133 120 113 93 79 61 32 65 119 165 192 231 234 205 179 180 204 210 197 201 203 200 171 134 149 136 112 98 91 69 61 64 66 68 69
146 156 126 112 142 132 98 77 -5 60 115 95 125 93 96 116 115 69 64 63 71 81 124 141 187 240 266 270 302 290 288 289 271 279 257 206 173 158 154 122 121 107 93 80 60 62 55 41 57
152 175 135 100 83 184 126 81 60 43 47 50 76 89 109 92 79 73 64 60 98 109 104 158 239 285 357 416 408 379 362 360 350 315 262 239 178 175 155 153 131 106 89 81 60 58 44 27 37
159 157 141 166 135 85 112 60 45 32 37 30 18 34 26 50 101 70 56 89 112 137 142 172 262 322 448 453 428 372 369 387 370 316 274 218 176 185 160 137 120 97 78 52 50 26 51 41 39
148 135 135 103 92 99 64 -1 48 29 35 33 36 45 27 59 52 62 59 109 127 118 139 181 255 342 424 460 454 408 380 370 346 307 271 186 215 171 152 132 111 85 47 49 44 46 26 24 19
202 180 166 123 129 110 71 -101 1 45 75 100 84 75 64 59 70 56 94 87 129 110 149 191 268 386 461 516 529 473 463 394 340 289 242 244 202 171 152 130 99 73 47 34 28 30 40 36 24
133 158 115 120 132 126 92 -53 -8 67 82 86 111 110 106 115 131 79 94 122 108 121 167 205 272 376 397 423 423 323 311 265 212 218 226 231 185 173 151 128 95 79 54 52 32 33 30 32 44
239 141 150 137 163 143 142 197 -79 -75 26 74 103 111 106 126 147 130 128 142 174 169 180 214 259 296 323 337 286 278 285 255 282 250 245 212 193 174 147 119 111 98 68 57 67 64 66 52 51
205 149 151 157 145 174 152 180 -115 15 -24 5 98 127 86 123 153 127 181 243 236 193 185 203 227 243 244 227 216 251 287 270 271 238 228 193 183 162 145 136 121 104 94 88 81 79 81 77 83
163 226 260 225 307 306 85 38 147 66 61 32 52 106 92 97 159 178 222 235 230 186 182 195 212 214 191 208 222 225 254 275 265 218 196 181 163 147 144 130 130 119 118 119 111 99 91 90 100
177 244 325 338 283 188 117 120 35 -86 -38 31 6 27 94 82 140 155 196 213 217 220 205 200 206 231 186 204 226 269 285 273 237 193 187 182 167 153 139 148 155 158 150 133 121 104 102 108 112
190 226 139 210 200 175 218 185 69 -4 27 54 74 62 107 89 116 142 177 216 254 262 224 242 255 264 240 248 264 278 266 253 237 229 218 201 180 167 173 178 179 173 160 144 137 120 114 118 118
152 141 174 293 232 216 149 93 60 90 88 73 104 130 80 121 155 170 198 292 286 321 335 309 285 293 282 283 287 287 276 276 266 250 231 213 203 196 199 196 189 180 166 159 146 128 124 125 121
221 155 167 195 216 222 211 101 41 94 -4 -24 -15 115 145 156 135 178 226 304 398 395 337 347 340 357 348 312 316 325 310 299 287 265 232 220 215 208 204 199 193 187 183 162 145 132 116 127 120
160 206 203 260 258 216 232 -5 117 15 8 -76 45 59 80 131 187 226 268 336 354 354 312 345 353 395 353 310 319 318 308 296 288 259 237 224 222 217 210 208 206 198 167 147 144 137 123 121 125

GFSSGP_con_3kmhel_021.txt.gz
Helicity
54 40 21 46 73 80 70 65 61 99 99 39 36 45 56 70 81 96 54 12 14 28 -0 -7 -3 41 61 51 46 42 37 31 14 11 32 42 38 15 -6 11 20 23 27 22 15 16 19 41 37
55 36 46 63 99 102 73 59 75 97 133 133 58 47 72 45 24 34 63 7 -0 25 8 -13 25 50 56 46 39 34 33 25 15 1 52 47 30 20 14 22 19 28 28 28 24 22 22 29 35
38 54 68 102 103 88 65 48 77 114 142 100 98 62 79 83 53 42 54 29 15 21 1 -3 26 55 53 44 38 32 28 20 24 34 71 3 27 25 22 27 34 45 35 37 35 38 44 50 51
75 71 110 141 97 66 66 73 80 139 120 101 107 122 67 53 76 66 48 65 57 58 11 12 19 58 67 48 37 28 23 23 28 26 31 -22 18 32 38 48 45 37 29 29 33 32 36 38 36
122 112 153 123 68 68 62 67 64 108 139 140 124 138 67 46 45 47 59 51 62 40 20 1 34 63 69 52 38 27 20 16 22 4 -37 -41 -16 -34 -21 38 47 21 21 15 13 19 17 24 21
192 162 187 103 35 59 59 50 54 65 120 124 128 159 99 34 40 47 48 50 43 56 38 15 39 69 64 50 41 30 21 17 9 -6 -37 -58 -41 -36 -9 34 23 15 6 2 3 8 9 13 17
189 226 178 116 39 26 50 49 68 71 92 123 98 134 116 62 38 55 69 68 54 59 50 32 28 45 54 52 45 36 30 24 8 -11 -29 -48 -40 -25 4 17 8 2 -4 -1 -2 -1 7 7 8
192 212 179 113 50 19 29 46 77 89 106 106 97 140 151 99 46 65 82 86 78 58 47 39 38 36 43 43 52 43 38 37 26 12 -4 -9 -18 -14 12 8 4 2 3 12 14 14 8 40 63
179 232 177 128 100 96 65 67 94 121 123 158 156 126 121 98 74 85 89 76 72 58 40 35 40 43 61 56 46 46 43 45 42 34 27 16 -7 -11 2 22 21 19 22 26 33 55 77 74 74
179 184 140 136 115 84 86 78 102 139 162 136 166 164 132 79 98 88 70 55 66 56 45 40 42 48 67 73 59 49 49 46 50 49 40 32 29 17 26 33 37 30 38 53 81 92 84 66 56
167 126 145 125 110 123 75 80 47 94 117 97 157 201 207 183 125 97 83 51 38 58 60 56 58 66 65 70 78 65 56 60 65 60 57 58 59 49 50 48 55 55 71 79 84 71 68 68 57
139 91 88 80 105 73 49 48 58 59 81 85 77 142 178 227 197 121 82 54 52 65 63 67 71 81 71 74 79 74 72 66 71 69 73 73 76 74 82 83 90 94 85 90 83 61 62 67 61
134 88 85 85 97 85 56 33 43 17 35 76 96 127 144 161 165 138 107 87 77 53 57 67 81 98 93 88 82 84 73 73 76 77 88 90 84 94 104 116 110 100 93 87 78 68 67 69 66
118 109 97 76 41 67 68 35 61 16 4 63 93 95 120 120 138 136 106 63 75 60 59 75 89 112 120 116 95 82 91 97 95 92 100 99 99 124 136 136 125 118 96 87 80 78 64 63 65
97 71 50 38 44 63 65 28 65 69 75 72 107 105 90 39 113 121 94 47 56 76 63 66 93 135 152 142 120 111 113 130 115 103 99 111 139 150 151 155 134 108 95 87 74 69 66 72 70
90 73 63 93 110 63 94 50 77 67 76 69 84 111 121 76 109 115 115 77 72 71 57 60 81 131 162 176 170 152 153 159 156 162 163 185 179 170 163 142 120 101 88 80 75 67 56 53 57
108 113 89 75 68 92 83 61 109 142 130 109 114 121 140 155 149 127 113 96 82 69 54 66 85 108 160 222 216 229 219 237 237 243 216 232 219 180 167 143 115 108 96 80 66 61 48 51 50
86 105 88 83 58 132 79 30 57 55 67 83 103 102 115 124 188 207 170 121 96 74 71 81 115 130 167 298 411 367 328 330 313 303 278 262 226 192 152 147 127 99 92 87 66 60 52 31 32
96 87 79 101 90 52 48 -9 28 58 54 38 39 49 73 89 113 171 195 182 128 115 102 101 156 174 290 390 469 391 346 357 370 331 298 274 225 169 145 170 130 108 105 85 66 33 32 39 36
73 66 60 74 79 96 50 -67 -4 47 93 92 66 56 56 65 68 109 140 148 145 123 122 135 136 171 223 321 415 419 424 371 412 376 354 260 235 156 192 151 125 103 83 80 63 36 16 18 22
99 114 101 78 99 89 59 -34 -13 6 45 106 104 71 64 83 97 96 113 125 165 134 131 149 143 189 273 397 560 554 527 482 449 389 331 261 202 196 186 156 122 105 80 59 51 47 33 27 18
86 137 94 110 127 107 120 16 58 76 39 59 104 86 91 92 89 102 126 148 143 142 148 130 149 219 302 369 445 428 401 354 304 319 277 267 201 205 177 150 124 104 72 63 52 35 29 12 40
136 131 131 132 138 137 126 186 58 68 54 41 69 62 68 72 104 109 108 145 143 194 177 165 159 194 268 324 368 375 336 331 355 314 276 236 226 195 170 140 122 102 87 77 64 50 45 38 28
203 170 114 154 156 207 168 135 33 17 -77 -35 26 67 87 61 100 96 101 135 164 211 176 163 166 210 260 292 309 315 365 343 341 272 263 222 203 192 167 145 124 111 98 86 77 73 69 57 55
169 212 226 216 266 332 132 52 179 94 76 35 77 58 50 69 92 87 127 134 163 216 183 190 185 211 229 246 278 268 295 249 231 251 245 227 205 183 158 136 124 115 102 98 92 96 86 82 77
196 226 255 245 231 175 178 199 159 -62 -77 -32 37 67 55 30 63 55 97 132 146 227 224 193 180 220 235 254 253 268 236 250 240 287 264 211 198 183 158 154 139 126 118 117 115 109 104 92 88
218 203 88 191 143 152 208 217 158 87 101 38 48 79 74 73 87 65 76 121 160 201 196 208 211 233 242 257 296 269 262 299 318 287 249 239 222 195 171 155 146 142 141 136 128 118 109 108 112
220 183 237 306 279 266 280 240 196 135 41 19 31 32 87 120 80 111 84 125 141 188 224 228 214 255 271 267 238 252 250 325 328 282 263 244 223 198 174 167 166 158 150 142 133 127 126 115 114
233 255 302 326 373 366 309 221 141 34 65 95 10 -47 -0 167 122 115 102 153 186 237 253 259 278 298 305 289 284 306 345 333 295 274 253 238 217 189 187 182 172 162 152 147 143 140 119 114 114
279 295 297 316 328 448 430 128 151 107 30 -28 -60 -72 -49 86 118 123 172 190 211 264 261 275 308 330 345 324 326 345 368 328 297 270 246 217 216 206 197 185 178 165 156 150 148 125 110 113 121

GFSSGP_con_3kmhel_024.txt.gz
Helicity
67 50 32 18 51 57 60 54 67 75 60 63 72 72 97 102 72 81 54 66 47 39 24 4 13 17 23 28 34 34 28 21 15 22 52 63 63 43 32 31 27 27 30 19 20 15 33 41 32
72 47 31 67 93 73 63 48 50 78 81 103 58 22 30 65 56 57 62 67 26 35 16 8 24 53 44 36 30 27 20 16 14 47 63 56 30 11 29 31 31 37 36 36 33 33 38 34 36
48 66 72 102 85 65 82 51 64 83 82 78 91 56 63 81 60 44 63 39 11 31 20 43 50 58 38 34 28 20 18 13 15 70 52 20 16 21 31 34 42 46 42 42 48 50 49 50 47
65 51 82 92 47 60 66 82 102 101 75 88 122 109 61 56 65 93 67 46 67 35 51 92 64 52 38 34 28 23 20 20 43 67 29 17 11 21 22 36 43 33 32 35 40 42 46 48 44
97 106 107 83 19 39 68 67 72 113 111 124 129 143 117 47 44 70 51 37 34 62 49 58 44 58 51 36 30 26 22 19 24 24 -2 -1 5 -6 -13 36 41 22 20 19 20 25 32 27 23
125 149 149 81 31 52 50 60 57 63 89 123 111 127 119 44 31 45 51 64 47 44 36 61 45 75 62 44 35 29 23 14 9 -6 -27 -25 -18 -24 -10 36 18 8 10 7 13 22 20 12 16
93 111 99 67 39 41 30 80 70 77 70 105 133 143 116 76 63 46 63 74 59 49 46 43 42 58 61 45 40 34 29 23 6 -7 -24 -24 -15 14 29 23 7 -1 -2 12 17 20 15 21 35
149 145 109 107 47 11 49 78 100 98 118 102 109 134 138 132 65 51 59 65 69 77 67 50 48 36 36 39 44 42 41 35 28 13 10 8 7 16 34 20 20 15 19 25 33 41 59 69 66
165 145 131 70 40 56 86 52 63 104 118 117 122 165 167 129 67 55 51 57 62 65 69 58 49 38 35 40 53 50 47 49 50 48 48 19 0 12 18 59 35 33 39 50 56 70 70 51 63
137 126 77 103 73 79 68 115 124 121 104 103 115 131 153 124 106 92 77 57 43 48 51 53 45 40 42 50 53 41 53 43 41 48 50 35 27 32 47 54 52 50 57 81 81 69 43 36 47
152 94 74 98 77 99 67 80 85 116 132 94 108 159 186 185 168 146 118 95 74 50 53 40 57 49 41 48 50 57 57 55 57 57 61 67 60 57 52 57 51 53 55 64 69 43 65 60 51
132 68 80 87 70 80 40 74 69 74 56 140 175 171 185 188 175 158 130 112 83 56 44 44 50 49 36 47 48 54 63 62 65 67 74 85 92 85 76 79 97 90 84 79 53 57 53 53 49
93 82 84 75 72 60 58 20 33 89 38 61 99 113 138 184 178 166 133 125 106 96 51 38 38 44 47 40 50 61 55 73 69 81 92 98 106 119 124 114 107 107 83 73 64 66 66 68 59
98 83 65 58 40 45 42 25 42 -18 9 32 81 93 92 122 155 158 141 123 112 96 70 56 51 47 53 56 63 68 72 80 85 95 107 114 135 146 131 127 134 115 90 75 73 80 69 61 53
73 54 44 27 26 20 30 -3 18 5 18 -9 29 93 119 114 101 126 129 114 103 104 92 76 59 53 55 65 76 89 106 110 102 107 126 124 128 143 148 146 135 114 90 70 66 64 54 48 46
71 61 69 39 49 33 24 -24 20 48 11 26 46 76 111 118 131 33 102 123 116 104 94 75 70 47 50 72 101 119 142 141 121 124 133 133 133 139 155 147 123 101 79 76 70 53 46 46 43
40 78 45 50 40 59 7 -9 4 65 91 92 103 119 157 175 162 179 169 155 135 119 116 95 73 42 47 69 102 138 160 188 188 175 157 146 156 158 179 147 112 92 86 82 61 56 52 50 42
61 30 39 48 45 45 33 6 18 34 46 47 53 72 87 120 153 204 229 198 180 135 129 111 88 71 90 108 109 172 221 257 246 234 205 197 194 187 209 139 110 105 89 74 59 55 50 43 34
64 62 48 52 47 39 21 4 12 22 17 24 18 37 54 70 87 104 224 260 217 190 168 127 103 102 131 163 224 255 306 326 318 289 265 234 240 227 193 148 119 114 92 80 63 48 44 37 32
27 36 39 33 30 45 26 -23 8 11 11 36 41 44 41 44 61 72 85 188 232 238 192 169 122 117 138 203 169 233 366 413 353 343 352 297 247 232 145 142 131 109 93 81 69 46 25 29 34
19 26 35 34 67 67 35 14 -51 63 66 37 26 47 58 68 60 67 79 105 175 223 215 190 157 132 152 153 235 361 446 489 457 373 415 353 290 203 153 147 133 114 91 77 62 51 37 29 33
36 53 35 48 67 64 69 54 106 121 72 51 39 50 67 65 87 53 61 96 142 168 190 181 182 145 170 205 217 283 391 415 402 377 380 393 289 178 179 154 131 116 94 75 61 52 48 23 35
80 70 68 78 85 108 97 163 74 27 56 89 59 27 21 14 68 56 80 72 119 155 158 162 172 162 167 149 166 251 308 368 383 385 431 392 258 184 173 148 131 119 99 82 64 51 51 49 41
178 110 60 67 102 148 71 127 91 63 78 -2 -9 174 166 141 108 70 66 97 113 170 172 167 162 148 129 135 157 227 359 376 400 434 398 335 227 188 165 151 137 120 101 82 69 64 60 58 60
86 135 116 90 138 174 181 115 192 181 149 77 98 57 38 48 69 123 93 74 116 166 169 166 149 148 132 140 156 227 279 253 309 350 296 231 204 177 159 146 134 122 108 93 77 72 69 69 63
54 77 140 121 111 128 232 122 122 32 61 35 83 60 62 65 78 16 87 63 91 120 135 151 135 145 131 156 197 258 276 297 278 247 202 176 186 186 159 157 147 130 112 97 84 83 80 84 89
156 162 66 124 94 158 199 116 58 54 35 24 3 48 55 61 75 92 57 62 84 97 128 143 108 126 142 180 232 309 300 295 310 200 196 246 234 202 176 162 149 133 116 103 92 91 91 94 109
118 201 253 309 291 188 173 82 143 74 70 40 20 61 20 27 48 95 93 79 70 76 111 127 113 139 170 210 245 334 322 352 240 245 254 268 233 203 185 168 150 135 124 111 102 104 106 106 126
202 248 297 228 343 325 143 147 131 110 -22 1 79 63 41 45 -46 68 140 111 91 105 138 147 148 159 183 199 254 331 352 265 262 322 262 262 230 205 186 168 155 141 127 119 111 108 114 120 139
122 166 194 299 366 485 384 275 162 134 139 90 54 19 -2 -40 -61 -35 132 116 106 111 134 147 172 168 184 226 306 351 282 309 289 253 265 237 224 204 188 175 162 150 139 129 119 116 124 132 130

GFSSGP_con_3kmhel_027.txt.gz
Helicity
66 35 29 18 49 45 43 54 28 53 49 49 111 106 72 96 83 72 33 120 93 65 67 45 45 33 12 8 10 13 13 15 20 35 80 98 82 53 51 47 44 45 48 50 36 35 54 52 30
73 48 26 54 64 55 46 31 49 35 81 77 51 46 73 67 60 46 23 74 71 61 65 44 49 35 33 23 17 20 12 5 -8 25 57 56 61 63 51 45 46 46 51 61 53 40 38 45 42
50 44 67 70 37 25 45 66 59 79 41 43 65 51 53 77 60 50 68 66 53 42 41 93 60 74 54 33 20 16 17 14 7 39 32 26 41 49 50 43 49 50 53 58 61 57 54 51 46
68 52 82 89 28 16 18 74 58 56 47 60 93 99 63 95 63 94 64 45 38 42 47 130 131 94 77 43 22 14 16 15 33 31 23 18 23 25 31 48 51 40 38 43 43 46 41 39 31
65 96 88 65 20 -1 43 68 82 77 93 57 61 52 68 50 61 52 66 64 86 100 132 117 118 79 72 51 35 21 20 25 35 27 21 10 4 -4 3 38 41 23 20 16 16 18 19 14 15
118 113 100 75 25 21 15 63 56 45 50 58 55 64 66 63 31 53 55 68 64 96 119 110 74 89 75 48 42 27 24 25 17 7 0 4 -10 -27 -19 36 26 12 10 6 11 16 17 15 17
108 110 92 52 44 28 58 56 79 46 26 24 51 107 91 79 100 51 48 56 68 95 90 74 53 92 89 57 48 31 24 18 21 12 4 2 -11 -4 50 41 23 13 12 11 16 17 12 33 53
113 117 52 57 42 19 49 82 64 78 54 89 110 95 64 156 77 54 61 67 63 85 82 80 76 70 73 55 58 44 36 28 22 27 35 15 14 38 48 39 35 29 27 30 34 46 51 49 50
122 137 100 65 45 53 41 107 54 106 117 107 72 111 122 101 69 72 63 65 67 72 72 63 79 71 79 70 67 57 52 44 36 42 43 21 5 20 26 73 59 50 51 47 55 49 40 31 41
141 148 94 68 70 63 95 53 45 96 56 96 104 118 122 117 89 88 87 77 60 49 51 63 69 82 108 102 105 51 52 41 35 41 47 19 33 54 76 73 62 66 69 70 54 30 11 24 35
89 105 62 87 171 191 145 113 126 101 107 66 61 76 97 151 133 119 111 101 82 58 62 56 61 71 120 103 98 74 68 48 43 44 54 48 69 77 62 64 53 59 44 50 29 12 53 49 47
96 104 74 130 112 92 84 85 66 49 69 90 73 86 155 139 144 129 111 116 121 80 68 60 57 67 81 100 77 52 57 71 64 63 59 71 74 70 71 50 143 116 87 62 35 61 51 35 41
113 88 81 109 95 62 71 70 79 72 68 93 157 128 165 118 140 144 139 111 78 105 93 75 56 61 55 62 38 38 52 83 75 77 65 71 83 86 84 156 139 126 99 77 64 59 51 55 48
143 117 123 63 58 38 38 29 49 41 22 32 40 108 94 110 108 139 120 117 122 101 103 89 67 60 38 43 37 39 59 74 92 87 83 89 100 123 161 152 137 139 111 89 75 76 65 58 51
153 61 58 30 21 26 24 11 29 -1 12 -21 -14 -5 17 60 105 80 139 124 87 81 106 107 95 69 61 57 51 52 62 72 100 97 98 97 157 158 148 159 146 125 103 83 77 69 61 47 44
82 43 66 43 49 47 73 -9 50 34 37 32 13 8 5 73 102 112 106 105 101 103 130 124 143 103 73 57 57 67 88 103 137 119 128 117 150 137 145 157 150 107 101 93 90 75 49 40 43
55 95 33 72 -17 61 19 31 89 70 83 54 66 61 33 19 85 110 124 142 78 72 96 123 146 117 92 75 86 72 81 159 161 175 159 187 145 148 152 163 140 95 110 101 84 75 58 49 43
81 40 72 75 58 0 50 22 38 60 29 43 50 50 57 43 47 148 183 193 178 104 101 103 123 128 118 114 100 109 159 238 168 248 253 180 172 194 204 169 127 115 105 97 81 68 59 49 35
89 113 96 96 79 54 61 30 33 42 36 38 49 47 40 34 37 68 100 173 210 166 161 156 153 155 167 183 160 186 275 361 353 291 241 214 214 223 204 189 151 109 111 107 80 67 58 50 37
50 51 49 49 29 51 45 43 40 28 36 41 40 41 43 45 38 37 53 77 115 195 200 231 197 197 183 206 188 234 348 447 374 344 303 285 279 271 237 183 144 128 123 106 83 65 46 40 33
22 31 37 34 66 41 23 12 -18 43 55 34 22 22 16 38 59 55 56 71 95 116 185 227 219 226 216 203 266 371 539 580 514 391 428 380 337 329 283 209 163 133 123 105 86 72 55 38 33
32 32 34 37 41 5 25 11 66 122 62 38 59 59 34 58 65 58 66 82 94 96 154 193 238 263 252 241 304 343 455 460 427 464 445 403 359 370 268 223 165 156 130 102 81 69 54 22 43
49 108 72 52 41 71 49 77 30 30 25 50 24 65 84 86 87 104 90 84 90 124 137 214 225 239 269 279 235 303 294 261 403 470 432 400 406 366 346 197 160 155 135 104 87 69 60 54 47
133 76 50 59 96 83 20 39 61 16 37 70 153 88 119 127 172 142 121 99 108 138 190 239 211 208 254 264 295 263 226 301 495 509 517 435 400 349 255 176 183 153 135 107 94 82 67 62 61
96 119 125 59 114 132 123 55 168 79 54 92 82 80 106 73 91 120 99 104 97 124 148 221 192 214 231 261 188 162 212 296 364 439 437 435 383 361 254 189 171 156 137 112 93 77 64 64 66
67 105 102 134 84 106 245 218 238 117 100 86 95 51 66 95 85 70 78 52 82 91 119 179 175 214 200 194 186 159 287 284 308 353 384 386 330 277 246 197 165 149 126 112 95 84 78 79 74
104 86 56 98 100 150 203 131 131 65 40 55 49 12 23 49 53 100 123 97 45 60 90 137 151 173 177 164 192 267 244 281 312 369 343 320 277 230 207 194 173 146 130 113 96 92 82 82 98
65 149 176 202 187 128 130 115 220 52 68 56 87 34 42 48 61 88 63 72 57 61 87 96 124 156 152 164 236 264 246 317 391 362 347 322 236 202 200 204 173 150 133 119 109 105 112 104 117
117 150 197 220 289 260 192 278 126 191 255 221 62 93 111 71 40 16 15 -46 88 87 86 99 138 165 161 197 205 222 271 402 358 362 403 270 244 211 201 196 174 150 134 121 107 116 119 110 121
92 105 47 161 208 263 228 381 163 78 114 95 91 81 35 28 20 23 4 -55 60 92 116 111 176 164 199 237 206 238 325 337 359 365 314 278 262 234 200 191 171 152 139 127 116 115 116 123 124

GFSSGP_con_3kmhel_030.txt.gz
Helicity
78 88 43 40 60 56 52 20 44 77 55 106 63 132 155 74 65 61 61 106 162 107 94 59 62 50 39 30 23 15 7 12 18 33 65 81 73 63 54 45 44 50 53 63 70 64 59 52 43
62 75 51 55 77 79 62 -3 57 67 54 114 104 103 120 79 39 23 55 60 110 105 72 66 69 60 51 43 32 21 6 -1 2 55 58 57 52 51 53 47 46 44 51 62 61 60 52 48 43
51 60 96 73 63 31 29 9 119 83 135 39 43 30 12 71 78 -48 103 71 111 116 36 73 69 72 62 50 33 24 11 -3 3 26 23 18 21 41 43 44 46 48 50 52 55 52 50 46 42
74 74 97 97 29 18 -9 9 93 147 66 46 53 79 84 125 87 102 55 86 102 46 111 74 76 94 83 56 37 31 22 1 26 15 13 19 10 14 27 39 38 39 40 42 47 44 43 37 31
95 142 105 88 32 6 -8 15 82 123 77 65 35 20 84 124 136 90 62 63 84 219 169 108 128 134 98 67 56 43 31 30 30 21 17 1 -3 -7 -1 37 31 26 28 28 29 32 30 22 13
146 144 164 88 30 31 35 12 121 116 55 33 70 26 81 81 68 77 63 76 122 150 148 149 173 142 97 74 61 49 39 35 35 34 27 18 -5 -25 -7 28 20 15 15 17 19 20 14 7 2
134 140 115 54 43 49 35 15 117 89 51 45 36 65 91 151 133 71 44 65 126 119 135 129 135 117 100 83 74 54 41 41 26 35 20 13 -14 -19 35 32 21 14 13 17 15 7 3 18 18
155 150 81 53 67 28 45 40 121 135 82 17 103 80 117 119 74 75 64 95 93 144 121 111 140 131 112 84 86 69 50 49 47 43 41 25 35 59 59 48 35 29 24 25 29 26 22 20 19
116 180 137 49 53 32 77 73 152 172 122 71 78 85 76 93 65 111 111 114 117 128 107 107 131 111 101 95 93 81 62 55 51 54 43 30 21 28 40 47 55 46 43 43 34 23 13 11 13
208 168 148 90 67 55 58 76 89 161 71 85 125 127 57 71 76 105 83 83 108 111 91 133 90 76 89 119 131 92 84 73 65 55 44 12 6 50 79 78 66 64 66 53 32 11 8 24 19
139 119 105 98 124 55 165 251 105 207 167 87 89 100 94 44 80 83 62 72 84 96 93 93 132 123 179 164 126 86 89 57 50 54 67 7 94 138 106 80 74 71 60 50 31 30 38 55 47
96 101 90 92 167 114 112 163 260 188 143 111 106 98 110 99 63 102 122 90 97 102 106 122 99 208 204 191 118 84 97 52 49 58 80 61 126 101 87 89 83 62 70 78 46 70 60 59 66
102 99 91 110 187 174 91 130 148 189 201 87 84 175 147 185 155 172 101 68 102 118 118 146 121 182 215 189 125 30 83 56 67 80 81 116 111 77 44 151 205 163 114 83 86 104 94 81 68
107 152 102 149 136 114 94 67 96 115 64 70 102 137 203 219 199 149 195 155 141 121 187 179 137 194 193 166 98 34 74 106 105 143 100 93 79 72 180 266 212 160 130 120 135 125 104 88 73
224 163 105 99 118 96 90 45 65 45 47 42 45 25 -60 133 189 159 123 169 129 100 152 200 184 207 150 152 102 43 92 149 161 144 127 86 120 218 271 232 183 129 118 112 139 110 95 91 71
102 75 82 22 29 62 64 21 55 44 93 42 32 41 43 -18 17 59 117 143 140 126 106 166 188 209 161 129 148 134 157 214 203 136 175 119 235 287 262 221 164 131 112 149 153 129 104 87 74
78 101 65 66 63 61 79 49 41 160 112 112 93 75 63 15 -11 50 102 127 131 151 131 142 203 225 201 173 175 132 159 239 214 152 212 160 302 239 231 192 176 151 158 166 128 128 106 88 65
89 80 107 105 70 39 34 32 58 75 78 74 91 97 104 106 103 99 80 127 166 142 175 171 207 249 230 197 159 133 164 278 272 227 275 403 343 251 233 200 188 182 193 158 141 112 93 77 57
157 204 179 201 192 129 72 51 48 42 57 64 81 94 99 74 74 116 131 169 205 191 194 212 251 264 279 269 229 255 281 374 335 295 405 517 375 312 245 226 256 222 169 135 124 110 95 93 67
133 90 76 58 58 61 36 41 44 64 88 96 98 89 99 96 90 67 105 148 148 190 232 211 238 301 281 253 279 285 426 428 440 481 528 489 367 294 280 314 288 253 225 175 145 100 82 69 68
86 73 71 72 60 30 27 25 16 86 13 27 37 25 45 67 85 88 92 114 157 155 121 187 262 292 288 285 331 538 646 623 622 606 608 505 384 326 341 337 349 282 221 171 144 112 92 68 50
73 72 88 75 59 41 119 39 47 22 36 50 12 28 42 57 74 48 20 80 132 154 171 118 206 236 318 347 480 536 575 566 585 612 655 490 389 392 381 394 343 297 257 195 144 111 89 69 54
58 130 109 92 86 52 23 57 25 -16 11 28 36 59 71 66 79 110 112 133 77 121 164 183 124 204 227 322 517 559 581 584 618 628 586 476 448 428 426 413 374 326 248 202 167 124 106 88 64
128 96 42 40 47 40 8 33 15 -14 98 146 130 120 93 108 176 214 218 144 86 119 131 172 196 196 252 335 496 596 585 599 561 563 544 528 483 506 455 420 369 349 274 228 174 131 110 95 90
126 97 58 2 57 46 10 34 182 82 5 54 42 133 183 306 224 171 183 152 91 108 99 150 207 269 305 373 432 496 464 508 456 513 541 534 532 511 458 427 383 321 287 200 144 126 103 91 91
65 87 75 100 69 100 164 205 208 51 69 142 125 130 115 94 139 132 89 57 95 47 96 128 198 326 344 381 443 447 408 436 415 431 460 491 497 495 429 385 376 279 237 186 149 127 109 103 92
111 64 123 152 104 148 199 227 181 79 32 26 65 85 193 179 184 193 128 63 125 122 123 133 195 275 331 395 423 349 419 393 374 415 429 504 476 417 382 382 318 249 230 161 134 116 107 98 87
64 106 168 167 113 93 111 141 154 152 147 205 222 174 156 202 327 251 134 65 85 61 89 151 185 206 330 398 350 398 451 443 385 366 370 401 414 376 378 363 283 271 205 165 143 129 119 106 100
122 113 136 197 237 187 167 214 213 204 181 145 106 149 287 340 264 218 85 36 36 32 38 152 201 182 259 275 418 462 451 382 314 284 330 419 389 385 370 304 275 222 176 149 140 132 118 107 102
77 108 87 197 166 234 287 126 199 120 147 224 153 129 157 81 71 17 9 -40 -11 0 25 175 169 158 320 480 521 490 445 353 363 405 445 439 387 312 352 314 242 211 166 146 136 117 118 111 111

GFSSGP_con_3kmhel_033.txt.gz
Helicity
53 50 50 88 104 98 66 29 73 129 54 37 92 79 81 90 99 96 32 105 143 124 60 57 61 73 76 69 65 56 45 30 30 50 70 68 65 48 43 39 29 37 52 68 58 61 54 40 44
60 61 84 100 118 117 61 47 91 8 98 93 113 100 117 96 64 22 82 142 144 140 68 54 63 81 79 65 54 37 25 14 6 47 60 59 53 40 38 33 32 32 40 54 61 60 50 55 44
69 62 112 92 89 77 51 43 185 70 99 84 49 52 70 117 55 -16 77 136 125 135 63 53 67 68 69 64 62 36 18 19 40 30 16 18 24 30 35 34 33 37 38 44 52 52 45 38 29
104 127 121 113 60 34 37 53 20 66 98 81 58 76 87 62 -9 25 119 174 106 99 86 59 62 76 89 71 65 51 32 20 29 20 9 10 9 19 24 26 23 25 30 35 38 40 35 29 24
151 154 117 94 32 11 -4 111 71 64 96 57 56 33 71 145 112 62 153 138 121 109 86 60 72 102 101 72 67 52 48 48 29 21 14 7 1 1 7 11 12 16 21 23 23 20 20 18 18
187 159 135 77 47 38 26 58 42 73 93 105 63 55 37 29 93 58 129 208 174 115 80 61 96 116 109 82 77 62 60 66 39 29 11 12 -1 -7 17 7 3 2 6 10 10 12 11 9 10
163 184 131 95 46 47 7 91 90 116 87 70 88 74 86 85 39 56 179 204 190 189 142 118 114 109 100 81 77 68 71 72 66 56 39 9 -14 -10 27 14 11 11 11 13 13 9 15 18 12
179 197 142 107 57 0 -13 4 -16 173 150 142 65 87 125 59 39 52 150 208 197 149 137 168 161 138 117 81 84 74 73 86 77 73 45 14 2 28 52 25 16 15 17 22 31 30 19 15 17
147 213 145 106 82 59 42 34 61 114 180 197 215 40 86 80 85 84 118 227 182 136 111 161 178 154 126 107 96 87 95 85 85 81 62 45 38 56 57 34 35 27 27 25 25 22 23 28 22
236 201 137 126 56 47 46 35 39 124 157 165 168 88 98 82 101 116 123 157 190 155 125 143 147 144 127 125 127 116 107 85 86 57 51 54 46 47 48 47 43 41 43 34 29 34 35 35 30
191 171 145 86 47 56 46 102 94 217 217 165 115 115 62 69 85 99 106 113 124 171 137 139 112 119 153 160 148 137 112 88 69 66 40 57 53 70 77 63 51 43 50 41 49 46 45 51 54
178 149 94 77 47 83 80 105 173 156 283 319 189 141 161 104 85 78 79 78 80 128 161 144 138 129 135 179 158 137 129 97 81 68 47 92 97 119 92 88 72 58 51 60 64 56 72 81 80
137 124 114 122 107 74 88 85 139 175 210 262 173 165 202 193 113 63 66 79 99 113 102 169 154 187 228 222 173 164 127 103 73 72 43 106 112 102 117 121 91 71 69 86 94 96 105 97 92
138 114 170 153 114 123 88 40 96 128 164 140 98 39 123 205 213 163 127 124 141 137 158 137 235 216 269 236 178 192 138 87 97 96 47 92 89 98 139 166 146 120 130 149 127 122 112 107 86
172 187 177 112 85 73 99 28 95 83 53 58 44 53 4 97 187 200 149 130 175 126 159 218 239 246 264 241 194 162 139 110 110 82 82 101 108 142 206 212 169 142 172 181 161 156 129 122 101
190 138 92 57 77 88 140 52 49 39 100 145 131 95 0 -75 57 144 142 144 143 201 156 190 243 318 269 257 216 157 112 137 192 157 142 123 155 245 252 236 184 191 205 170 187 169 164 132 107
143 114 71 123 48 98 128 60 -7 73 124 111 134 112 100 33 -91 -42 110 117 74 135 198 185 232 302 317 267 223 167 141 155 261 242 232 230 267 311 286 238 210 230 231 198 184 185 141 131 103
98 101 145 134 160 116 121 99 80 80 63 55 78 78 87 82 30 -18 69 143 126 108 148 198 228 282 295 301 278 233 243 214 251 290 261 328 345 334 309 259 237 233 253 224 205 188 168 116 96
105 140 140 133 196 122 96 66 59 42 47 10 -14 40 30 37 31 73 88 98 120 133 134 162 199 292 362 350 308 249 315 267 289 307 329 379 377 358 309 273 264 235 244 197 189 191 165 142 102
114 80 54 32 86 69 55 15 3 42 101 101 57 75 51 37 16 10 40 76 108 114 125 139 151 209 320 376 375 374 346 366 336 371 405 428 447 384 368 320 289 267 276 229 202 185 166 127 113
68 64 53 53 24 38 28 10 40 52 34 28 9 24 67 70 50 62 69 65 61 96 113 127 146 147 215 338 476 606 590 531 508 454 493 505 520 430 398 364 345 314 304 246 212 174 156 136 109
60 84 89 88 65 64 47 19 58 40 51 55 40 38 23 15 83 120 131 95 83 91 101 110 123 143 138 279 494 516 521 520 506 540 600 626 496 479 418 433 394 354 310 268 228 207 159 140 113
65 81 69 62 57 27 44 91 26 -16 24 25 49 69 34 -14 4 35 68 93 95 119 132 150 123 150 186 188 363 466 536 574 640 645 681 632 564 526 538 460 426 367 321 290 277 250 201 147 117
99 73 54 57 52 89 51 104 29 -32 -15 49 44 26 12 3 35 98 143 165 170 225 207 144 133 145 173 197 328 400 618 683 695 657 660 613 577 536 547 521 430 409 336 314 308 261 206 208 148
102 83 67 83 88 62 93 82 148 6 -2 30 -4 38 76 103 182 221 194 184 202 181 179 162 155 154 143 191 299 475 554 614 640 613 608 604 591 556 590 553 496 423 330 346 325 267 252 180 132
84 59 70 57 58 49 140 68 -1 -13 -25 31 57 81 85 65 90 162 229 240 190 179 147 107 102 152 178 244 359 460 532 653 633 585 597 548 504 573 582 531 483 388 368 365 324 295 234 160 131
64 55 110 114 90 120 111 141 92 16 36 150 119 116 116 79 159 259 245 197 154 89 85 117 118 122 163 330 462 487 558 581 496 507 487 492 513 570 565 500 465 380 337 330 279 277 216 146 113
64 75 120 125 59 54 70 68 46 53 81 117 153 163 156 141 192 228 238 222 225 127 99 158 144 140 201 290 464 523 551 490 487 472 435 418 433 471 536 485 427 410 291 358 316 249 167 131 111
99 81 93 121 138 99 78 45 163 184 115 162 155 163 198 184 135 158 213 179 134 120 83 87 93 130 229 314 385 494 477 417 411 370 307 331 386 438 498 503 468 275 292 328 264 203 139 120 102
112 106 163 146 63 166 131 166 133 61 122 108 154 122 114 126 133 86 82 142 83 82 60 68 57 139 301 307 361 422 396 346 325 262 246 308 414 458 494 478 306 399 333 258 246 173 123 99 91

GFSSGP_con_3kmhel_036.txt.gz
Helicity
55 61 41 75 100 97 80 67 64 115 154 29 7 27 22 62 37 73 36 66 128 103 71 46 44 52 70 79 81 88 79 81 91 81 72 65 61 50 42 32 32 42 54 73 61 64 51 21 25
65 80 94 99 125 119 77 71 95 126 132 49 34 36 57 69 64 71 76 47 111 115 78 50 53 53 50 58 69 79 69 55 59 64 59 50 39 34 35 26 17 30 43 49 52 37 37 41 39
101 106 125 134 136 104 62 117 150 125 59 40 54 40 53 83 71 22 44 100 147 137 88 58 46 44 53 65 56 57 52 31 54 57 55 36 24 23 23 22 20 24 33 40 43 39 40 36 30
160 170 185 186 90 49 47 98 157 249 58 52 45 47 83 78 80 28 100 128 177 144 111 62 45 50 59 62 55 53 52 66 54 42 29 23 18 13 15 18 18 18 21 27 30 32 27 20 19
206 215 204 155 36 13 27 43 87 207 154 54 42 62 79 107 82 112 113 117 174 147 113 67 49 56 67 69 63 61 65 58 46 30 32 22 13 14 7 3 3 3 5 7 11 14 15 14 14
264 238 206 105 40 6 -13 32 95 128 95 69 61 69 60 54 116 111 117 99 128 144 108 70 54 61 61 57 57 51 56 71 60 51 29 12 12 12 3 -1 -5 -8 -8 -5 1 9 12 11 13
231 237 158 90 46 38 -1 -10 90 152 107 85 87 92 69 32 85 132 118 110 112 125 116 73 59 64 66 56 58 56 73 72 69 51 30 17 0 5 7 1 -4 -7 -4 0 5 10 16 21 26
159 186 129 91 94 45 44 41 91 114 119 88 143 117 95 43 67 161 187 180 150 117 104 86 87 93 83 73 61 54 91 86 79 74 57 25 1 8 24 7 -2 -5 1 5 3 20 25 30 46
163 184 134 109 100 88 66 55 55 77 94 149 186 150 104 100 140 223 221 214 184 156 136 139 132 132 117 99 75 70 102 112 110 89 56 21 17 39 54 22 14 7 10 16 21 31 35 38 53
209 195 142 113 79 63 64 41 47 143 162 165 214 198 222 183 80 178 178 176 176 163 150 139 144 149 143 119 107 100 103 108 112 88 80 60 61 86 65 50 35 29 31 32 35 45 43 48 48
210 159 148 114 96 73 92 119 36 132 173 169 167 139 178 166 118 106 122 157 172 160 151 138 142 153 169 154 130 115 118 114 106 99 91 95 74 75 81 69 48 45 58 56 63 64 61 60 59
190 147 140 87 73 67 63 84 66 153 156 165 196 245 199 144 148 93 123 136 174 169 173 145 134 160 166 171 170 137 136 128 122 101 99 127 98 75 86 89 67 67 74 81 80 82 81 85 79
153 174 135 94 99 97 109 69 70 68 178 190 176 240 259 232 158 146 145 141 163 169 152 169 163 169 183 173 159 155 147 144 115 118 111 128 111 92 106 89 83 77 95 88 95 106 111 110 98
147 97 109 110 99 113 99 63 74 51 71 148 120 156 195 230 250 243 185 111 132 150 193 202 175 178 208 194 180 157 148 144 139 136 124 135 125 121 143 108 87 92 95 97 123 122 121 124 109
150 168 191 149 101 95 98 10 49 42 14 62 65 78 78 117 215 225 241 206 148 123 169 253 212 210 237 223 215 202 165 155 145 125 116 135 123 144 154 138 139 129 122 151 172 168 157 150 132
178 171 145 113 80 71 107 19 50 58 59 60 38 54 63 31 55 161 144 171 156 167 149 215 244 262 251 245 240 229 194 193 175 116 84 90 106 160 182 174 162 184 170 182 186 184 188 167 145
195 159 114 114 65 91 126 67 23 66 123 104 92 90 116 90 9 57 121 69 102 132 195 186 258 317 281 271 262 243 228 204 206 137 84 77 141 206 229 213 225 233 213 210 209 188 168 159 146
120 120 114 109 158 146 144 115 84 98 109 106 109 72 50 78 52 74 111 139 117 91 130 192 200 271 303 322 312 307 281 250 232 159 151 185 211 249 270 277 290 262 258 244 216 197 190 165 150
149 150 147 131 128 90 85 67 58 31 44 44 21 12 6 7 -23 17 81 124 148 147 146 161 178 222 345 376 375 324 258 283 276 210 215 290 308 295 313 315 333 295 276 244 233 218 187 183 151
117 133 99 66 62 45 44 25 -13 18 61 115 89 5 6 9 4 22 59 81 103 102 142 133 161 183 293 353 354 366 332 328 309 275 294 352 361 375 343 341 350 325 316 267 230 198 200 181 158
81 80 64 62 33 -27 8 24 63 82 70 58 54 76 69 67 30 17 50 61 69 95 113 127 147 166 171 264 387 502 463 487 473 393 357 370 421 423 358 334 375 373 348 281 227 200 193 194 176
109 74 54 50 36 60 52 8 50 45 34 27 46 70 58 65 83 104 100 76 52 66 75 90 125 146 116 190 337 394 349 403 389 396 454 477 440 438 445 419 407 424 383 305 252 220 213 215 200
84 81 50 31 31 18 9 68 -3 32 54 43 70 46 49 49 39 42 77 104 129 111 116 105 87 107 156 169 240 310 309 372 500 554 523 492 494 431 440 441 444 442 420 329 296 264 234 230 229
76 93 70 36 20 58 19 85 -1 11 -4 -4 43 -4 5 22 28 48 57 65 81 100 115 136 129 108 99 153 222 241 265 483 550 559 515 515 531 522 479 473 477 476 487 417 329 286 254 258 250
114 94 85 96 80 53 37 43 33 1 -52 -1 24 34 51 29 26 72 107 159 111 99 113 129 116 128 164 122 162 227 353 395 472 525 531 565 556 550 513 517 551 528 575 481 406 355 331 283 274
75 64 58 67 55 51 51 26 5 19 15 46 69 54 74 85 67 57 86 118 139 154 152 144 113 70 73 98 137 226 331 425 471 509 526 508 560 584 594 592 594 565 597 505 426 388 405 354 274
62 70 64 66 46 48 54 63 27 33 86 147 146 183 209 228 194 126 116 125 145 147 136 102 68 71 80 67 145 240 301 428 500 507 509 577 595 590 596 557 522 454 564 478 435 414 432 244 288
65 72 86 98 47 36 36 45 22 13 77 101 103 91 87 97 116 181 189 108 73 101 91 79 57 -4 26 68 174 266 356 426 466 551 569 502 528 527 513 460 433 457 543 473 471 438 459 289 281
89 63 75 86 86 49 49 12 50 79 102 45 54 43 4 -36 4 46 99 192 109 80 87 97 87 49 -7 118 253 351 408 464 471 509 443 445 436 433 411 420 457 495 536 500 458 384 253 185 311
70 63 106 88 61 96 79 130 1 -13 62 42 -64 44 83 84 62 73 51 25 93 70 84 67 69 39 44 165 310 375 413 410 362 349 355 344 325 343 398 492 544 556 558 517 418 203 279 227 232

GFSSGP_con_3kmhel_039.txt.gz
Helicity
75 86 54 69 90 79 78 85 73 129 152 82 75 51 36 54 74 90 34 17 120 116 58 45 35 14 27 45 64 78 109 116 104 100 73 64 47 37 32 30 37 45 51 41 42 66 49 29 19
88 90 102 84 99 87 65 57 83 112 92 107 90 58 40 51 67 74 58 6 99 101 76 53 49 33 41 46 48 60 78 97 99 84 68 59 45 38 31 24 24 37 46 53 58 48 41 26 28
113 124 118 109 89 68 52 93 141 131 158 83 85 61 24 29 55 57 12 68 95 109 92 58 58 39 35 41 47 50 57 70 81 77 64 43 34 33 31 21 24 22 23 28 32 33 30 31 35
148 185 179 141 83 67 54 105 150 227 184 86 67 92 42 40 63 36 72 111 118 121 97 67 77 40 30 39 41 39 39 49 67 70 63 46 32 25 19 17 16 15 17 21 20 18 19 24 26
222 220 197 140 88 57 66 51 44 174 227 193 137 65 51 73 78 107 121 113 138 150 111 93 81 44 39 35 33 37 29 73 68 57 47 39 29 22 18 12 4 3 4 7 9 12 15 16 17
262 249 226 172 84 55 44 49 67 138 168 222 146 89 69 69 98 75 128 107 107 141 122 105 74 48 39 37 38 31 66 58 54 45 48 37 32 19 11 5 -2 -6 -6 -2 3 10 13 18 16
230 269 204 159 71 71 45 10 120 133 136 115 66 83 77 56 62 119 111 111 108 129 133 113 75 51 45 43 49 42 49 53 51 53 45 38 41 31 16 6 -2 -8 -8 -4 3 9 13 27 29
240 241 187 165 104 53 11 41 70 81 98 75 42 69 60 53 87 160 130 130 124 108 116 97 88 71 68 56 41 38 69 57 63 54 43 33 29 44 28 15 1 -1 -2 4 8 12 27 49 50
237 256 216 177 97 49 26 101 96 97 106 114 105 89 94 226 197 193 175 152 120 101 98 101 96 82 83 76 54 48 79 72 65 66 61 44 29 28 43 30 15 18 18 17 24 32 46 63 68
271 261 191 119 63 30 75 57 67 110 161 150 155 135 170 264 191 178 148 122 123 124 89 89 104 94 116 102 89 89 99 93 86 78 64 43 29 47 57 45 33 36 40 41 49 58 66 66 63
244 202 200 96 79 42 56 87 52 81 138 127 174 161 216 203 174 182 155 144 125 143 130 102 104 105 136 139 121 119 120 118 103 98 86 69 68 95 84 63 47 53 62 61 76 88 79 87 86
198 162 149 63 65 43 26 46 47 62 95 121 192 183 159 158 151 128 145 142 164 162 147 125 116 127 144 150 154 137 135 130 125 110 111 119 115 123 111 84 69 71 84 84 88 89 97 105 107
179 195 129 89 85 58 46 49 52 39 70 122 165 200 226 224 176 131 119 156 200 178 162 133 141 164 164 163 171 167 166 158 129 124 129 141 145 138 128 103 87 83 98 89 94 102 106 116 117
127 103 108 121 93 74 44 41 76 67 39 140 100 172 195 217 197 194 177 180 209 182 175 181 148 173 192 193 182 185 163 158 149 138 145 150 155 150 134 119 92 95 96 94 99 112 117 121 117
153 133 126 99 98 93 53 28 78 73 45 36 63 95 153 146 164 152 165 184 212 215 191 191 181 199 204 210 206 193 172 151 155 151 150 165 174 172 154 139 113 99 115 119 138 152 151 152 148
172 173 149 144 116 97 87 15 93 47 73 71 35 25 48 105 124 125 141 175 215 247 246 221 213 218 219 226 240 216 191 173 175 167 159 158 171 178 160 155 129 135 157 160 169 173 172 149 135
212 169 158 147 81 110 129 47 18 44 88 86 77 46 13 68 92 125 109 146 184 214 210 231 231 244 235 250 279 238 238 190 205 165 165 164 159 175 182 172 157 194 209 200 201 188 156 139 136
187 126 119 121 142 127 119 72 52 64 71 76 97 74 33 35 38 92 114 115 167 172 161 188 211 217 262 313 308 276 268 219 231 162 170 204 180 182 196 196 208 243 250 234 209 198 186 152 142
139 154 151 147 120 109 59 33 52 34 53 42 33 25 21 16 4 -7 59 87 69 122 180 194 230 177 258 363 396 305 280 287 270 205 183 240 225 209 206 204 234 280 293 242 247 233 187 173 152
161 165 149 108 71 78 55 -3 14 22 49 70 87 78 59 64 53 41 54 72 77 94 149 198 253 197 205 293 318 356 329 312 288 256 205 275 309 270 247 265 251 300 331 306 279 254 239 195 164
103 97 75 68 70 19 42 4 61 44 44 71 71 71 60 38 13 26 32 33 63 95 109 134 182 213 195 208 269 427 417 455 395 323 256 276 316 324 289 296 289 331 341 329 289 285 267 245 200
118 63 55 69 73 69 74 -9 30 68 71 29 40 46 36 63 72 69 83 118 125 105 108 114 127 154 180 192 298 342 357 400 382 312 362 363 351 340 346 331 311 353 380 343 329 316 305 291 239
80 74 67 44 37 39 59 70 27 68 98 79 84 88 69 89 114 128 108 96 90 87 108 141 126 127 143 158 231 302 296 326 355 425 390 419 418 392 405 395 362 355 410 371 361 364 333 295 281
66 99 80 54 28 78 42 82 32 37 65 70 97 164 81 92 95 93 57 35 51 56 51 77 116 155 157 141 157 211 204 287 368 405 413 421 455 444 424 433 404 383 389 389 344 329 362 326 284
122 101 96 112 123 64 26 46 -4 14 47 48 70 76 85 95 116 99 99 111 122 80 69 74 76 93 102 123 177 179 170 262 282 350 378 443 469 469 409 465 487 457 424 439 426 378 398 378 283
108 80 74 80 86 62 41 30 -14 23 53 47 46 49 103 116 89 125 127 94 89 88 88 79 80 76 71 57 65 88 142 228 254 325 365 370 397 403 443 491 498 486 510 501 477 474 481 438 332
68 88 80 44 17 36 44 33 13 57 106 94 126 132 119 96 49 35 77 147 192 163 99 62 73 70 73 72 63 63 119 173 242 272 336 348 387 459 470 535 513 533 554 503 500 513 508 495 464
59 55 79 102 48 44 47 23 13 10 64 82 79 46 7 -20 -4 4 -17 26 88 161 178 154 96 59 53 37 11 7 109 179 226 283 326 388 398 430 473 470 508 557 518 482 500 546 497 565 533
88 84 87 77 62 33 45 5 -17 35 23 32 -32 -68 -61 -38 -23 -5 35 20 51 98 141 139 167 116 84 56 43 43 104 222 282 313 361 406 410 423 419 416 469 459 448 463 528 544 579 581 498
49 33 72 75 46 86 47 5 -1 -18 -4 -25 -5 -16 -13 -0 30 -12 22 100 123 118 166 167 162 144 91 71 56 105 167 206 251 297 350 388 408 377 365 371 387 441 499 568 582 611 495 474 418

GFSSGP_con_3kmhel_042.txt.gz
Helicity
86 84 60 79 92 92 89 95 71 110 159 101 102 88 106 82 95 109 20 30 55 91 65 56 40 22 21 13 49 62 82 77 70 90 61 57 52 44 31 17 11 7 -6 -9 24 65 42 21 16
85 86 110 78 90 83 76 56 85 111 124 147 82 86 116 104 54 59 47 6 69 103 81 51 29 21 14 16 46 59 77 76 71 91 72 45 38 36 25 20 29 51 71 81 86 52 31 21 21
96 112 112 84 66 51 58 58 95 102 169 100 120 79 85 81 46 24 18 34 84 111 80 46 34 39 26 30 40 52 56 69 72 72 57 41 39 36 30 27 26 29 34 40 34 30 29 24 32
146 166 160 115 62 54 46 106 91 164 143 144 129 136 71 29 45 39 54 83 110 101 86 54 58 58 52 29 34 35 51 63 65 64 53 31 29 32 31 26 15 5 15 23 20 18 22 25 30
231 195 160 106 60 33 55 37 30 100 162 186 183 156 105 44 48 63 106 114 97 104 90 71 69 60 46 22 26 26 27 43 49 60 38 29 30 28 25 20 7 3 4 7 11 14 15 16 18
279 226 171 133 74 50 40 44 58 71 107 177 160 154 105 37 60 60 70 96 76 102 103 85 78 56 42 21 24 28 19 46 51 40 31 31 34 35 27 20 15 6 5 7 11 18 16 19 17
221 265 170 113 64 57 36 42 87 86 114 143 110 158 109 64 49 66 72 85 84 102 121 97 85 58 50 31 25 20 45 55 42 30 29 34 24 26 27 20 16 12 12 17 23 24 21 24 26
228 219 146 132 101 61 21 41 72 78 100 58 15 110 80 60 89 125 130 106 102 112 97 95 82 83 67 50 37 35 68 56 34 31 34 38 49 27 13 12 11 16 15 23 28 32 32 44 46
257 226 186 157 125 80 58 93 118 94 101 117 82 105 95 80 159 161 126 116 83 71 81 99 94 70 70 65 54 48 55 73 47 38 43 48 39 32 32 19 8 17 19 25 24 47 52 60 63
275 219 167 166 140 73 101 70 112 141 160 126 130 130 118 136 153 145 99 95 106 67 48 64 77 81 79 80 82 80 74 91 67 56 51 63 56 47 48 39 24 25 32 39 50 63 65 61 50
250 195 226 187 141 121 76 81 68 81 115 79 124 154 172 180 140 109 79 62 68 72 73 75 53 67 97 107 105 104 108 114 98 80 71 70 68 61 71 64 48 52 64 63 78 83 67 61 62
212 181 173 144 143 92 38 42 83 70 65 65 97 136 184 173 114 93 67 73 75 96 93 86 77 67 98 124 124 120 140 132 122 104 94 96 87 91 104 90 81 76 80 83 84 85 89 86 83
171 169 147 115 115 59 22 27 33 63 48 81 116 154 186 176 147 120 97 112 114 92 110 91 96 87 121 139 138 146 145 143 126 130 127 128 115 118 133 117 110 101 101 91 91 97 101 97 94
87 144 129 115 60 37 9 22 46 47 44 67 80 128 141 161 149 151 129 106 114 124 122 130 107 127 133 161 157 161 160 155 144 145 147 143 143 142 142 136 120 119 103 101 102 101 110 114 102
129 122 126 63 58 63 5 12 66 47 65 64 48 70 143 153 152 149 151 128 141 160 179 187 171 152 157 173 192 184 183 175 158 148 161 162 162 157 148 140 140 122 120 127 134 136 136 142 132
153 131 138 113 87 92 71 13 58 75 69 60 53 44 72 131 147 148 142 145 143 159 197 188 191 189 177 187 221 224 214 185 177 173 163 178 188 178 162 157 145 137 149 152 159 172 170 150 123
197 124 160 158 59 108 121 23 12 120 69 78 86 76 60 75 117 122 110 128 133 144 176 203 219 226 224 224 253 250 227 213 207 200 175 172 209 205 195 178 138 164 174 180 206 201 174 155 135
191 183 124 105 108 110 107 56 26 44 47 39 66 68 70 60 44 105 104 111 132 159 183 192 217 204 210 249 265 272 255 213 226 215 180 194 194 213 223 198 159 197 220 214 227 229 211 163 147
125 133 125 129 116 91 68 28 30 35 32 45 54 51 52 48 39 53 103 121 138 167 197 231 236 241 248 281 265 227 225 244 254 256 212 217 204 217 224 200 178 223 247 230 227 263 216 201 183
137 134 130 118 91 60 45 -2 7 32 44 57 61 74 76 67 46 34 48 86 126 129 153 177 202 214 242 295 307 327 273 244 281 287 248 239 260 243 239 231 230 237 259 255 278 303 268 228 182
135 117 100 81 85 24 21 -29 59 60 59 55 58 60 65 91 107 130 114 114 110 97 117 149 170 151 152 214 323 424 394 383 334 304 253 266 323 287 261 268 298 260 275 260 277 296 307 296 207
121 76 72 111 102 64 68 -26 55 78 123 108 150 153 126 132 126 138 214 232 161 141 124 115 160 200 191 191 248 288 305 332 336 314 287 309 367 343 295 308 319 308 316 291 295 303 338 311 281
151 86 78 76 81 75 87 47 68 76 149 185 257 207 212 191 105 138 144 150 140 107 98 97 96 163 221 194 204 258 246 248 301 278 299 313 347 373 332 345 328 329 353 328 347 350 333 308 340
52 115 90 58 43 82 58 51 48 93 117 152 142 163 177 167 143 119 67 70 99 123 131 140 112 106 101 154 188 231 206 213 271 286 308 369 373 373 333 336 335 351 386 387 381 356 333 308 298
98 106 98 88 103 64 40 60 31 76 54 53 35 75 89 85 85 87 105 138 149 161 191 179 160 152 109 96 113 141 156 191 243 247 238 299 321 360 328 342 364 386 387 399 416 400 373 354 331
95 76 76 83 89 71 51 65 38 47 48 52 66 100 63 43 -4 40 57 58 74 97 125 152 162 140 99 73 63 54 51 133 184 201 251 273 288 284 304 379 382 387 393 419 460 416 404 400 379
68 85 85 47 20 64 52 42 31 30 42 61 96 45 9 -27 -36 -31 -12 -7 18 69 101 125 148 175 162 116 96 66 55 66 108 157 201 219 246 283 298 328 388 420 435 461 461 447 464 450 449
77 54 97 105 77 104 71 56 42 92 86 95 51 1 -13 -49 -48 -54 -40 -53 -22 24 93 131 130 149 197 158 125 101 75 65 85 137 179 227 247 292 310 334 388 441 451 432 443 455 471 512 500
89 78 90 63 64 55 80 27 22 20 25 0 -8 11 -53 -31 -7 10 13 25 12 51 97 121 223 220 214 208 153 143 119 83 79 119 190 220 241 263 275 295 354 365 378 398 410 449 515 583 606
51 34 64 56 43 64 42 28 43 -9 10 -29 5 -34 3 -4 1 7 -2 -12 10 48 106 156 148 258 235 225 185 138 93 93 98 127 140 200 219 208 227 257 295 315 357 395 436 496 549 598 588

GFSSGP_con_3kmhel_045.txt.gz
Helicity
78 76 69 83 84 108 103 95 84 108 137 84 111 99 109 118 106 102 18 16 49 76 66 56 51 22 12 1 50 62 65 67 64 65 60 61 50 37 23 15 -4 -22 -30 -24 43 72 36 18 19
90 81 110 90 85 91 97 77 102 97 142 155 92 86 104 125 58 66 33 16 61 80 63 49 47 28 12 19 39 60 60 52 59 66 44 24 22 23 19 28 38 42 38 86 84 55 25 23 28
117 125 108 96 79 79 81 62 105 90 134 133 132 84 110 128 49 28 18 8 21 65 58 55 40 22 19 12 29 47 50 50 57 70 42 16 14 10 3 19 34 49 65 63 56 39 28 29 22
150 172 140 111 69 77 70 71 80 143 95 116 138 144 79 27 52 21 20 41 47 63 64 58 28 29 31 44 38 28 37 46 41 50 38 16 11 5 5 5 -0 3 28 30 20 20 25 19 13
237 195 142 98 62 52 63 32 79 112 135 141 137 140 133 45 27 27 37 48 58 56 60 56 44 56 60 47 34 23 33 42 33 46 35 17 17 17 10 5 -7 -7 2 8 12 18 19 15 7
269 216 149 97 49 30 46 54 37 61 83 138 128 146 120 37 32 26 36 37 54 60 52 57 65 63 55 45 36 22 24 35 38 40 25 17 16 14 16 13 7 3 5 14 23 26 19 15 11
219 242 148 98 60 47 36 36 52 58 66 94 116 149 151 98 32 21 39 36 41 70 69 55 48 55 49 39 35 12 9 33 53 37 30 24 27 20 10 12 13 13 15 20 21 21 20 20 16
232 207 121 110 61 46 18 40 56 50 77 85 93 170 163 112 44 40 54 60 57 61 59 60 61 52 40 30 40 28 10 74 61 36 33 48 36 25 22 11 5 14 20 28 22 29 30 32 31
247 218 159 104 105 73 47 75 87 101 111 115 102 145 134 70 66 68 77 72 62 59 53 63 64 49 44 40 34 35 72 72 56 45 40 52 31 29 29 24 18 16 19 33 24 43 49 56 54
249 201 142 140 133 78 90 78 83 123 150 132 112 127 114 74 91 83 90 55 56 59 40 36 47 50 58 59 51 46 66 57 54 54 52 42 40 38 42 40 39 34 44 41 50 63 65 46 38
238 172 178 158 126 105 79 102 97 111 129 93 114 129 114 120 125 103 71 53 43 25 42 33 33 42 53 59 63 62 83 97 73 73 73 67 61 53 52 58 57 62 72 75 74 64 50 46 43
217 182 139 154 121 139 99 101 98 86 89 80 89 131 120 108 137 131 97 66 61 49 42 40 39 50 51 58 74 73 96 101 97 87 82 94 81 66 60 68 74 77 85 93 81 69 68 68 60
204 146 166 125 125 109 96 82 77 81 68 69 84 102 129 135 121 115 105 104 87 43 47 68 54 55 68 70 80 87 89 93 96 93 95 99 92 78 73 77 91 92 99 99 99 90 86 81 75
90 140 96 95 77 76 34 42 53 61 49 47 64 84 112 125 122 132 123 94 80 63 53 72 78 83 99 99 93 95 97 87 93 100 100 100 101 91 87 93 101 105 99 104 101 99 102 98 91
110 104 106 77 73 69 12 19 57 48 56 57 74 79 111 112 136 102 113 107 86 69 71 89 107 116 119 112 109 120 115 102 101 109 106 110 107 97 105 108 121 112 111 118 128 128 127 124 115
171 149 114 84 62 75 62 15 30 74 53 55 69 70 76 92 105 105 109 117 128 120 99 86 137 141 144 151 157 166 137 124 120 120 111 116 117 109 116 133 134 126 140 136 131 139 142 141 125
169 117 134 174 69 86 95 7 -6 122 63 75 76 82 59 69 106 112 103 100 112 126 132 124 116 116 128 152 180 165 150 168 155 166 137 117 132 128 120 131 134 146 165 155 145 164 158 152 137
177 206 142 113 90 94 86 60 66 71 24 32 50 54 54 54 63 102 126 119 115 121 121 141 162 128 132 177 193 206 182 165 169 159 154 154 157 150 148 138 125 156 179 174 178 176 181 160 164
115 139 128 113 107 79 55 29 47 45 38 45 57 71 76 80 74 64 95 130 138 147 143 147 164 178 194 220 243 229 206 182 194 180 169 163 190 174 174 167 148 158 172 184 184 220 196 205 203
125 148 138 156 124 74 64 38 50 53 58 45 54 64 60 67 84 94 111 128 126 132 168 185 193 187 216 262 274 269 238 227 189 164 174 181 221 239 225 193 185 175 185 187 219 242 272 231 217
163 142 142 132 119 50 26 6 51 71 88 137 150 122 111 145 187 214 234 190 168 174 199 188 168 177 194 184 244 307 325 296 234 224 186 195 239 269 273 234 242 233 231 242 254 270 275 296 232
158 125 117 107 122 112 91 71 98 117 133 205 212 260 312 302 228 243 262 251 245 236 197 180 159 151 146 163 198 204 267 297 307 304 252 200 207 254 288 266 272 289 289 257 287 307 302 302 306
127 77 114 126 122 102 99 43 107 109 181 222 203 256 266 307 257 219 168 154 148 154 159 145 137 140 145 180 229 200 186 187 218 246 220 218 221 227 263 262 279 305 307 277 315 349 326 315 303
91 157 149 125 117 110 95 66 113 112 151 156 173 235 211 178 146 127 103 90 126 129 134 161 177 171 152 132 155 217 200 180 215 219 198 205 239 278 273 286 298 295 326 326 346 368 348 340 328
82 111 185 206 179 111 96 89 82 82 63 39 122 165 115 33 48 50 56 82 116 148 161 145 158 194 192 195 169 133 130 138 154 178 190 180 207 254 243 276 296 316 295 298 343 352 358 368 348
79 98 117 157 136 106 71 86 78 60 53 65 90 24 -30 -18 -15 -18 -10 22 57 97 126 145 159 161 187 207 226 204 170 141 129 119 165 199 210 185 149 193 236 252 298 317 321 328 337 359 345
73 83 74 68 75 86 79 67 37 48 57 91 76 40 35 8 -10 -30 -9 -1 10 32 88 121 145 160 156 181 186 203 184 151 120 79 74 97 127 176 159 141 179 208 226 257 282 352 330 323 372
77 74 88 99 72 92 85 72 59 51 29 62 40 35 19 -13 -9 -21 -13 17 13 8 48 103 118 181 227 202 190 196 200 182 138 107 78 88 109 124 117 128 149 210 256 279 299 323 327 369 383
89 78 91 83 75 83 123 88 26 38 38 37 -2 3 -1 -12 -28 -24 2 22 32 47 67 104 143 173 249 340 298 263 229 216 194 147 115 89 109 107 128 113 129 154 182 223 310 341 353 389 466
54 41 67 65 55 72 67 63 63 53 6 -2 -2 -3 1 -31 -21 4 27 26 27 44 73 89 119 120 125 132 201 225 198 158 176 155 116 65 83 102 127 132 128 136 179 235 296 335 352 421 501

GFSSGP_con_3kmhel_048.txt.gz
Helicity
52 66 53 44 57 73 75 73 80 65 81 94 85 118 142 196 157 83 29 48 49 69 58 45 47 22 -0 1 39 63 75 64 69 46 40 34 21 8 8 -22 -37 -17 -28 5 58 55 23 22 24
68 69 72 72 85 74 72 65 89 81 122 136 73 77 91 145 83 87 26 33 41 57 50 35 50 24 7 35 39 49 52 48 51 48 29 15 9 13 14 22 21 8 -3 61 76 46 21 28 29
83 89 76 81 84 83 97 71 90 103 124 162 117 81 129 134 67 57 33 27 45 45 33 55 44 22 13 38 32 41 39 40 51 58 32 12 9 16 34 42 65 69 95 74 50 25 18 25 21
121 123 118 81 45 53 65 87 100 95 105 141 147 126 77 59 77 35 20 20 17 37 40 74 56 24 22 41 37 30 31 35 39 49 21 3 4 10 26 30 39 41 40 40 29 20 26 22 13
176 150 80 61 44 42 64 75 90 134 142 138 163 140 119 75 44 26 2 16 29 43 49 57 40 19 36 42 37 26 20 17 36 43 27 7 -1 1 5 -0 -1 12 13 10 10 18 19 12 7
176 172 92 58 39 31 41 67 42 88 106 118 114 124 122 75 55 40 13 3 22 44 45 60 50 50 50 53 48 37 23 18 38 44 27 17 13 3 -6 -15 -12 -6 -2 1 12 16 13 8 4
155 142 70 50 45 29 39 34 53 72 93 115 99 111 125 111 70 41 18 19 22 38 40 50 47 57 62 51 56 39 34 25 39 54 39 34 33 20 12 -5 -10 -9 -4 7 11 11 8 4 3
195 143 71 58 49 46 37 50 51 53 70 64 94 102 118 164 56 51 41 28 23 22 36 42 37 37 33 35 38 30 23 25 58 54 54 59 51 36 26 16 7 6 6 16 14 22 15 15 19
266 149 92 46 43 39 40 45 49 74 55 63 87 133 144 101 62 65 61 49 32 21 28 38 49 48 43 42 46 26 29 69 72 59 60 57 31 34 45 38 33 16 21 33 41 45 43 47 47
180 125 76 86 54 61 24 27 40 64 66 63 83 113 96 84 82 80 67 74 62 31 27 29 42 50 56 59 45 24 44 42 33 39 57 34 44 46 40 54 35 22 38 55 57 60 52 8 30
161 116 138 100 72 77 18 47 82 78 64 76 90 144 133 81 83 88 68 68 68 37 38 34 34 36 50 59 56 44 46 36 41 38 50 48 57 66 47 56 49 46 45 51 60 55 34 39 39
173 145 201 89 101 98 49 77 87 78 107 93 128 141 123 106 79 86 85 85 78 58 40 37 38 36 35 42 47 46 48 52 51 50 49 64 68 62 62 57 61 54 64 64 57 53 58 55 49
154 122 123 110 91 93 92 70 77 83 81 84 98 109 104 104 108 95 95 103 94 75 53 41 33 21 41 35 49 49 53 61 58 56 60 64 71 69 62 67 71 70 72 74 69 71 75 69 66
134 156 77 83 84 77 61 57 87 57 81 63 62 80 88 97 109 116 108 103 98 80 68 48 35 29 43 49 42 60 58 56 60 59 56 56 65 75 76 72 73 79 81 77 84 89 89 84 76
178 109 103 89 81 63 51 40 36 49 50 66 60 64 77 89 110 95 95 99 118 98 78 58 48 50 43 58 72 65 69 66 57 67 53 52 56 66 79 77 82 83 92 89 100 104 110 104 93
93 133 83 54 47 91 58 68 47 37 62 60 56 63 64 68 89 94 90 101 110 99 91 77 71 56 65 81 116 125 87 82 85 73 76 57 57 64 76 89 93 91 101 113 115 117 120 110 104
105 74 62 48 66 60 32 48 59 77 66 82 82 81 69 67 90 72 73 77 90 93 98 92 85 70 64 80 115 137 124 92 86 101 102 74 75 81 81 88 96 102 116 125 123 125 115 115 119
96 117 99 77 92 87 53 36 36 38 69 73 73 77 78 63 67 105 125 133 112 125 130 130 122 94 88 95 123 155 169 142 104 107 95 90 105 98 103 105 100 108 129 137 156 141 128 114 124
76 68 84 103 91 92 43 35 43 50 45 46 58 71 71 80 100 114 139 150 145 147 145 144 158 153 140 154 187 187 184 173 179 148 110 117 95 92 107 117 120 123 135 142 154 154 150 168 180
36 61 101 124 87 89 58 52 40 49 53 69 72 69 73 91 89 99 133 154 160 146 161 175 173 177 187 193 199 197 192 186 150 157 168 143 122 110 130 128 142 140 155 149 160 181 217 187 208
110 78 97 143 106 76 70 26 41 98 125 101 107 100 122 162 175 184 188 205 216 227 198 178 193 209 216 215 233 248 255 274 239 210 167 146 144 151 159 148 172 202 199 198 208 214 220 250 220
106 153 134 128 138 124 125 116 89 80 120 141 148 168 209 249 249 244 245 222 213 221 213 208 200 190 181 166 180 179 220 228 210 187 171 182 167 174 161 185 184 196 243 207 253 261 256 249 258
151 115 132 140 142 141 102 130 111 75 124 135 192 194 205 243 263 245 213 188 168 158 154 145 143 146 148 135 145 186 202 195 171 158 132 108 112 138 168 164 184 209 248 237 252 283 285 308 292
60 143 178 164 158 146 133 147 99 100 123 147 195 197 176 166 159 157 148 128 123 128 134 131 140 146 146 152 128 106 127 196 220 189 175 147 138 124 128 156 169 193 251 223 233 263 267 327 303
135 127 210 192 172 179 132 135 166 128 135 146 178 159 136 99 82 67 61 77 97 119 132 143 155 162 168 168 166 161 145 140 149 174 185 157 170 180 183 147 134 167 206 237 278 286 295 313 320
109 137 243 207 160 152 117 131 131 110 83 86 105 83 68 54 35 35 31 45 73 88 115 160 190 192 190 191 184 168 159 151 146 141 158 172 197 181 151 136 152 151 156 161 175 233 270 274 300
84 83 133 164 156 180 123 104 78 80 110 129 86 33 22 23 18 17 14 36 57 60 78 115 166 213 235 242 239 223 202 186 166 152 136 122 103 117 112 126 141 123 136 172 210 246 236 242 263
106 74 91 100 99 128 75 91 91 64 55 105 85 50 23 24 28 20 10 11 36 43 72 91 116 146 191 228 245 253 256 238 215 191 175 154 118 101 79 89 112 133 179 208 202 209 214 227 228
70 86 104 102 94 103 121 90 80 21 8 55 60 29 19 34 25 4 14 37 53 65 94 97 104 110 110 117 142 166 194 227 241 222 213 184 161 138 113 98 81 91 119 155 182 225 236 233 298
68 68 79 89 58 49 85 101 50 55 45 10 38 25 33 13 5 -10 11 35 48 76 76 85 81 77 73 72 81 95 108 136 166 181 188 162 137 132 140 91 82 74 95 133 173 204 232 286 295

GFSSGP_con_3kmhel_051.txt.gz
Helicity
75 44 38 37 67 63 100 77 87 53 50 95 108 88 132 141 82 88 33 70 82 83 81 46 51 26 11 18 25 44 57 62 69 63 38 25 16 6 -5 -13 -14 -30 -31 24 45 29 17 23 29
93 59 47 64 92 84 75 46 41 56 136 82 65 49 85 82 88 28 7 39 51 78 55 42 64 31 11 54 36 29 42 40 36 29 20 11 10 11 10 6 -3 -1 11 66 51 32 23 23 23
76 67 67 64 64 107 103 47 52 103 64 115 83 87 95 104 91 93 53 32 41 75 35 83 63 42 24 41 35 16 17 39 49 37 11 6 13 23 39 59 64 76 79 66 43 31 22 24 24
94 87 97 86 65 55 62 59 86 62 84 102 141 75 76 93 91 65 28 11 39 55 62 82 69 54 43 39 39 13 9 30 48 35 14 3 5 23 38 48 59 63 51 41 26 17 20 17 16
125 109 81 26 52 63 61 67 48 76 107 115 146 69 87 83 58 27 15 6 28 46 99 73 71 65 45 40 34 24 10 19 38 28 16 2 4 15 20 33 37 32 16 15 14 14 15 12 9
140 112 98 61 23 46 38 77 49 86 84 103 109 102 81 55 58 47 15 10 29 45 69 83 70 57 41 45 38 37 13 9 38 48 23 9 9 20 21 3 1 4 4 5 8 15 14 9 7
129 120 73 91 30 39 42 32 75 71 56 75 106 116 73 116 93 74 31 29 27 41 41 55 56 69 73 55 54 41 29 40 44 56 34 26 24 20 23 14 18 7 -1 2 10 11 10 4 4
160 148 67 74 72 52 26 60 89 75 91 67 101 104 69 117 89 88 97 70 33 40 30 47 49 60 56 49 59 60 45 47 50 63 54 55 42 34 36 33 25 25 19 16 18 24 14 11 11
231 164 104 80 66 47 41 63 52 98 90 54 62 143 123 94 83 102 99 90 63 32 29 36 42 41 35 37 62 59 52 36 65 61 63 44 19 32 54 55 60 35 29 33 46 39 34 39 34
193 155 72 53 50 87 67 54 53 65 58 52 64 60 82 77 87 90 82 78 63 24 27 36 47 56 64 65 72 39 42 52 37 27 45 16 30 34 40 80 67 39 34 61 62 51 40 15 36
126 110 101 79 153 161 117 43 66 56 71 55 37 50 91 95 88 91 83 64 65 54 45 37 43 46 59 69 69 54 50 47 26 41 44 15 47 76 60 72 67 61 61 59 62 51 34 28 39
159 90 143 104 135 141 98 58 56 71 92 114 159 190 97 79 83 89 80 69 76 78 67 53 44 53 50 53 53 54 44 45 46 61 47 40 63 65 52 58 67 59 85 43 73 55 44 59 52
95 147 150 212 99 87 57 71 71 59 101 126 112 82 97 101 124 83 74 63 72 86 74 68 55 54 60 46 52 49 51 62 42 60 60 73 73 70 64 53 70 64 70 52 80 68 82 69 67
84 165 111 132 63 78 68 59 81 99 107 54 66 70 74 85 94 122 91 80 83 93 102 90 75 58 38 50 44 61 62 60 52 59 75 78 88 76 80 72 70 75 72 74 83 99 102 89 92
274 152 98 72 48 60 52 69 50 67 63 56 51 50 52 68 79 75 98 103 115 86 67 71 68 66 45 49 56 47 58 67 70 67 63 71 101 107 81 84 89 90 86 72 87 91 117 120 121
182 185 87 75 55 80 66 72 -19 7 30 46 45 58 65 50 50 66 75 104 128 152 162 128 95 75 78 73 91 69 68 77 80 84 83 65 64 76 103 124 110 108 104 110 107 117 132 134 145
164 118 81 55 56 66 47 73 57 17 61 68 66 60 76 73 69 63 78 88 93 86 94 107 106 105 80 75 91 113 102 119 87 93 99 85 73 79 99 115 122 121 159 146 132 142 144 151 159
110 106 56 72 10 71 43 65 116 111 65 55 62 61 72 73 59 74 100 141 149 127 135 132 125 95 101 108 105 156 162 136 121 121 131 103 120 114 134 128 117 123 169 191 172 152 172 162 171
216 79 125 52 76 55 60 54 51 36 39 41 46 63 65 60 80 112 118 139 146 138 127 124 126 131 124 137 152 223 174 166 148 144 140 114 123 118 147 168 122 144 162 178 155 166 172 186 205
260 128 129 131 79 76 48 60 79 39 40 45 62 83 91 101 117 114 101 99 128 127 139 135 129 125 141 172 202 211 188 148 183 179 178 203 180 171 183 190 184 172 192 175 184 188 206 221 242
143 111 99 111 61 84 122 36 25 91 96 83 59 60 83 101 116 102 87 130 149 167 185 182 181 190 205 208 238 256 290 236 204 193 214 204 199 230 207 192 207 202 231 227 227 238 241 264 278
102 158 169 112 55 66 34 108 17 44 77 74 79 101 129 142 156 145 158 166 175 169 166 171 159 143 136 146 185 208 242 250 239 205 195 146 134 137 160 195 184 197 232 242 258 284 330 333 300
157 97 110 138 137 176 68 149 69 43 52 76 99 118 123 144 171 181 176 168 160 160 152 137 129 123 112 101 99 131 151 190 210 207 172 151 165 116 140 125 188 196 220 220 232 281 346 386 326
88 126 133 147 141 82 85 120 59 58 59 100 98 108 131 143 146 146 137 126 117 106 105 102 105 115 115 117 115 107 112 121 143 160 190 190 172 171 163 149 146 190 214 222 211 242 292 347 310
109 84 161 136 164 141 125 121 216 129 136 73 107 114 122 114 105 105 97 90 90 99 103 104 111 117 133 146 155 151 138 127 124 123 146 157 166 176 202 182 167 172 171 170 180 234 285 307 311
110 98 196 159 148 138 151 124 165 97 111 127 115 115 109 90 83 62 43 35 43 63 84 95 118 139 182 209 216 199 188 168 154 144 142 153 153 139 128 144 156 160 158 170 179 228 233 284 310
123 160 194 214 181 148 115 134 72 112 115 107 107 79 73 63 41 32 24 28 38 58 77 91 131 168 191 212 231 242 238 242 220 195 168 166 152 135 124 126 152 141 156 163 174 209 238 262 252
87 55 126 177 155 138 93 125 113 73 90 115 108 98 48 27 28 23 17 21 33 59 73 101 136 145 145 146 144 152 175 191 203 221 236 230 204 188 165 133 124 161 132 147 185 215 245 259 268
84 99 76 120 151 176 145 137 146 39 69 95 102 63 31 20 13 14 17 27 38 65 88 117 125 124 119 119 121 118 111 111 122 152 189 206 199 193 187 179 164 101 135 136 152 179 200 211 278
122 91 66 104 71 94 114 106 53 49 70 57 54 30 17 28 34 28 36 37 48 76 93 102 96 95 90 87 88 93 96 101 117 135 163 168 162 154 152 158 171 188 153 128 136 182 212 256 292

GFSSGP_con_3kmhel_054.txt.gz
Helicity
85 85 101 103 107 90 132 127 97 84 115 92 156 188 174 104 100 93 51 85 129 77 81 57 32 43 14 33 30 32 35 48 54 51 35 20 13 3 -10 -6 -8 -11 9 43 28 26 27 28 31
58 107 82 104 133 149 112 45 65 60 126 148 102 58 104 139 19 31 31 47 93 107 65 50 57 51 35 44 34 21 34 44 29 20 22 10 8 4 10 5 11 24 45 49 34 28 24 24 21
43 88 140 114 106 149 143 4 69 130 83 34 38 66 57 104 154 77 75 34 99 64 44 83 73 68 63 48 22 8 16 10 22 17 10 5 15 34 40 43 47 60 57 41 28 22 16 16 18
71 56 109 159 147 71 97 69 152 79 60 120 127 78 115 139 92 86 3 42 86 39 171 106 87 74 54 39 25 24 21 23 28 10 7 5 20 41 44 50 62 65 47 33 27 21 18 15 13
59 101 159 164 131 105 67 70 104 54 59 57 97 60 94 108 60 43 -11 15 85 178 115 90 98 82 55 48 44 34 27 19 28 24 4 3 20 34 42 45 42 42 26 24 24 21 15 11 7
121 83 262 194 128 85 89 34 71 90 55 83 107 90 97 46 76 44 6 8 57 82 60 83 110 91 63 64 53 40 35 22 31 37 16 15 22 32 34 40 40 24 17 18 17 16 11 7 5
199 156 72 142 86 18 27 72 62 101 98 65 110 179 105 147 123 54 33 52 50 61 68 74 96 86 77 72 63 56 46 42 57 49 26 29 29 34 32 29 33 35 29 24 21 15 9 4 3
210 136 159 110 105 131 22 64 52 77 76 65 121 209 142 83 113 127 183 94 69 76 71 39 71 86 81 82 70 69 78 59 62 51 50 52 52 44 35 34 35 39 38 38 35 29 21 15 15
176 192 85 114 96 59 47 120 142 138 122 74 44 65 91 97 109 124 145 171 139 69 57 44 80 65 52 66 91 81 76 65 63 57 49 40 25 26 51 20 46 41 40 46 55 51 45 41 35
229 147 66 44 76 90 68 106 79 118 105 129 91 51 82 73 66 86 97 102 109 61 53 64 68 12 2 50 105 92 75 63 69 58 47 11 12 26 37 76 61 44 35 58 70 61 56 46 41
178 140 82 101 73 80 90 74 118 83 107 69 56 34 43 79 79 70 67 73 60 52 85 59 72 84 95 125 75 61 73 71 48 53 68 -19 -2 91 105 88 69 58 59 77 80 64 46 27 40
147 52 173 150 73 88 143 201 91 130 87 145 175 249 99 43 63 67 79 70 84 57 77 109 155 97 100 106 89 61 97 78 17 -9 98 35 46 117 90 99 79 70 80 63 88 81 64 36 64
128 138 88 170 129 139 158 166 191 132 84 120 170 198 162 113 104 56 72 79 92 91 93 65 90 110 91 105 86 56 67 75 31 65 98 87 54 141 108 92 109 79 93 71 111 88 72 98 87
157 147 206 149 131 158 123 72 108 91 110 53 113 114 99 97 98 115 67 72 76 89 81 97 83 52 69 96 76 79 88 100 106 86 108 83 98 126 130 98 129 107 91 92 132 85 114 138 117
239 218 278 242 94 104 105 102 107 102 162 114 89 64 77 75 76 84 109 106 91 77 38 131 116 104 67 85 104 87 92 86 118 97 116 88 94 134 130 107 127 156 144 110 128 158 179 177 149
201 269 172 176 100 63 20 91 52 63 86 100 79 67 58 50 49 61 87 113 123 152 195 138 130 80 92 70 132 132 99 101 106 114 121 137 116 125 143 160 117 151 179 166 153 179 207 205 191
185 173 149 95 83 86 56 67 59 52 67 78 70 59 60 61 65 73 85 115 99 110 127 169 189 156 81 60 146 166 126 110 144 120 120 149 178 164 141 153 158 139 159 198 210 182 230 240 236
133 167 92 131 90 80 37 68 125 109 117 79 86 93 93 100 109 111 71 150 211 213 162 129 144 136 142 149 121 230 204 143 131 129 154 140 183 213 218 198 182 186 165 204 271 258 248 260 225
32 83 102 60 109 110 82 47 83 113 74 75 85 92 105 79 57 94 216 210 203 226 248 275 258 227 202 173 185 279 232 183 166 157 78 150 194 214 238 277 248 232 218 220 269 292 281 262 271
162 176 126 134 179 103 29 46 78 75 97 59 69 83 90 124 160 168 163 125 132 142 192 200 183 173 163 163 158 177 226 245 231 200 160 89 191 211 231 267 273 264 264 264 304 302 318 326 314
141 202 161 199 183 178 73 85 66 100 119 120 108 92 115 127 147 133 85 104 131 159 162 162 152 156 167 198 215 207 211 301 295 258 181 134 129 186 268 221 259 257 272 275 293 326 362 352 384
110 170 239 143 133 118 62 117 15 118 113 87 64 60 96 178 225 233 176 120 108 114 143 160 170 148 139 141 140 144 146 187 276 212 145 114 104 104 127 163 242 240 250 253 248 294 373 452 422
120 117 209 170 161 188 63 97 29 174 97 83 95 135 174 191 211 156 146 124 109 114 131 134 140 147 116 105 108 104 99 104 114 152 191 172 178 168 144 124 114 208 224 233 237 261 304 378 442
143 224 197 169 162 139 75 83 70 112 75 95 125 92 95 106 105 115 106 121 128 118 112 110 109 104 120 107 98 88 93 101 103 99 118 132 160 169 180 205 182 141 160 170 219 231 273 318 362
181 154 189 159 145 126 134 98 111 62 54 146 114 101 92 94 106 121 119 113 99 93 94 93 107 104 118 136 135 152 149 125 129 137 143 143 157 161 136 163 200 191 167 157 176 188 191 268 342
180 131 198 144 112 127 205 85 104 200 157 142 138 92 115 84 102 97 89 65 63 59 62 71 82 104 150 182 190 204 230 206 206 209 200 193 190 190 169 131 143 162 185 158 155 166 173 183 220
179 145 151 204 149 129 131 146 198 200 239 210 106 93 72 98 89 77 64 53 58 61 62 67 100 133 147 164 191 207 231 228 203 205 198 193 200 204 210 215 193 171 170 171 145 155 147 166 213
190 118 125 166 146 107 89 82 111 138 143 123 124 90 97 80 51 50 54 62 56 69 71 96 113 125 138 156 157 144 153 147 148 165 177 175 164 173 179 193 219 235 159 135 130 145 156 181 225
230 132 101 147 141 148 84 98 99 93 114 116 142 125 97 79 76 74 62 59 51 74 81 100 123 128 132 133 129 123 112 121 139 145 150 138 125 134 167 183 173 186 228 185 141 130 138 144 200
61 61 109 75 112 103 131 130 76 89 118 172 110 60 46 62 71 59 52 34 51 95 100 102 114 124 117 105 107 96 98 99 107 119 129 128 145 144 167 165 166 188 187 166 182 171 183 193 225

GFSSGP_con_3kmhel_057.txt.gz
Helicity
38 77 76 101 144 138 157 203 118 107 198 154 102 110 131 166 116 71 53 33 126 112 62 36 39 39 35 29 22 21 36 45 34 36 27 17 10 2 -1 -4 -7 13 42 29 26 27 24 23 35
33 71 59 96 162 184 190 143 169 66 70 129 141 135 143 157 91 48 74 57 91 113 62 18 36 61 60 41 37 18 29 39 35 38 21 6 -1 -2 6 4 14 47 53 32 28 25 20 15 17
33 38 103 114 133 143 181 98 89 101 100 110 116 93 134 158 43 10 72 101 61 92 63 50 75 75 58 38 25 24 23 -3 15 19 6 9 7 22 17 21 57 69 53 34 29 22 14 10 7
39 76 94 168 183 65 109 227 92 129 133 107 88 142 133 126 79 19 129 102 60 92 94 79 84 72 55 31 21 31 35 2 7 11 3 14 28 38 48 59 66 65 39 32 32 22 11 4 0
67 109 164 210 157 47 30 38 35 84 59 87 93 148 139 96 42 49 104 108 116 91 90 91 81 64 31 35 45 39 44 15 10 17 12 19 33 34 39 51 58 41 32 32 30 21 14 4 -2
184 174 173 221 178 40 108 49 81 53 76 93 83 145 141 68 75 37 80 144 128 111 94 77 75 55 65 67 58 53 39 43 30 14 12 21 37 37 39 41 40 32 31 31 27 20 12 5 -3
150 167 157 162 155 143 65 35 62 101 114 101 57 154 117 153 125 111 80 92 112 93 86 87 93 82 75 73 69 70 43 54 47 30 18 22 44 40 35 37 36 33 32 31 28 22 15 11 3
273 173 98 123 145 171 141 38 54 105 109 92 64 124 104 63 103 128 242 103 88 48 49 82 99 95 81 66 87 85 73 74 79 49 39 42 54 63 37 32 35 42 40 39 32 30 26 19 13
266 236 127 97 161 57 113 105 180 136 168 139 70 74 82 68 86 149 196 203 69 43 38 50 67 75 77 86 79 83 76 81 79 61 52 45 32 34 31 35 50 51 48 49 46 44 41 35 28
230 257 102 82 -63 115 23 123 250 142 143 157 125 92 85 82 84 118 137 150 131 76 45 38 37 41 48 86 100 106 96 92 83 68 57 41 27 29 29 16 42 53 55 59 59 56 56 55 40
182 55 98 31 47 32 67 71 92 104 127 133 56 45 69 64 72 70 81 89 94 93 106 71 39 11 44 62 88 105 118 102 79 66 65 37 34 31 47 58 49 47 49 53 76 73 63 62 68
175 78 3 98 61 16 88 24 134 70 96 65 92 74 65 53 37 48 50 54 53 75 98 134 104 50 82 101 111 86 94 75 75 63 54 35 40 62 84 85 79 87 78 78 75 73 64 65 64
144 95 120 41 84 13 90 86 157 97 104 78 205 217 122 56 57 56 44 57 63 78 77 86 138 150 107 162 109 117 87 83 60 82 42 27 85 104 113 89 95 82 100 104 90 76 77 74 81
124 173 222 113 66 108 63 138 175 172 125 90 90 117 159 147 105 73 76 60 98 58 65 63 103 112 134 104 116 110 133 92 73 64 93 21 88 122 134 134 119 101 88 93 100 108 93 88 96
200 171 269 289 115 101 106 155 73 154 208 168 112 86 81 100 109 102 61 43 72 109 110 62 49 89 122 131 94 89 82 113 87 75 115 112 97 129 151 140 156 128 113 87 121 99 119 117 120
232 220 234 259 145 91 96 22 24 59 109 123 134 119 79 67 57 62 72 92 79 73 129 113 106 81 61 118 120 88 111 126 115 129 130 122 135 142 153 175 173 157 144 155 173 166 160 179 206
232 217 240 239 152 96 108 39 59 94 77 96 86 87 72 75 87 61 67 85 166 164 149 101 105 121 78 56 69 108 106 127 138 138 129 131 142 155 171 186 172 188 192 176 191 197 243 240 242
194 172 127 225 229 154 89 97 135 169 87 78 83 71 73 68 68 82 152 191 203 238 251 228 206 150 114 81 73 122 120 109 136 142 154 156 152 180 203 188 187 204 222 212 225 244 274 260 269
151 181 101 124 162 151 81 85 103 91 119 92 84 77 87 134 166 163 186 221 215 265 280 261 246 298 295 256 226 189 160 139 129 140 132 154 208 181 198 243 221 236 243 214 221 254 285 287 333
143 110 105 107 51 120 92 109 95 79 90 81 64 72 98 118 138 179 208 229 206 185 197 202 203 204 206 198 202 212 207 213 208 167 142 143 159 168 221 215 257 254 284 273 264 277 336 362 401
150 153 116 140 242 237 171 111 94 83 67 133 135 99 103 106 126 138 171 180 162 152 141 157 184 190 151 155 159 181 213 230 202 204 184 142 116 120 143 182 210 235 280 260 288 283 317 300 422
152 123 143 188 212 154 113 93 81 93 159 171 143 104 85 101 148 151 153 131 68 89 142 171 192 208 187 154 132 117 111 128 143 136 140 153 138 112 97 125 152 208 200 209 235 260 328 416 366
137 126 145 209 174 156 139 116 79 101 220 172 125 102 107 154 166 179 143 99 95 130 143 157 173 178 173 166 153 146 135 106 99 113 113 101 106 111 100 91 112 159 191 222 234 227 222 276 272
188 279 277 226 201 119 94 101 55 100 97 197 154 141 143 142 143 123 128 150 127 129 136 138 139 135 142 139 138 131 120 116 118 124 134 117 98 118 121 102 131 147 158 144 166 155 188 204 231
143 227 253 217 190 94 130 109 77 38 89 159 171 125 88 93 119 115 119 126 110 107 100 92 100 114 129 146 159 164 160 147 147 161 169 191 191 187 236 223 151 134 133 141 145 151 142 167 195
135 150 167 172 161 113 165 81 65 58 96 130 124 85 92 112 102 100 85 84 85 73 63 64 79 101 112 131 162 188 216 200 175 167 164 172 170 176 190 205 235 200 125 116 124 147 145 127 150
214 165 137 138 150 129 117 126 132 168 218 195 147 136 95 90 78 85 87 75 66 56 52 63 87 99 120 145 165 180 186 190 183 203 188 163 152 148 154 160 178 205 188 165 161 160 131 131 122
194 169 167 168 148 134 86 82 72 144 175 198 172 110 83 87 88 90 89 71 53 48 66 92 100 103 122 143 142 129 135 134 134 130 134 132 137 124 122 129 146 172 217 227 191 187 130 124 106
206 196 139 100 116 115 91 55 53 82 169 206 123 86 75 92 101 96 81 73 77 91 106 101 109 119 134 138 128 124 116 107 96 88 93 97 90 83 79 80 109 125 163 199 167 141 141 144 165
158 96 98 93 97 94 71 79 87 68 145 148 117 89 88 106 94 78 65 85 101 115 122 104 106 118 122 119 108 93 85 86 90 95 96 97 93 76 62 58 79 97 112 132 127 164 160 150 193

GFSSGP_con_3kmhel_060.txt.gz
Helicity
42 62 41 87 179 179 165 162 174 174 198 122 77 50 54 183 129 98 57 30 95 61 29 14 24 15 18 13 20 30 55 51 46 46 28 16 14 8 4 5 12 40 27 24 24 19 23 44 53
41 51 74 107 190 189 180 195 223 163 89 57 46 84 143 149 119 73 96 37 105 81 49 26 33 26 28 23 22 40 30 21 39 41 13 6 -3 6 11 7 41 55 38 31 26 15 7 10 34
46 61 121 171 180 159 207 197 188 124 91 102 118 131 121 149 143 73 35 53 98 92 55 26 45 46 37 35 34 52 32 -11 2 9 5 -6 16 16 20 26 67 57 40 33 25 11 5 5 15
64 123 127 211 226 102 191 292 148 118 124 132 127 166 157 124 83 49 42 77 114 107 52 30 69 54 42 37 48 49 32 -7 -23 -7 4 23 24 21 39 58 72 52 31 32 22 9 1 -6 -8
152 97 184 235 181 26 104 227 109 91 95 115 127 197 200 210 143 93 79 54 92 106 81 66 77 55 43 38 41 42 35 5 -5 -34 12 31 27 46 53 61 56 39 32 33 22 10 2 -7 -16
242 123 156 199 128 -47 22 104 80 56 102 90 128 170 183 163 142 63 83 47 68 77 78 71 55 45 25 33 47 52 35 22 13 5 -13 29 29 41 45 50 38 34 36 35 26 12 -1 -10 -17
228 185 145 159 67 72 75 85 114 52 85 153 76 158 131 133 173 83 102 83 74 75 84 71 52 35 56 64 65 70 54 48 33 17 23 24 14 18 25 31 30 34 41 42 33 20 3 -7 -10
185 164 144 117 79 122 57 101 67 61 104 118 110 127 117 114 93 130 146 117 84 78 72 68 71 76 63 63 76 73 76 58 62 35 37 57 40 24 15 17 12 20 30 35 35 31 22 11 3
339 225 159 117 87 84 185 186 131 149 154 170 167 110 106 113 109 172 165 128 107 62 42 60 78 76 82 80 78 84 85 84 69 60 54 57 43 36 33 31 19 25 28 30 33 35 35 26 17
192 157 83 72 115 19 148 215 231 227 194 240 217 212 158 143 148 167 112 106 82 42 7 26 38 52 79 93 100 89 86 85 85 74 57 52 46 33 32 34 45 39 31 26 31 34 37 38 25
192 84 148 51 59 -36 83 179 190 293 140 123 92 117 103 110 108 130 139 105 61 25 14 7 21 48 62 77 100 89 94 89 82 79 67 58 53 40 39 39 38 45 52 51 49 52 52 48 49
200 155 154 130 75 44 -1 203 236 272 161 56 57 56 98 68 73 68 82 85 111 90 51 18 11 34 38 76 89 91 104 106 90 72 63 80 71 52 36 36 49 61 69 67 75 78 72 69 63
223 14 82 108 38 -14 -1 128 385 443 82 88 155 123 88 65 42 61 63 77 80 92 88 72 49 43 50 69 86 92 84 94 77 68 61 74 65 64 65 46 61 71 86 90 90 82 84 85 78
159 177 148 174 78 -27 -30 44 215 135 48 82 117 135 104 75 48 53 59 55 77 78 80 93 81 97 128 109 81 96 95 83 103 66 43 69 82 80 98 79 64 76 96 98 105 98 91 86 101
122 170 255 86 78 88 -35 -42 72 58 114 88 121 118 109 91 85 48 31 49 48 46 67 82 115 144 169 134 107 109 101 104 112 106 64 55 106 114 129 133 114 104 118 122 116 90 111 104 105
179 205 156 145 106 99 72 79 81 35 59 84 112 118 118 122 109 69 32 23 42 82 73 74 101 133 160 160 155 140 123 116 99 109 118 88 91 146 150 172 172 160 160 156 160 127 123 124 137
247 195 167 109 88 153 126 12 36 99 20 99 94 106 108 111 105 85 80 107 98 77 77 87 102 112 120 124 135 125 114 146 121 116 125 119 128 142 175 184 186 206 193 196 196 177 196 174 177
177 148 170 137 143 143 122 68 66 97 58 57 85 100 90 97 83 97 110 165 189 216 226 193 154 112 114 129 135 124 123 93 105 145 147 129 151 158 186 197 193 228 229 213 237 221 241 228 228
206 213 174 209 193 161 99 78 76 94 115 115 85 97 91 80 82 136 199 221 234 248 233 264 251 260 192 158 136 134 118 90 106 105 115 138 165 181 167 157 149 189 220 203 230 253 234 219 283
89 159 127 154 150 134 85 59 69 81 85 94 96 84 79 112 122 166 200 234 246 235 246 236 222 225 219 227 225 214 182 148 119 111 115 130 137 156 179 159 155 179 219 222 216 275 275 256 310
148 98 162 143 133 118 86 77 76 89 99 113 130 97 107 95 105 139 153 164 174 189 190 192 194 181 156 180 198 220 221 222 218 209 172 145 142 141 154 175 175 161 192 214 205 233 279 235 301
157 118 101 97 138 130 135 85 87 88 104 98 95 140 115 130 146 142 147 162 156 144 151 169 185 213 218 201 182 172 167 169 157 151 154 153 158 151 145 136 151 157 178 183 192 208 230 238 215
123 94 97 123 168 144 147 101 25 113 109 164 145 182 158 142 157 133 107 111 136 126 129 159 189 199 205 195 172 154 154 134 134 132 129 135 154 171 146 130 120 141 167 175 181 187 199 225 193
106 170 201 209 229 128 121 109 1 101 111 117 232 201 197 176 145 128 127 108 124 143 167 180 184 181 170 164 167 155 145 144 147 150 147 139 129 179 231 202 155 126 133 151 158 157 169 187 188
144 191 203 158 169 106 151 108 100 75 73 51 192 209 193 174 163 137 116 108 126 141 144 132 138 146 145 137 146 149 144 149 158 156 151 168 173 164 187 195 192 182 151 125 122 128 133 139 169
141 147 149 129 151 118 153 89 63 38 66 44 151 184 174 158 127 105 107 110 109 104 95 95 94 107 116 126 144 155 167 145 144 151 143 144 150 157 170 180 188 191 177 147 140 130 127 130 132
147 80 102 117 133 123 123 120 90 57 65 139 169 162 134 108 97 95 103 98 94 82 61 47 59 75 95 111 119 145 159 167 156 157 138 132 130 126 123 125 145 171 174 174 169 151 162 174 148
150 178 146 162 104 90 70 95 72 81 82 147 183 141 114 106 112 103 94 86 76 65 59 66 72 87 99 117 130 133 138 137 131 123 125 116 113 113 105 101 102 113 132 150 156 161 168 154 130
225 192 211 156 157 99 71 38 34 37 77 149 164 106 74 75 92 93 90 75 61 80 82 77 85 97 114 114 119 125 126 120 111 99 92 91 90 100 100 103 102 109 118 125 124 126 134 131 153
159 148 192 185 157 132 62 48 35 21 84 153 137 89 70 82 92 99 80 70 80 103 106 97 89 94 97 101 106 105 97 92 86 87 91 96 101 101 99 97 107 107 106 116 131 141 150 152 179

GFSSGP_con_3kmhel_063.txt.gz
Helicity
79 65 53 118 185 181 165 143 126 177 92 64 74 81 64 127 117 102 67 24 41 23 22 4 17 8 2 -5 6 20 30 44 60 64 38 28 21 16 12 8 30 19 19 15 11 24 50 59 71
68 48 84 128 203 208 186 154 160 173 159 96 114 145 161 149 121 92 145 48 67 44 34 9 18 18 27 14 14 34 22 22 44 37 19 12 6 5 7 19 45 32 22 17 9 8 20 43 57
44 76 123 183 185 180 175 154 214 198 147 141 117 151 141 165 148 71 101 62 91 72 53 23 30 44 32 42 44 44 9 -39 -21 -0 1 -0 9 12 17 47 58 37 20 15 6 -1 2 28 35
104 109 122 173 209 175 211 270 272 237 126 102 104 145 159 154 93 44 61 74 114 99 66 54 51 48 45 55 41 30 -0 -22 -40 -41 -44 10 12 24 31 71 56 35 23 14 2 -5 -3 13 11
213 126 158 158 185 138 171 253 241 308 176 130 116 96 161 158 96 76 73 76 115 101 47 27 59 55 52 54 43 23 10 -1 -7 -61 -41 15 9 29 50 46 37 26 20 12 5 -4 -13 -4 -7
232 181 184 169 144 72 122 161 203 211 150 106 131 175 149 178 143 64 39 51 84 96 84 62 70 61 47 46 42 29 21 17 11 11 -36 10 -2 23 28 25 15 13 16 14 7 -2 -13 -12 -6
117 272 196 149 92 4 100 138 161 228 173 111 64 197 162 189 100 90 87 76 80 100 86 78 71 44 34 40 40 42 37 24 18 19 32 43 13 11 17 9 3 4 10 8 1 -2 -8 -14 -2
228 166 177 141 65 38 27 126 76 115 192 136 134 92 110 107 101 132 152 128 89 74 77 71 61 36 37 39 46 65 55 40 37 23 31 37 43 46 33 21 4 5 6 6 2 1 -4 -14 -10
299 249 152 139 68 17 58 127 121 237 150 128 135 118 109 114 145 162 150 126 107 86 70 64 62 55 74 55 54 76 62 56 53 45 50 53 34 34 35 29 32 38 35 31 19 12 5 -2 -6
190 210 141 123 53 30 79 85 136 220 340 146 151 184 193 139 131 126 84 67 58 20 19 34 49 65 84 79 90 94 74 75 74 63 57 58 50 46 40 25 21 34 42 46 42 37 28 21 21
235 96 176 79 72 -27 114 78 99 219 306 157 113 91 161 139 121 117 96 73 33 14 19 -6 6 41 79 88 91 84 79 82 79 69 64 60 61 51 47 44 34 38 42 55 50 54 56 52 49
131 129 124 113 83 -4 -5 135 76 163 284 313 168 85 121 104 98 113 100 78 57 44 13 -4 -3 17 42 72 88 81 86 82 77 72 74 78 64 55 50 48 40 40 58 66 67 71 64 57 56
166 79 112 206 65 55 -159 -40 46 229 354 378 91 61 84 91 98 91 97 108 96 66 25 14 25 16 26 48 71 78 87 87 78 77 76 82 70 61 63 45 44 39 60 72 76 81 76 72 67
154 160 175 152 114 45 10 -109 -3 114 281 453 111 87 80 81 73 98 86 83 85 68 53 42 49 46 61 59 67 70 89 91 79 70 69 75 76 67 71 61 62 59 66 72 85 93 92 84 87
163 209 195 93 112 90 36 -90 41 76 357 505 126 103 111 98 76 65 49 50 67 102 86 77 78 95 103 89 85 95 82 95 85 63 85 89 90 86 91 88 89 79 93 85 91 87 92 83 90
208 208 192 142 104 95 63 13 -24 56 402 504 129 103 120 138 123 93 58 47 42 53 66 103 122 132 125 129 129 129 102 116 111 102 94 102 112 115 117 123 117 113 134 137 131 125 125 122 125
225 159 155 121 34 106 85 70 34 26 302 435 142 80 79 108 119 103 94 62 44 18 34 61 94 116 138 146 146 140 129 138 124 131 125 101 108 134 147 163 154 169 167 176 183 172 182 170 159
228 195 158 150 52 86 70 110 1 74 57 101 45 65 49 68 100 128 86 110 122 123 111 92 95 110 106 140 150 152 154 132 129 121 122 115 124 146 169 156 166 193 191 184 215 200 216 208 192
140 202 154 201 138 110 88 105 123 84 146 70 61 71 60 84 113 126 162 179 207 232 208 198 180 177 136 145 140 139 129 127 128 116 108 119 124 120 151 163 178 199 198 182 201 227 211 198 236
87 143 143 183 129 108 99 66 67 50 72 52 47 56 65 134 126 129 145 185 211 206 213 217 218 214 197 190 183 181 163 147 129 125 114 124 130 132 155 156 155 165 193 183 196 255 257 233 234
115 124 153 137 200 182 122 58 82 48 16 47 90 95 98 95 119 134 131 158 172 169 164 174 194 199 189 185 170 178 186 195 187 171 148 149 145 136 138 150 163 162 181 179 176 218 235 202 230
123 80 86 112 141 137 112 35 96 62 31 49 70 91 107 115 149 156 151 168 171 172 165 150 149 158 173 182 185 187 170 157 165 176 166 166 176 169 167 147 152 163 180 180 178 194 206 225 181
120 81 61 56 94 99 113 62 29 105 54 70 78 86 83 115 165 158 154 160 162 160 174 179 167 176 171 165 152 145 153 150 151 155 167 171 182 205 205 194 156 131 142 142 141 150 150 174 181
107 155 175 129 116 62 74 82 -32 80 75 82 85 104 149 168 199 207 211 202 192 180 168 168 164 180 193 186 175 150 142 144 145 146 142 141 138 159 177 184 185 173 149 132 139 137 139 143 146
130 158 184 143 135 82 122 89 35 60 48 78 102 70 172 185 248 249 201 166 145 135 136 135 149 174 173 160 160 152 141 144 147 147 141 154 152 151 172 169 178 182 194 182 170 160 142 141 161
104 97 127 87 77 82 134 39 39 11 11 51 118 119 168 182 195 178 139 122 114 121 127 123 118 122 125 120 128 132 138 123 126 136 128 131 142 146 161 168 175 184 189 199 206 198 204 193 188
117 89 108 92 111 110 113 121 52 64 41 50 63 114 163 173 149 128 112 107 103 104 94 77 80 85 90 88 94 115 123 131 124 133 129 127 138 141 150 149 154 165 173 173 170 184 193 188 184
145 160 136 151 114 90 76 71 72 49 72 70 97 134 143 124 118 108 95 94 97 90 81 70 61 60 65 81 92 102 115 125 128 129 136 131 127 125 118 118 121 132 140 144 139 153 166 160 159
127 133 112 93 118 94 79 32 -1 14 27 45 92 132 118 98 89 93 104 101 89 90 79 68 60 56 69 81 90 106 119 127 128 125 122 116 108 113 112 109 110 126 138 139 129 129 135 130 131
103 100 143 145 189 195 142 85 29 8 15 49 85 80 85 93 88 99 108 100 89 82 81 75 76 76 74 82 100 117 123 122 122 115 109 103 109 111 109 107 121 138 136 144 144 138 135 136 154

GFSSGP_con_3kmhel_066.txt.gz
Helicity
149 119 85 134 152 161 180 163 107 118 54 71 79 69 70 109 101 92 50 33 25 15 -8 -15 10 -2 1 -8 -16 -13 10 18 47 30 31 25 9 6 2 11 7 0 -3 0 18 31 28 39 46
125 100 121 147 151 175 179 165 140 143 143 64 112 115 122 121 115 82 112 39 57 36 12 -10 17 3 1 -2 -11 -22 -12 0 30 23 18 10 2 0 -5 18 14 7 1 -2 3 8 8 21 20
91 88 137 156 138 138 165 166 189 233 211 106 131 154 130 120 125 71 95 58 68 54 43 17 12 38 17 26 33 15 -14 -37 -43 -16 2 -2 -4 1 1 29 16 7 -1 -6 -9 -12 -7 -3 -13
86 111 115 165 143 176 166 227 226 316 222 149 145 159 136 135 74 133 104 87 93 64 50 43 49 52 53 45 28 12 -3 -34 -55 -46 -22 -6 -3 2 4 27 12 -4 -9 -11 -8 -10 -7 -13 -28
124 150 209 148 163 177 162 205 250 288 315 197 185 128 155 123 102 97 87 80 69 71 51 66 67 71 71 46 27 9 -6 -15 -15 -54 -20 -2 -8 1 46 20 2 -8 -10 -10 -5 -5 -8 -12 -17
348 228 239 155 167 142 131 145 196 260 238 191 160 165 147 130 112 89 80 74 80 81 59 46 66 77 72 52 35 17 0 0 2 -7 -16 -12 -1 21 19 1 -9 -13 -11 -13 -13 -9 -6 -10 -14
201 237 178 154 166 114 68 129 136 245 273 229 110 198 144 158 140 97 97 99 97 96 60 44 73 71 64 53 40 28 13 6 5 10 9 15 14 4 19 5 -3 -10 -10 -14 -19 -15 -11 -14 -13
307 150 150 178 205 105 16 98 106 156 224 197 98 170 110 102 150 185 155 106 86 93 83 75 85 69 54 41 35 33 30 23 17 33 34 25 18 32 44 24 20 26 21 14 1 -6 -9 -4 -4
235 257 127 173 196 86 13 125 142 140 211 159 121 102 80 142 154 169 161 144 90 79 75 91 84 62 39 44 31 36 40 42 37 39 49 46 34 35 26 17 9 10 18 19 18 17 18 29 45
228 173 133 105 177 84 27 56 172 174 281 192 191 154 133 107 114 102 73 37 37 36 42 69 77 69 68 85 72 61 56 56 56 52 53 53 45 43 40 33 27 25 26 26 23 24 31 44 47
204 134 226 137 69 43 8 48 104 179 262 217 339 258 140 71 77 66 45 36 5 13 44 44 52 56 65 90 82 74 67 69 61 59 59 56 56 48 45 41 36 39 38 41 36 37 46 46 55
170 126 239 172 159 11 53 7 123 149 210 255 239 227 105 57 47 60 44 37 51 36 22 31 20 26 38 65 71 76 69 64 64 59 64 66 58 51 45 43 41 42 47 46 49 53 48 48 56
162 69 148 199 123 40 -95 -13 15 173 203 226 244 210 68 57 66 84 73 76 68 54 33 18 19 18 34 52 58 60 62 65 68 69 63 68 59 55 53 44 47 49 53 57 55 60 60 55 58
127 97 66 145 140 100 -66 -37 -34 25 75 247 255 261 97 69 62 79 71 77 74 47 36 32 21 26 47 52 53 55 62 58 68 76 70 70 66 61 58 51 53 53 65 70 71 70 70 67 68
219 158 141 168 162 208 141 16 -35 -130 -23 203 290 356 130 59 38 42 64 70 73 52 44 49 46 49 61 65 66 73 74 80 81 81 79 79 80 69 68 67 65 69 80 77 78 74 81 81 83
156 172 157 136 127 214 145 110 -23 -59 76 239 269 377 207 95 67 72 74 77 73 69 48 52 68 77 91 90 93 107 105 114 104 96 102 95 95 94 95 94 87 88 99 110 114 112 107 111 122
187 180 161 127 55 134 70 49 105 -49 55 232 266 341 258 130 120 118 94 71 69 66 70 69 81 89 94 94 113 119 118 124 114 111 111 105 110 117 129 128 120 125 123 128 138 135 160 149 149
250 259 221 169 81 148 107 103 25 5 28 180 249 320 196 159 108 114 103 93 94 86 75 72 76 78 79 95 105 105 107 105 107 103 100 101 113 115 134 140 132 149 149 140 162 160 181 185 168
241 252 190 144 108 142 63 109 61 -32 -16 138 309 339 139 138 94 54 88 94 118 142 131 134 113 134 133 137 130 123 119 118 115 114 108 103 98 100 120 125 127 159 165 151 180 196 176 181 212
185 180 169 152 91 78 84 61 5 59 26 71 269 354 161 113 91 71 88 140 171 171 191 197 185 175 167 150 142 138 131 130 121 118 113 109 113 117 127 123 131 150 167 157 170 205 201 198 221
185 138 154 116 139 159 86 80 86 87 118 87 112 141 82 33 73 110 116 129 163 187 194 204 205 188 180 168 158 161 155 156 164 164 160 181 185 165 149 139 138 145 173 167 172 183 178 171 177
120 89 143 105 166 124 110 42 72 69 78 87 46 16 56 51 63 109 131 138 142 168 191 198 202 200 188 173 159 149 136 135 148 155 159 169 190 189 193 186 165 145 157 162 157 164 168 188 150
119 94 125 133 149 125 130 53 42 73 50 24 36 37 55 83 103 97 111 145 175 177 178 181 186 189 178 174 161 146 146 150 155 165 180 190 179 194 197 190 189 178 151 129 131 151 160 174 183
73 152 173 115 89 50 51 39 -64 94 46 65 79 30 42 105 131 165 196 215 228 214 189 162 153 159 165 159 165 154 147 144 142 151 153 155 152 167 180 170 158 146 145 149 142 145 161 173 175
125 159 194 126 87 -3 39 68 10 39 66 57 71 76 74 124 188 225 257 232 226 205 191 166 154 160 156 149 162 167 163 158 148 141 139 147 143 138 161 162 168 160 168 176 174 165 179 188 186
128 135 150 102 70 14 111 5 15 31 57 16 78 97 100 127 203 235 224 211 188 158 134 128 133 147 153 146 137 137 137 125 128 132 125 124 119 117 134 143 156 173 180 187 194 198 223 230 230
116 119 130 106 63 18 30 48 25 24 50 66 58 47 80 127 175 228 220 177 151 127 105 105 116 121 116 110 106 119 118 119 115 122 117 112 123 128 139 144 152 161 171 175 185 202 235 252 252
122 123 118 134 50 16 28 44 48 52 65 63 61 36 38 102 132 161 156 135 120 119 123 108 88 80 78 85 92 102 110 119 123 127 139 142 143 146 147 146 142 138 144 155 164 175 197 203 201
144 132 138 105 115 66 60 36 24 17 47 84 52 53 76 96 84 90 108 107 107 113 105 93 82 70 70 74 80 92 104 113 121 125 128 130 133 142 140 131 128 134 146 158 162 172 163 162 159
125 121 161 159 137 118 85 45 58 -1 -12 25 42 36 72 90 86 103 106 113 110 105 98 85 79 73 68 72 81 92 104 119 131 134 135 131 133 129 127 124 126 131 144 163 174 171 170 156 162

GFSSGP_con_3kmhel_069.txt.gz
Helicity
165 152 124 158 146 144 168 161 163 102 114 123 104 72 64 104 75 65 40 12 -21 -4 -53 -40 -23 -14 -21 -22 -30 -21 -11 0 -5 -10 -11 -20 -22 -15 -5 -5 -10 -17 -14 -5 2 7 14 16 11
135 151 152 165 168 170 169 160 171 213 103 123 108 95 95 92 77 62 74 21 9 -1 -30 -35 -16 -7 -11 -25 -37 -66 -35 -13 -21 -18 -20 -22 -22 -17 -2 -10 -19 -20 -15 -10 -9 -11 -2 -6 -11
130 148 180 191 163 146 144 153 175 236 172 117 113 118 105 82 105 44 96 54 39 20 -18 -18 5 14 1 -3 -11 -19 -29 -32 -31 -26 -19 -24 -19 -21 13 -10 -15 -20 -17 -16 -22 -24 -21 -25 -35
199 225 182 191 141 179 131 160 199 269 175 111 126 119 108 97 74 98 86 83 61 41 5 9 9 26 33 33 11 -14 -33 -39 -56 -45 -28 -23 -21 -20 17 -4 -11 -11 -14 -18 -24 -28 -32 -38 -41
224 294 268 199 157 187 175 164 206 256 244 220 172 114 143 123 104 101 88 76 76 55 37 15 47 50 51 43 18 -7 -16 -29 -41 -57 -28 -26 -26 -23 8 -11 -16 -12 -14 -15 -18 -25 -26 -35 -28
350 364 369 235 168 173 178 157 162 238 237 221 208 185 163 92 77 88 96 71 69 68 56 42 61 63 58 45 29 11 -5 -18 -20 -36 -16 -27 -17 16 -4 -22 -19 -18 -18 -18 -21 -19 -20 -24 -24
258 269 210 185 175 174 124 113 159 228 242 244 190 183 157 94 77 85 85 76 80 73 71 68 48 54 70 49 37 26 9 -4 3 -4 13 12 18 7 0 -10 -3 2 0 -1 -1 -1 0 -6 -7
298 224 105 87 126 162 120 95 109 176 213 209 181 259 216 92 78 100 107 98 81 92 85 70 53 51 58 48 37 34 29 19 33 42 32 32 14 18 31 2 1 8 13 7 7 8 12 16 19
275 259 115 171 115 198 133 124 114 117 190 179 168 185 166 60 110 140 127 120 113 105 105 97 74 63 54 44 35 39 43 38 44 51 55 47 36 35 24 15 9 12 18 18 19 24 31 37 33
275 192 115 99 148 157 123 106 141 139 196 229 233 209 152 81 81 89 108 108 91 84 94 104 96 84 62 48 47 52 48 45 46 44 45 44 43 37 33 26 18 16 23 28 30 34 44 45 37
249 175 204 141 221 130 66 92 127 150 222 222 264 267 210 97 77 56 54 48 37 52 65 65 76 84 74 59 68 69 60 58 55 52 48 47 47 44 41 35 28 28 28 34 35 42 46 45 45
189 146 144 144 220 181 115 25 114 159 131 167 196 152 135 107 52 45 44 37 24 33 48 58 56 64 64 74 66 67 65 59 53 46 45 48 47 45 42 37 32 33 36 38 42 44 44 47 49
201 122 104 144 241 184 47 10 119 143 134 187 207 128 174 136 86 67 51 43 26 22 26 29 36 30 40 49 53 49 48 51 45 46 43 46 46 44 44 38 37 38 40 44 48 51 49 47 48
131 213 120 135 160 220 126 -111 -11 44 95 208 230 183 192 162 104 73 48 44 35 32 30 28 22 25 35 45 54 51 44 40 42 45 47 49 49 45 45 39 40 42 47 51 52 55 57 55 55
127 155 132 84 112 95 119 -44 -26 -15 -36 136 234 179 199 189 129 73 63 46 43 38 36 31 27 27 29 34 42 47 44 47 51 57 53 51 55 53 48 48 47 47 54 53 59 60 66 71 75
161 199 143 94 87 165 137 -94 -7 -118 -96 93 213 201 205 220 156 110 63 63 57 54 43 40 37 33 34 44 54 56 56 61 62 66 68 60 59 61 63 63 60 63 71 75 78 82 87 89 93
198 154 178 124 55 119 142 26 72 -94 -48 64 174 195 214 212 199 123 90 73 57 41 47 43 45 41 44 55 65 69 70 71 70 77 74 61 63 65 74 75 70 77 85 90 98 98 105 103 109
214 205 204 159 111 122 123 67 63 78 12 35 157 168 193 204 287 165 123 103 83 62 49 47 53 51 57 68 73 70 67 60 59 60 63 64 71 68 78 76 70 82 92 98 113 108 108 110 101
186 201 197 175 76 88 30 48 44 51 164 -22 130 169 175 203 210 166 144 87 89 84 78 63 62 76 87 102 101 90 89 83 77 78 66 70 78 77 80 82 77 91 99 82 85 104 113 126 133
193 203 211 168 62 76 77 48 35 35 96 65 13 156 172 194 185 182 133 106 88 83 88 99 107 112 107 122 127 125 113 110 112 108 103 105 95 96 100 98 96 97 108 96 102 116 143 152 158
195 184 199 153 121 120 64 72 16 51 59 56 32 79 164 154 163 197 135 104 98 93 108 128 144 154 160 146 149 151 145 135 134 146 151 167 173 175 162 144 129 118 127 126 114 129 150 165 168
151 117 142 110 159 90 76 56 36 28 58 46 36 -23 87 141 121 149 122 95 110 124 165 183 205 209 200 172 154 141 134 131 145 154 162 169 186 191 193 184 172 150 146 142 136 144 158 176 168
138 96 141 143 170 123 145 74 45 66 65 45 39 63 44 160 48 101 108 97 123 154 166 183 196 202 192 174 153 135 133 141 149 161 177 204 212 225 219 205 192 186 163 139 126 128 148 176 189
87 171 219 176 131 66 115 96 -13 46 62 84 93 82 45 51 48 76 149 141 160 185 191 195 189 192 186 177 178 165 158 157 159 174 178 180 170 174 191 179 170 160 151 143 129 122 121 154 182
135 188 202 128 88 5 104 75 25 -20 72 62 67 90 115 94 77 113 181 189 189 184 180 181 174 176 170 165 167 166 163 164 167 172 172 176 174 167 177 169 165 154 149 138 138 150 154 165 193
144 153 164 90 63 48 103 -52 10 -9 0 -3 -15 37 77 80 101 155 260 306 269 232 191 170 159 145 143 150 166 177 177 166 164 161 152 153 150 151 163 164 161 164 165 167 162 174 192 210 226
126 122 125 94 97 45 40 46 -2 -14 7 47 43 49 57 77 95 145 255 324 262 229 184 151 148 137 129 131 135 145 140 135 129 129 126 123 126 124 134 141 147 156 159 164 164 167 175 192 207
127 109 117 121 37 21 24 34 45 73 105 45 49 62 71 77 90 138 200 227 233 223 191 158 149 141 133 126 116 113 110 110 108 110 118 122 126 130 131 138 145 153 158 154 154 160 175 180 185
162 153 156 91 64 -22 -45 32 22 28 32 32 32 47 81 82 81 109 138 175 190 169 141 131 124 111 108 101 106 107 110 111 112 115 117 121 127 135 143 142 142 140 142 147 152 169 173 190 188
90 90 121 87 47 92 89 32 44 -24 0 31 22 64 44 46 84 96 106 114 123 118 112 104 101 86 82 85 86 92 98 109 123 134 135 135 139 146 149 145 143 140 138 143 158 169 178 175 171

GFSSGP_con_3kmhel_072.txt.gz
Helicity
170 145 126 133 149 174 128 140 185 77 123 144 149 115 64 124 60 84 38 2 -19 -29 -57 -61 -46 -36 -35 -20 -11 -14 -15 -19 -23 -28 -34 -34 -19 -17 -14 -16 -18 -15 -4 4 8 14 12 3 -4
163 153 149 155 182 162 131 150 145 132 146 135 117 89 73 75 80 41 69 -5 -10 -14 -36 -42 -35 -39 -29 -35 -46 -39 -26 -23 -36 -44 -49 -45 -32 -13 -15 -18 -17 -15 -14 -17 -15 -10 -16 -23 -26
197 171 174 156 160 143 147 155 153 196 124 110 102 117 108 80 96 41 76 14 11 -7 -27 -18 -25 -17 -26 -41 -63 -40 -35 -38 -47 -47 -52 -44 -38 -4 -9 -20 -23 -23 -26 -32 -30 -29 -32 -36 -34
221 209 187 198 152 164 176 156 201 154 127 91 106 104 70 81 79 77 89 42 16 3 -15 7 5 9 -1 -21 -27 -35 -37 -67 -66 -46 -44 -44 -35 2 -4 -18 -20 -25 -26 -24 -22 -25 -31 -30 -26
257 266 194 220 151 132 133 169 225 176 152 152 99 113 101 84 99 99 94 62 43 17 14 4 27 35 28 8 -8 -36 -56 -49 -47 -61 -44 -34 -27 5 -5 -20 -22 -22 -23 -22 -19 -26 -28 -28 -23
312 300 204 166 149 150 185 172 207 216 159 208 121 84 94 93 91 99 91 64 48 53 28 35 48 51 46 29 5 -13 -31 -38 -45 -35 -40 -30 -11 11 0 -17 -20 -20 -15 -14 -11 -12 -15 -15 -11
228 315 133 197 141 187 190 157 175 228 171 155 246 98 99 111 108 101 103 86 63 55 47 60 42 45 56 43 22 6 -3 -14 -11 1 -14 -19 18 2 -1 -13 -10 -9 -12 -11 -7 -5 -9 -7 -1
289 181 152 135 202 243 196 174 154 184 173 155 205 247 168 102 84 118 147 109 59 65 60 64 57 41 35 42 41 32 24 26 39 43 44 33 27 17 29 3 2 6 7 9 6 10 12 16 19
178 226 86 67 76 169 232 129 118 133 132 162 199 197 209 127 78 95 99 104 90 76 72 77 66 59 52 52 57 53 48 47 60 53 56 21 17 14 17 34 19 16 15 20 23 24 29 31 38
158 130 43 68 109 106 204 132 132 134 97 150 197 137 170 96 91 83 76 99 109 103 99 94 82 71 72 70 50 60 63 45 41 34 32 26 30 29 22 36 30 23 22 30 33 36 42 23 29
236 109 94 79 106 145 185 149 114 92 138 172 224 215 163 135 118 84 51 57 74 103 123 110 100 92 75 73 70 77 75 70 67 60 50 40 39 40 31 31 30 28 40 33 38 42 34 41 40
125 74 73 126 94 98 105 141 104 170 114 129 147 188 135 151 130 122 77 51 57 63 70 77 85 87 78 84 79 82 79 73 74 62 53 49 45 43 40 39 40 37 40 43 45 47 45 47 45
133 64 114 91 75 66 141 185 129 148 114 111 124 129 150 141 134 119 122 91 66 60 58 51 63 63 69 68 72 70 68 67 65 52 46 47 49 45 44 43 43 44 49 48 49 48 50 52 49
109 138 57 127 88 141 112 164 101 90 71 109 156 155 174 170 138 111 100 105 79 48 40 47 56 49 55 55 53 59 58 54 52 54 51 49 48 49 51 50 49 50 51 54 54 59 62 63 61
126 133 95 70 103 137 146 124 90 99 19 137 168 157 159 183 158 131 106 101 67 54 27 34 43 35 32 33 44 52 56 51 55 57 51 49 50 49 51 55 60 62 58 56 63 64 68 72 70
134 99 118 76 53 123 108 35 32 40 9 98 143 165 163 164 169 152 123 119 83 57 40 33 40 36 33 38 47 55 57 55 61 64 64 57 53 54 57 63 67 68 69 68 70 75 76 75 80
145 114 78 93 91 104 59 39 73 161 -80 56 96 119 142 155 152 144 137 127 88 51 43 47 34 31 31 37 44 50 54 59 65 65 60 57 60 61 60 64 67 70 75 74 77 79 81 89 92
123 95 80 71 128 94 45 68 106 78 -31 12 98 67 131 143 177 137 150 149 101 77 61 56 45 44 37 47 55 63 66 67 69 72 75 74 78 77 79 76 68 73 80 82 84 82 91 92 101
73 109 84 105 106 58 31 45 50 38 72 -9 65 130 147 152 142 157 154 166 105 83 81 62 51 47 50 56 62 63 63 66 74 76 75 83 87 89 91 93 88 90 88 82 92 103 107 114 107
93 71 60 73 46 45 20 44 15 39 18 28 -51 70 142 148 109 152 149 163 126 107 90 89 66 58 61 68 76 89 91 90 96 106 104 113 102 100 106 106 105 106 112 103 109 122 127 127 129
93 83 82 68 84 75 49 44 26 40 20 45 80 92 79 109 101 114 152 154 123 102 99 94 98 91 96 96 109 113 110 103 105 106 119 137 142 146 152 147 151 141 144 138 136 152 162 174 160
81 133 83 54 55 64 31 44 10 -3 -6 -18 -44 25 82 160 112 129 184 162 139 123 122 108 103 112 135 137 127 116 114 108 131 135 135 136 153 158 164 163 158 145 137 123 123 140 143 168 164
132 77 99 76 77 81 33 72 58 71 7 -30 -5 24 29 37 140 144 186 160 135 129 121 125 128 151 163 157 154 142 132 134 127 127 127 146 156 175 184 183 169 160 150 136 116 113 116 139 159
71 102 115 116 79 35 48 44 2 48 20 31 42 55 31 38 40 76 139 134 107 156 134 135 140 151 150 149 145 132 122 115 110 121 133 151 160 172 188 178 166 152 144 130 123 124 111 128 136
92 80 166 96 64 35 54 43 62 43 -17 34 66 88 63 51 60 63 143 183 105 125 135 129 121 139 152 156 157 151 141 140 142 146 154 152 157 161 169 160 150 145 141 137 130 126 131 139 146
91 95 117 82 50 21 72 -7 37 22 56 53 21 68 107 85 88 107 97 121 92 102 154 165 158 159 152 139 140 148 148 154 166 171 166 163 162 157 154 150 147 146 140 133 128 123 140 168 192
117 129 161 115 79 58 30 40 18 29 42 39 42 43 69 92 114 83 44 43 58 148 186 178 176 180 165 148 147 152 160 154 151 154 152 150 149 146 141 139 138 141 138 135 136 140 143 158 180
121 79 102 118 28 36 14 37 38 93 116 81 61 51 51 46 69 75 67 45 133 216 246 229 196 161 140 128 139 149 149 147 140 135 135 134 132 130 130 134 139 145 146 145 143 143 153 160 168
83 84 105 97 102 73 41 38 60 98 127 74 83 100 84 56 93 75 83 108 177 227 238 217 175 158 142 135 135 135 130 122 117 113 118 124 124 126 124 125 128 135 141 140 143 155 158 161 169
128 76 46 64 29 91 89 59 35 24 30 41 67 63 82 72 52 75 83 126 158 167 146 143 142 132 129 123 109 105 98 94 97 104 109 111 110 113 116 114 119 121 127 131 135 144 151 152 148

GFSSGP_con_3kmhel_075.txt.gz
Helicity
166 104 101 121 162 124 109 100 129 154 111 122 138 161 70 106 37 85 45 32 30 2 -21 -56 -56 -40 -25 -8 3 -2 -15 -22 -28 -33 -29 -12 -14 -11 -9 -14 -7 5 17 25 24 17 5 -3 -5
201 114 111 134 194 156 123 73 78 114 145 120 144 135 158 86 108 41 96 24 14 6 -40 -59 -64 -51 -26 -22 -19 -18 -27 -30 -35 -39 -39 -27 -16 -15 -15 -15 -9 -5 -3 -3 -4 -11 -16 -24 -21
148 135 120 161 160 182 129 115 93 109 213 77 144 162 136 68 79 50 46 29 21 14 -32 -12 -42 -30 -36 -48 -51 -47 -38 -38 -48 -47 -41 -44 -7 -8 -17 -16 -16 -17 -19 -24 -23 -26 -23 -25 -16
171 132 161 190 170 153 79 77 179 125 214 69 164 105 61 106 92 65 57 40 22 15 13 14 -13 -14 -33 -60 -53 -53 -74 -65 -61 -47 -41 -46 -6 -1 -8 -10 -8 -12 -17 -22 -26 -28 -22 -14 -16
220 145 170 148 155 124 136 126 165 166 141 134 76 58 71 92 85 57 92 47 37 28 36 2 12 0 -11 -18 -24 -41 -69 -92 -82 -57 -48 -42 13 -3 -5 -11 -11 -13 -13 -14 -17 -18 -20 -14 -15
199 149 201 160 139 116 141 195 157 199 142 181 72 73 52 51 107 82 101 68 53 66 25 20 28 13 4 -2 -12 -27 -39 -47 -61 -58 -54 -47 1 -16 -15 -19 -21 -23 -23 -23 -24 -23 -23 -19 -13
239 189 177 116 109 205 187 239 195 199 136 152 215 73 42 55 108 158 122 96 68 65 39 37 18 17 22 17 7 -2 1 -20 -46 -29 -30 -21 -12 -18 2 -8 -5 -6 -7 -9 -10 -9 -6 -5 5
218 222 174 92 109 159 174 228 252 265 166 110 290 140 19 23 104 258 171 78 94 52 86 41 36 19 13 25 29 25 30 37 40 14 21 32 19 18 16 5 5 7 11 10 7 9 16 16 23
214 269 159 142 83 147 223 228 250 203 129 133 205 262 218 46 98 162 249 214 132 104 82 73 48 48 40 38 53 48 48 61 54 59 44 22 19 12 14 54 39 22 20 20 24 30 33 31 38
183 174 133 96 98 95 139 272 240 210 112 83 109 127 182 131 79 92 107 115 175 107 82 96 76 95 52 57 54 52 60 34 24 28 34 12 48 70 77 72 56 41 35 30 29 33 33 22 33
143 147 195 100 93 166 129 156 290 237 184 162 149 150 140 150 185 114 45 87 101 96 82 100 85 103 107 91 62 69 62 55 58 54 48 53 61 62 45 53 46 39 42 36 46 51 31 41 47
181 58 113 212 118 107 119 111 136 280 166 88 114 115 114 127 160 185 133 62 60 86 144 103 93 93 104 101 71 82 83 79 75 69 64 69 66 70 61 59 60 53 45 41 45 41 49 52 47
41 115 54 68 98 75 98 130 216 283 68 71 119 90 72 131 152 141 150 118 67 67 70 85 90 92 108 104 100 101 88 83 77 76 68 69 75 72 68 66 60 60 60 56 55 54 52 55 55
65 98 -13 95 140 108 70 87 77 159 133 80 112 121 92 128 98 107 138 149 136 53 43 46 66 66 101 101 105 82 81 74 79 71 61 61 69 69 71 68 64 63 62 60 60 61 65 67 65
139 72 53 -13 77 93 79 64 37 79 115 128 130 110 91 153 133 114 96 124 126 103 78 55 54 77 89 72 90 80 86 76 65 61 62 57 62 61 65 65 73 72 70 66 66 65 69 71 69
141 70 102 59 25 126 58 46 33 6 101 151 176 194 105 87 151 122 116 122 88 86 64 65 77 69 62 80 81 70 67 57 55 56 60 57 55 62 68 73 76 77 82 79 74 73 73 73 75
158 118 80 53 73 81 92 88 75 46 97 169 154 194 131 96 126 100 115 113 91 81 74 70 61 43 45 54 56 50 59 53 53 55 58 55 56 66 77 84 86 85 92 89 87 86 82 87 95
122 140 38 79 48 39 72 98 122 91 44 73 193 153 138 84 67 110 111 126 120 108 75 70 62 45 38 46 52 58 51 49 52 60 66 71 76 84 91 91 91 92 103 98 96 93 95 98 103
84 108 21 78 49 49 59 46 15 18 41 39 17 153 198 65 48 48 75 110 125 105 88 68 51 53 60 64 64 58 57 57 66 76 89 93 97 97 97 97 94 103 106 105 103 104 119 122 114
132 74 112 134 38 26 37 32 30 -17 24 43 51 93 109 138 56 38 64 96 118 122 104 85 77 75 75 77 80 71 78 68 87 101 101 112 107 108 117 115 128 143 151 126 114 136 147 157 154
154 78 69 49 66 43 117 40 31 17 37 44 46 26 53 96 95 68 61 86 116 113 128 134 116 108 93 91 109 119 125 128 112 110 119 134 134 145 159 159 157 158 166 153 157 159 160 168 171
150 107 52 61 22 95 11 73 -32 -13 -15 -10 25 12 122 76 71 111 70 103 114 115 147 141 129 111 112 105 111 94 99 101 158 181 168 123 137 143 146 145 144 144 145 147 147 154 166 164 160
72 131 153 88 53 99 23 88 88 2 17 9 23 22 44 147 168 144 133 126 117 112 110 126 130 140 128 113 120 129 140 169 154 128 109 115 113 142 153 165 162 162 166 161 153 137 125 137 149
58 120 123 120 115 77 78 45 68 9 25 28 39 24 28 48 81 119 99 132 165 148 115 139 122 127 131 136 145 152 155 138 119 107 100 101 114 118 143 158 157 151 146 139 131 122 128 127 120
64 52 124 104 104 82 108 79 77 61 43 63 67 69 52 52 57 69 27 112 201 174 143 146 149 156 141 151 163 161 146 130 121 115 109 115 105 104 134 147 152 149 142 130 123 120 116 118 129
60 37 95 85 40 41 39 35 57 75 84 66 45 35 69 154 143 82 51 103 177 204 179 164 170 180 158 167 149 146 135 129 135 147 151 149 161 162 149 140 138 137 132 128 124 120 117 148 141
96 145 171 204 177 123 12 45 21 30 9 15 27 42 42 66 113 105 127 119 99 175 174 118 127 163 180 169 151 142 130 124 135 151 163 172 163 161 146 134 134 131 126 127 128 127 141 127 135
102 85 127 156 43 16 -20 13 55 36 73 72 78 85 84 59 77 108 95 97 110 168 173 143 131 151 181 184 190 165 152 154 152 149 151 153 142 130 127 123 121 122 118 121 123 125 126 122 138
99 118 120 147 123 137 47 27 88 81 102 83 71 92 119 110 70 65 87 79 106 117 206 211 178 197 196 181 173 168 157 150 143 143 140 136 129 131 127 123 116 117 120 121 119 131 132 132 130
96 67 29 57 32 71 115 107 23 36 74 67 51 60 71 71 61 38 81 68 98 124 109 136 149 194 203 186 158 151 143 134 125 121 121 120 121 115 125 124 124 125 131 134 135 131 143 143 138

GFSSGP_con_3kmhel_078.txt.gz
Helicity
164 176 98 123 179 170 114 111 75 85 62 82 127 41 159 61 158 90 17 72 132 48 15 -22 -11 -7 -3 17 12 -1 -6 -3 -18 -19 -7 -5 -2 -3 5 15 33 42 41 28 14 11 3 0 -7
181 236 106 167 206 209 151 82 50 55 160 127 39 95 168 118 89 61 100 62 77 36 -24 -45 -38 -24 -1 3 -1 -11 -14 -18 -28 -32 -14 -13 -7 -7 -3 -1 3 6 2 0 -4 -5 -13 -15 -15
164 201 165 203 188 212 138 105 102 155 142 116 91 35 220 224 43 142 82 52 78 17 -50 -45 -45 -30 -35 -32 -26 -25 -23 -26 -34 -42 -36 -13 -13 -15 -12 -14 -17 -15 -16 -14 -8 -7 -8 -12 -14
186 166 198 211 160 132 219 134 222 181 168 157 130 60 38 154 87 75 59 70 77 2 49 -8 -32 -41 -58 -51 -59 -57 -46 -37 -32 -40 -43 -4 -1 -7 -7 -7 -12 -10 -9 -7 -4 -2 -6 -12 -15
200 216 214 200 169 132 101 211 225 156 76 171 157 242 86 129 161 41 57 79 41 108 59 12 -12 -34 -46 -51 -55 -79 -86 -71 -45 -34 -38 -3 7 -10 -10 -10 -10 -7 -6 -11 -10 -9 -14 -15 -12
242 220 236 202 124 179 132 141 178 169 183 158 245 141 88 86 175 90 87 72 123 102 53 30 8 -12 -19 -30 -41 -62 -74 -76 -75 -55 -36 14 -8 -20 -16 -19 -15 -14 -13 -13 -14 -12 -13 -5 0
240 239 228 147 142 112 171 268 231 144 165 234 188 216 93 92 163 211 85 107 112 70 52 63 38 8 2 -14 -24 -28 -35 -42 -50 -52 -39 -7 -25 -16 4 -5 2 5 8 7 3 4 7 13 18
205 205 219 232 166 148 204 241 429 381 250 271 290 161 224 13 96 203 109 135 106 23 51 56 44 24 6 -1 3 8 5 -23 -23 -15 9 19 24 10 22 15 17 21 22 24 25 22 25 27 31
227 231 198 220 170 280 176 225 252 261 191 234 270 238 262 53 65 194 265 168 98 58 71 60 45 18 12 30 21 35 39 48 34 18 22 14 8 7 23 36 43 38 37 37 37 36 34 31 33
210 211 147 158 38 88 153 220 223 291 172 163 134 148 102 233 62 131 264 353 177 104 107 81 38 51 40 43 14 35 38 25 20 28 3 -25 9 33 78 64 67 54 47 44 41 41 33 26 31
124 117 201 134 276 138 114 229 233 243 308 314 282 128 144 167 252 57 125 145 133 98 119 87 101 63 52 91 1 50 23 10 13 49 26 28 93 69 69 62 58 54 40 46 42 36 29 29 38
117 80 167 143 276 191 191 154 297 342 315 185 185 102 127 126 214 224 67 69 63 94 93 88 94 103 85 80 46 55 28 38 70 70 47 88 85 70 50 73 49 43 61 46 61 67 43 41 57
103 112 85 164 118 305 80 106 167 176 145 186 179 49 94 124 133 199 239 160 118 87 100 94 91 106 93 102 55 80 86 84 91 96 81 79 70 71 62 71 76 62 57 58 62 67 59 65 54
56 15 112 -22 153 121 217 143 173 188 103 140 170 80 63 92 104 132 161 185 150 123 111 90 91 98 94 98 87 151 113 79 103 103 90 82 69 67 74 74 65 69 69 54 65 66 71 66 71
98 -71 19 92 42 123 201 109 145 107 145 123 129 41 57 88 129 101 104 137 123 89 123 70 87 82 106 113 95 94 102 101 111 94 73 64 55 59 67 48 65 63 65 63 68 72 77 78 73
134 92 7 66 114 117 92 76 83 90 149 211 246 295 61 88 116 115 113 86 86 87 91 76 81 88 99 99 102 85 110 127 94 72 70 57 57 57 63 60 61 68 86 95 87 83 83 84 86
135 138 -64 -9 17 167 205 77 67 36 82 110 174 235 282 64 109 118 126 152 88 76 71 85 95 83 100 104 101 86 108 92 67 60 61 66 59 74 75 72 77 82 100 105 104 93 101 104 94
189 198 96 62 38 40 25 8 118 64 56 76 93 193 215 206 52 58 58 153 147 118 101 104 101 88 92 102 91 94 100 92 69 60 48 62 70 80 96 93 89 95 109 109 111 108 104 119 113
95 142 70 149 63 -26 -4 47 56 99 93 91 100 83 145 209 91 74 59 55 118 146 155 103 102 80 93 94 96 99 97 74 63 80 109 156 152 129 128 110 101 100 108 112 119 121 128 132 142
102 121 127 131 118 156 45 47 25 67 53 44 57 58 97 187 216 95 38 50 77 100 125 115 104 95 90 110 111 96 97 94 88 90 123 167 186 181 163 158 161 157 148 160 153 164 145 148 144
103 79 111 97 152 4 38 58 45 51 78 50 46 62 35 95 136 159 51 52 79 90 108 129 140 125 115 140 172 170 160 152 170 168 154 163 160 159 161 149 141 137 136 130 136 148 157 156 158
158 0 60 -24 73 88 55 71 43 56 91 52 50 49 43 11 106 139 133 110 106 102 127 157 166 183 200 191 184 161 151 149 158 193 201 172 170 169 169 164 161 152 148 147 154 156 164 182 160
111 39 126 101 57 169 67 92 83 60 85 102 51 39 79 58 71 126 159 172 162 163 172 168 180 180 168 157 152 156 175 195 204 205 185 158 146 155 155 154 152 159 164 172 174 175 179 154 155
53 144 105 129 122 128 89 85 130 59 31 37 72 36 55 63 96 172 221 283 220 220 194 175 185 203 163 161 182 164 164 178 187 180 164 146 141 122 134 159 163 168 175 176 170 163 143 140 156
73 127 204 169 151 111 93 86 66 101 72 94 92 92 89 91 103 123 211 303 265 197 207 203 178 195 177 190 198 201 197 185 176 177 180 179 146 140 162 145 161 161 165 162 152 144 138 128 130
93 117 125 123 136 120 171 118 94 94 70 109 95 94 110 169 166 111 134 201 206 199 243 235 220 201 206 201 221 244 241 232 230 213 189 192 199 191 162 147 146 150 151 147 142 132 129 137 152
95 68 75 200 160 108 49 46 75 40 39 63 46 57 64 54 71 141 211 262 268 204 192 224 217 242 240 250 225 312 235 194 179 188 178 180 164 160 164 151 143 139 133 130 129 129 144 159 129
62 92 110 154 127 122 40 39 42 44 81 80 95 100 103 96 88 95 166 179 178 190 171 198 239 240 248 210 227 230 195 203 197 193 171 174 171 156 158 158 151 143 139 134 131 134 141 140 157
91 131 154 141 157 130 75 64 118 107 76 70 74 70 66 76 72 56 86 116 164 216 196 201 273 339 302 289 262 210 169 158 179 170 149 130 136 150 152 154 149 144 140 141 140 142 146 151 148
94 85 75 122 111 97 125 134 62 90 92 75 44 36 28 3 40 51 43 78 156 179 183 207 261 277 287 294 303 185 166 198 166 157 156 155 148 128 135 136 139 148 148 147 153 140 150 158 154

GFSSGP_con_3kmhel_081.txt.gz
Helicity
121 127 145 170 245 105 144 127 128 189 70 -16 53 168 75 -31 126 118 76 75 131 84 27 21 22 7 13 21 12 3 -1 0 4 2 10 10 12 22 30 40 44 42 18 10 2 0 -6 -8 -13
103 158 141 216 257 238 87 102 127 165 98 51 100 130 166 163 102 131 140 77 98 57 28 11 7 7 14 6 -1 -6 -8 -10 -7 -3 11 3 -1 2 6 19 15 8 -6 -8 -13 -13 -14 -14 -18
122 185 199 219 230 190 148 71 38 139 235 98 189 65 116 177 177 112 81 67 85 33 15 -15 -4 -5 -6 -10 -16 -17 -24 -20 -18 -9 6 0 -5 -9 -9 -9 -8 -12 -11 -8 -4 0 -12 -20 -31
171 202 225 238 199 172 171 207 120 87 55 95 150 203 72 250 161 45 70 64 75 26 3 -17 -12 -32 -35 -33 -34 -28 -31 -32 -28 -22 -5 -2 -3 -4 -11 -13 -10 -10 -13 -10 -3 -10 -16 -25 -34
153 229 248 232 173 189 129 119 271 170 122 109 20 28 52 230 335 150 71 45 84 58 22 -9 -21 -48 -58 -61 -71 -62 -50 -46 -43 -37 -3 -1 -2 -4 -10 -17 -17 -18 -20 -17 -13 -17 -14 -14 -23
255 193 255 219 183 152 156 121 150 98 89 171 237 206 79 157 339 213 30 92 97 91 52 10 -11 -36 -53 -64 -84 -90 -86 -80 -69 -57 -17 -11 -16 -13 -14 -17 -18 -20 -15 -14 -8 -2 9 11 7
175 215 230 179 227 161 186 218 248 163 128 222 166 268 190 33 95 170 115 91 114 107 93 57 21 1 -10 -52 -68 -76 -75 -85 -86 -82 -24 -36 -37 -16 -14 -9 -1 4 7 10 14 19 26 30 30
148 191 194 203 206 199 184 249 287 226 244 254 334 202 241 175 45 134 93 128 109 100 89 71 52 24 5 -27 -28 -29 -38 -48 -49 -46 3 -9 -19 -7 -3 -9 8 17 28 32 35 41 45 42 42
179 204 194 224 214 269 180 247 318 295 273 293 279 274 226 244 316 82 128 119 95 56 58 66 57 41 26 10 -2 2 -19 -17 -9 -6 16 10 -10 2 20 13 22 28 38 45 52 52 52 50 44
206 167 188 165 276 222 188 218 265 275 252 311 275 290 292 223 189 278 73 136 97 50 13 27 32 40 25 30 16 22 28 18 7 -2 -6 -2 4 17 26 38 51 44 43 44 46 49 43 43 40
183 79 240 208 180 262 191 212 218 229 329 250 214 190 187 271 186 110 58 90 102 58 46 52 6 28 61 43 26 24 24 20 21 17 7 2 31 43 41 38 42 45 41 38 35 29 27 27 36
177 120 127 243 238 321 270 254 273 229 242 207 128 134 164 185 190 39 190 86 93 65 61 69 57 69 76 64 51 3 7 14 26 13 39 44 38 53 51 41 36 33 36 31 34 40 38 25 20
146 77 122 226 215 376 351 302 275 260 182 174 162 161 136 180 210 251 253 97 78 77 72 99 81 75 91 71 66 52 -6 6 10 28 53 64 67 51 57 38 35 32 32 46 38 32 36 38 35
86 63 121 63 115 335 357 341 238 138 163 138 78 91 114 157 199 260 264 302 202 134 97 124 115 64 104 66 90 79 33 32 60 94 94 84 73 54 43 47 47 40 46 42 50 52 47 50 58
164 66 59 80 36 25 263 389 417 96 115 104 41 20 59 127 177 128 163 168 133 151 127 108 91 77 103 88 78 116 80 111 117 101 90 89 84 59 58 57 39 39 49 48 53 50 70 67 68
142 156 48 55 72 0 127 -15 234 244 107 107 58 33 35 99 121 119 103 100 141 184 99 74 86 124 125 113 66 103 145 121 129 87 83 81 62 56 56 52 46 43 54 67 73 72 70 72 77
105 133 68 57 97 68 108 108 63 186 126 112 115 92 87 108 117 139 128 130 115 106 116 139 125 112 93 96 82 71 97 115 114 80 79 69 59 59 68 58 51 59 74 81 83 80 96 94 90
124 22 42 77 54 103 93 118 54 117 167 96 111 142 126 129 156 110 106 135 111 85 106 120 102 121 113 124 110 99 111 127 94 82 66 62 71 69 85 76 69 78 86 83 93 95 100 108 106
182 115 51 24 -42 12 87 127 84 117 88 104 99 120 133 110 150 141 125 87 119 143 147 124 117 102 124 143 141 141 150 122 113 120 113 124 106 99 90 81 89 112 86 89 109 115 114 115 117
178 131 138 94 -6 -16 -25 84 72 17 30 29 46 65 52 66 135 104 161 110 82 116 132 120 123 124 118 135 119 102 111 118 87 87 140 163 187 199 168 152 135 129 117 124 131 140 129 130 132
158 106 114 56 65 112 96 96 104 59 31 16 13 28 53 51 117 118 127 135 75 80 106 108 114 95 134 118 183 192 195 174 155 152 159 157 164 180 177 171 147 142 122 112 122 130 144 141 147
122 71 135 108 158 97 73 21 43 29 49 34 12 48 43 41 29 117 96 133 127 60 86 116 148 164 167 173 231 189 180 173 165 182 189 187 173 176 175 170 168 165 157 167 166 190 190 197 164
106 125 35 64 73 99 62 97 36 43 130 111 89 76 49 26 34 104 164 157 150 143 120 132 169 193 182 229 204 215 210 199 218 237 224 194 184 177 178 177 173 178 177 178 182 186 187 181 165
229 135 166 189 133 158 44 54 145 75 25 101 111 84 69 34 50 25 39 246 256 240 210 183 168 175 181 173 184 194 211 224 241 226 212 194 186 179 166 161 165 174 178 175 169 165 164 155 158
91 154 148 186 205 151 69 87 141 104 98 45 48 53 60 20 37 90 90 195 362 303 232 199 192 192 212 212 192 194 200 206 207 206 204 196 184 172 148 138 146 154 160 164 166 163 156 157 164
58 122 35 177 139 180 140 46 88 22 43 85 36 72 93 87 97 81 97 140 186 213 209 189 198 195 206 238 257 257 251 239 226 212 210 206 188 170 153 138 142 149 160 154 156 153 155 155 152
92 143 130 105 71 102 92 84 90 63 72 111 126 139 108 102 123 141 127 136 171 175 172 200 211 225 212 221 273 285 286 304 286 237 235 204 183 162 144 149 147 150 151 155 147 141 143 162 162
105 118 130 191 100 101 106 111 95 98 137 136 126 106 106 106 132 132 119 112 147 172 176 175 181 216 258 273 263 262 229 215 208 190 162 147 113 136 180 187 156 170 162 149 152 141 147 158 166
77 121 125 118 105 99 109 127 16 49 90 76 57 58 70 98 119 94 87 101 83 143 167 164 188 242 292 296 292 280 236 221 231 210 201 115 116 160 156 172 183 160 149 152 150 142 146 152 155
62 61 79 90 99 106 100 105 53 35 23 33 6 21 11 18 15 34 37 49 65 121 152 154 189 252 267 265 248 263 302 329 279 294 231 170 222 215 179 160 167 166 162 163 165 148 156 150 163

GFSSGP_con_3kmhel_084.txt.gz
Helicity
135 121 141 191 269 217 112 136 90 103 50 61 78 107 69 169 149 146 68 61 108 89 44 28 36 23 28 32 23 16 13 13 5 19 20 24 30 43 55 59 47 19 15 9 7 1 -5 -7 -13
88 118 165 202 259 270 80 129 120 108 92 93 59 75 115 172 126 68 121 52 109 85 33 26 27 34 30 21 12 4 -2 -8 4 5 10 13 20 30 35 30 11 1 -0 -2 -8 -13 -18 -18 -18
131 117 217 224 246 197 125 99 107 75 -36 78 41 29 91 170 96 135 79 81 130 81 33 19 24 27 12 7 -1 -6 -13 -13 2 -1 -6 1 2 9 8 1 -4 -7 -7 -8 -19 -30 -29 -37 -31
174 182 221 264 236 177 167 70 11 105 209 25 93 93 112 166 131 134 81 104 158 91 45 25 15 10 -0 -7 -15 -21 -22 -16 -2 -2 -8 -11 -11 -12 -7 -7 -9 -16 -18 -20 -29 -40 -45 -46 -35
153 238 251 264 190 180 183 212 120 112 45 131 121 67 96 201 144 106 82 106 131 81 42 14 -3 -8 -16 -21 -26 -33 -35 -33 -5 -5 -6 -10 -14 -19 -20 -20 -23 -29 -28 -28 -29 -27 -27 -21 -15
261 275 236 214 171 154 179 146 165 202 134 156 165 208 122 164 200 127 56 104 97 63 41 10 -16 -33 -39 -45 -51 -55 -55 -58 -32 -21 -21 -21 -25 -28 -33 -33 -32 -31 -28 -19 -11 -0 -0 5 10
265 337 229 175 141 180 135 110 198 290 122 162 221 169 131 32 169 192 97 82 92 80 81 52 -5 -44 -44 -61 -75 -80 -78 -82 -76 -40 -43 -41 -39 -33 -28 -27 -23 -22 -17 -13 -2 9 22 25 27
154 304 251 164 192 183 130 185 273 208 273 243 235 175 57 13 86 141 114 106 90 91 68 72 46 25 -19 -52 -68 -71 -78 -88 -97 -50 -49 -44 -41 -34 -23 -20 -9 2 3 12 14 22 28 35 38
129 317 173 222 190 215 161 228 248 292 243 239 244 171 84 16 207 355 228 95 97 84 80 74 55 34 9 -14 -37 -32 -42 -44 -30 -18 -28 -28 -39 -25 -11 -8 6 10 21 26 30 35 38 38 33
169 225 141 236 231 191 180 206 242 299 335 292 268 274 207 202 148 348 130 58 83 74 96 72 60 46 26 18 5 -5 -20 -20 -10 -11 -10 -10 -8 -8 -3 6 21 23 22 27 22 24 27 28 29
77 192 159 184 214 205 234 235 248 270 330 281 230 233 212 113 124 144 235 203 76 52 61 58 61 59 50 44 37 36 21 11 1 7 4 9 10 7 14 13 15 29 22 22 18 12 17 19 24
192 176 153 213 209 219 339 311 229 214 241 216 167 192 234 125 110 98 121 260 236 105 54 14 43 52 58 62 47 35 37 31 19 18 16 23 27 30 27 25 17 18 22 17 19 20 16 18 20
134 116 109 137 193 312 366 360 241 170 179 189 183 174 163 136 187 133 143 173 289 282 227 8 16 14 59 75 63 46 38 37 14 40 26 29 42 38 31 21 20 16 22 20 18 20 20 15 21
31 288 79 124 283 281 348 454 349 234 185 156 139 138 147 133 159 221 221 205 116 12 36 44 32 4 48 85 79 71 31 12 32 41 45 45 57 59 33 35 25 17 29 27 27 33 33 34 41
122 49 72 -137 329 247 281 388 336 387 288 160 182 175 148 150 181 154 185 131 73 3 80 -85 41 60 66 50 68 94 71 46 33 30 48 68 67 57 54 52 46 33 35 39 44 45 51 51 58
116 89 116 120 70 146 370 281 317 381 355 239 166 164 148 110 114 132 134 127 141 128 101 158 119 64 53 50 68 71 108 119 78 53 90 95 92 75 64 57 47 41 45 50 54 56 58 57 63
153 139 71 93 49 62 89 303 306 333 366 325 113 98 106 103 94 101 126 121 125 137 134 172 162 221 52 28 30 89 124 124 113 112 94 74 76 77 77 62 50 56 62 65 68 65 77 76 77
133 85 99 60 86 -26 -7 90 402 302 370 277 157 66 64 73 62 73 103 104 96 116 158 112 76 124 142 54 57 95 137 144 151 121 81 72 69 70 66 59 56 69 75 68 76 76 92 91 85
146 47 54 63 19 47 47 80 68 205 277 194 120 157 105 71 104 101 115 116 126 116 101 83 86 70 113 176 133 107 143 181 189 153 80 70 88 79 71 70 73 75 73 72 80 99 94 97 112
146 55 53 50 -39 -8 23 105 74 11 104 37 78 90 99 98 104 100 92 135 126 124 99 93 100 105 74 179 164 149 129 178 133 112 129 109 129 120 115 110 117 115 112 104 105 112 113 110 114
179 75 89 113 21 -16 34 57 63 55 61 11 45 66 80 77 63 74 89 83 126 135 109 119 104 112 97 124 188 239 196 186 165 173 172 148 188 197 202 188 162 139 120 123 112 117 126 125 144
100 55 123 64 49 67 87 126 39 26 49 -16 16 57 45 70 80 20 56 82 85 84 95 117 92 114 119 149 174 197 202 193 158 125 210 225 200 187 189 181 175 164 151 150 134 151 164 191 152
108 125 60 64 121 89 70 80 90 56 82 48 -4 -7 49 26 71 61 87 84 90 78 83 83 107 139 139 151 156 180 173 182 216 275 282 229 196 162 174 180 183 177 169 168 172 168 170 179 167
212 145 178 145 85 101 46 36 46 86 76 60 68 33 40 51 52 51 64 99 95 131 139 135 136 161 152 179 182 182 193 219 233 242 241 221 203 196 199 196 180 165 163 164 156 156 151 152 156
116 153 119 100 125 102 76 48 83 79 57 97 79 72 78 90 73 46 44 46 70 113 163 188 162 172 149 146 180 184 190 218 234 256 228 211 218 214 193 172 142 134 133 145 151 143 143 148 153
194 104 79 114 133 144 113 81 109 128 124 81 58 70 75 81 63 65 84 75 82 165 219 221 188 172 146 153 138 165 181 236 217 218 232 215 199 164 142 142 145 137 129 126 137 145 147 155 148
87 152 112 134 155 152 106 107 97 87 121 117 148 98 116 108 105 105 81 87 105 119 172 166 161 166 170 179 195 209 252 255 251 234 211 206 191 164 149 138 111 109 132 138 155 161 159 176 168
69 85 112 112 125 103 105 122 72 90 102 87 93 97 88 82 81 107 116 80 75 98 125 149 159 175 206 220 228 261 269 294 232 217 237 203 199 183 141 119 174 160 173 159 169 143 144 157 153
104 101 95 89 82 73 88 96 54 57 78 91 65 63 70 75 72 78 81 79 76 92 105 125 136 153 177 201 220 236 258 339 335 298 326 149 177 229 227 164 154 111 95 145 127 132 139 135 136
59 72 92 91 99 108 89 131 89 44 2 34 43 54 65 69 80 50 37 38 41 42 73 97 115 120 149 177 190 212 239 274 273 298 262 241 183 172 196 201 134 129 131 140 149 137 137 136 150

GFSSGP_con_3kmhel_087.txt.gz
Helicity
110 110 152 203 285 298 156 170 123 55 102 101 84 131 138 112 157 151 55 58 141 138 87 80 55 32 46 48 28 12 29 30 21 24 30 36 36 37 54 60 43 22 17 7 4 3 -2 -11 -17
66 102 166 226 307 275 157 156 134 77 70 106 96 54 141 165 108 81 134 92 131 133 90 70 39 38 39 37 26 16 11 5 4 7 21 32 53 66 49 27 19 4 -2 -7 -6 -12 -18 -19 -42
109 111 172 235 275 221 101 156 92 160 6 94 19 51 101 135 163 115 142 96 130 116 77 49 38 38 31 16 10 2 -2 -2 -10 -6 4 18 30 34 21 -3 -12 -21 -21 -23 -23 -30 -33 -38 -46
126 166 179 262 275 199 142 78 241 301 119 89 34 177 57 85 146 176 105 117 134 111 95 51 42 35 18 7 -10 -11 -10 -7 -15 -17 -12 -6 -0 -6 -8 -17 -29 -32 -36 -43 -42 -42 -32 -30 -26
147 208 193 226 236 162 185 112 190 147 128 103 96 60 71 93 114 120 145 127 99 90 86 58 46 31 17 -1 -24 -24 -22 -13 -15 -23 -24 -22 -19 -18 -22 -28 -37 -43 -43 -47 -46 -36 -29 -18 -11
220 203 190 173 159 132 201 137 197 137 84 59 154 78 27 98 187 121 155 138 87 73 82 60 41 28 10 -4 -26 -40 -33 -11 -15 -21 -27 -29 -35 -28 -36 -41 -44 -41 -37 -38 -35 -22 -15 -11 -3
190 165 142 169 130 105 165 78 145 196 121 127 154 77 103 159 256 101 128 138 111 95 94 80 46 23 11 -6 -26 -42 -43 -21 -23 -30 -34 -42 -47 -47 -44 -45 -37 -31 -21 -20 -11 -10 -6 -0 3
176 136 232 99 156 133 175 98 105 138 335 330 319 177 160 156 147 93 105 115 102 111 117 78 59 37 18 -8 -29 -41 -53 -51 -40 -52 -46 -50 -56 -57 -46 -41 -35 -17 3 3 6 12 7 -0 13
131 110 57 108 163 164 147 117 62 159 190 319 219 108 138 237 222 97 78 102 100 87 74 76 58 46 21 2 -27 -40 -59 -63 -52 -56 -51 -46 -54 -43 -30 -20 -10 -4 1 10 21 13 16 12 9
157 62 -5 229 184 247 171 149 67 157 294 282 278 235 134 96 101 15 87 11 74 64 76 94 88 57 32 19 4 -15 -24 -19 -8 -24 -29 -29 -26 -20 -11 -3 8 12 13 9 14 18 11 17 16
114 24 98 170 227 345 225 237 252 104 216 239 200 209 211 196 122 189 155 189 90 96 87 81 86 69 51 53 36 30 19 18 12 12 9 7 7 2 11 12 14 18 20 18 12 15 16 12 18
87 13 132 101 263 357 335 302 242 246 178 196 176 197 223 172 116 34 213 191 289 111 106 142 102 59 56 74 67 49 36 32 27 21 26 29 27 18 20 18 16 20 26 19 16 18 14 14 18
33 -10 176 113 225 379 360 274 256 269 235 238 204 220 179 151 203 183 337 322 321 170 71 81 131 57 44 63 82 72 52 41 40 41 36 48 43 35 36 26 21 16 19 18 15 15 15 15 16
-2 -19 62 148 177 319 360 380 254 278 321 204 181 195 182 144 165 169 255 260 218 240 107 87 161 106 35 38 59 81 69 49 57 45 33 38 50 51 51 42 22 17 20 17 20 20 23 23 31
128 29 209 66 112 261 405 349 272 347 270 204 190 145 159 144 146 155 181 242 209 140 53 -142 61 64 33 37 36 64 72 66 65 57 45 44 64 59 60 57 37 25 28 21 29 30 39 39 44
74 77 -184 101 112 134 378 269 324 324 267 245 184 152 120 153 120 130 170 159 161 76 -4 -47 -0 53 44 47 36 68 75 76 51 61 71 59 76 87 79 69 52 43 46 50 50 47 46 45 46
117 57 67 71 113 160 220 272 366 433 330 334 295 212 187 161 149 141 152 155 134 90 80 1 -75 62 15 57 37 38 43 71 73 68 72 83 92 90 94 86 70 61 58 54 54 52 60 57 54
111 52 82 73 17 115 66 191 590 517 422 399 379 331 269 188 132 98 106 91 136 118 72 38 55 74 18 36 -28 172 40 27 32 99 90 71 68 83 96 87 73 71 68 62 65 58 68 70 60
53 8 20 22 120 51 54 283 219 374 403 323 347 305 248 183 150 94 63 87 114 131 159 102 108 76 121 104 123 107 152 48 81 127 121 99 78 82 81 74 59 57 61 54 62 68 62 63 81
63 74 -15 -17 -25 23 8 62 143 239 288 268 201 176 165 147 133 112 105 89 88 86 121 120 101 84 126 112 188 157 18 75 181 163 125 86 54 68 85 82 82 80 85 79 78 86 76 86 102
91 63 54 15 14 84 -7 28 22 107 247 261 213 103 107 81 92 134 109 100 101 70 55 80 88 99 108 123 185 167 194 136 200 165 195 116 103 127 98 85 100 110 115 103 106 108 95 89 121
131 117 124 -6 41 17 32 15 -0 -36 81 309 127 80 89 101 116 134 136 122 99 66 70 51 61 74 91 154 137 122 183 188 129 169 157 171 172 169 184 205 149 146 167 138 136 131 121 131 112
79 113 88 100 73 64 19 67 142 16 -1 142 57 4 29 38 50 67 67 73 67 71 81 68 59 65 107 131 128 141 159 190 194 202 226 177 189 180 179 167 150 138 142 146 145 130 125 132 127
110 62 99 122 92 100 32 59 129 52 8 -18 27 33 10 36 60 50 79 50 52 73 80 77 76 45 73 103 125 133 148 148 204 224 231 219 185 130 111 131 132 137 159 146 129 130 135 128 122
126 68 176 150 107 128 50 76 65 106 125 76 85 29 41 69 84 70 60 63 42 50 60 97 98 89 70 83 98 131 137 168 176 190 206 237 228 207 173 158 137 131 112 120 117 124 121 128 121
97 77 104 173 106 101 42 131 58 52 99 122 92 94 121 114 93 57 54 71 56 57 77 94 101 129 140 120 96 86 98 136 170 182 232 273 263 181 155 159 156 126 120 120 119 110 86 127 118
75 66 71 39 114 99 68 79 68 98 119 114 108 118 125 111 103 96 102 66 83 67 93 110 143 126 120 116 118 115 107 106 150 158 198 239 220 190 168 151 117 132 141 120 105 72 94 83 108
130 105 95 102 69 93 110 83 79 64 90 92 99 95 80 63 81 102 100 96 75 77 88 104 128 133 126 126 126 132 146 175 193 229 253 252 228 186 168 121 106 59 68 62 58 74 51 106 117
81 111 99 66 70 57 89 81 62 71 49 40 41 53 55 68 53 59 79 81 70 57 62 75 86 101 114 120 131 141 157 188 227 273 252 227 237 198 135 94 104 83 121 121 88 96 97 102 123
57 67 61 66 67 73 60 81 71 86 137 131 96 81 78 79 92 97 93 97 98 82 64 58 75 87 103 118 120 127 149 178 209 225 257 267 286 267 247 194 178 137 155 135 121 106 113 118 123

GFSSGP_con_3kmhel_090.txt.gz
Helicity
122 93 96 172 227 262 241 194 73 138 82 60 149 203 159 152 201 203 42 53 134 145 104 59 59 49 48 35 37 32 36 21 -8 7 22 34 39 36 39 47 28 19 12 9 9 4 -3 -20 -37
108 112 138 179 245 294 214 168 176 54 33 68 82 169 188 164 99 70 64 95 137 138 113 88 73 53 59 33 27 26 20 12 18 14 29 20 27 43 54 20 10 0 0 -2 -8 -12 -22 -44 -47
173 127 168 223 239 285 176 156 126 221 93 35 233 109 81 169 45 57 71 124 157 153 130 88 58 53 53 46 26 13 3 -2 19 25 31 30 48 31 11 -1 -10 -10 -17 -22 -25 -29 -38 -43 -40
165 144 157 201 218 224 145 125 169 206 187 12 48 187 55 64 71 90 99 151 165 150 120 67 49 49 42 38 12 4 -8 -14 -4 9 16 22 15 -4 -11 -20 -22 -30 -39 -40 -37 -35 -28 -25 -14
213 221 191 150 116 158 93 148 146 153 216 72 51 72 59 47 47 106 121 148 110 108 113 68 61 35 32 22 -5 -2 -6 -17 -22 -18 -13 -9 -21 -21 -29 -31 -37 -42 -44 -41 -34 -27 -22 -11 -5
253 241 211 108 137 87 110 158 134 161 188 104 99 126 40 35 81 103 129 134 82 94 105 83 59 38 23 12 -2 -3 -4 -16 -26 -37 -41 -37 -32 -36 -38 -42 -49 -46 -42 -33 -22 -14 -8 -2 4
259 274 189 133 111 58 103 171 158 181 220 142 138 129 88 -9 102 119 123 127 91 109 123 116 81 56 45 23 10 -2 -2 -7 -15 -28 -34 -37 -48 -47 -47 -47 -46 -39 -32 -28 -14 -8 6 7 11
218 261 183 136 50 50 64 139 46 116 62 307 195 148 181 48 216 119 135 128 109 105 133 102 88 76 55 37 8 18 -5 -4 -13 -18 -21 -30 -39 -52 -52 -44 -36 -18 -3 2 10 6 9 15 18
197 235 182 132 57 27 64 109 33 102 129 301 225 200 148 117 328 482 169 164 143 116 96 76 71 70 51 43 22 7 6 -9 -16 -21 -25 -28 -38 -38 -32 -24 -9 3 14 17 20 21 17 18 21
181 207 132 127 96 5 43 73 88 112 172 239 316 375 266 109 134 133 134 103 108 111 94 75 60 57 47 47 29 13 6 -11 -18 -21 -27 -32 -27 -22 -12 -6 2 10 17 21 21 21 18 21 15
136 180 100 81 36 122 29 65 119 97 158 187 189 255 173 99 234 143 74 119 70 115 151 167 151 107 56 49 40 28 19 13 7 -1 -12 -5 4 6 13 16 15 19 21 23 23 20 18 12 11
122 85 135 45 72 93 35 146 143 92 154 177 144 209 278 263 146 69 56 18 69 124 187 168 154 122 94 81 62 46 45 34 30 25 20 24 28 25 28 28 27 24 27 18 17 16 16 10 8
74 92 38 53 65 -129 205 181 151 198 213 133 141 174 130 100 147 107 -36 1 86 100 104 64 72 93 93 81 83 70 60 55 53 49 38 47 43 37 42 36 38 31 27 24 14 12 12 11 10
72 56 32 -30 -45 -19 102 226 303 262 269 103 132 134 248 256 240 219 151 80 78 48 99 128 -7 29 64 51 63 68 76 81 76 69 55 52 56 57 56 50 45 41 35 26 25 21 17 14 19
88 45 18 -49 -15 14 175 337 358 423 306 209 147 182 220 230 243 236 273 144 125 52 141 388 31 -28 42 52 41 44 54 65 85 70 69 67 64 57 60 63 55 48 44 31 31 29 33 31 33
31 37 -95 -84 -4 22 275 305 362 513 364 321 262 189 159 185 163 164 220 175 98 150 145 129 -108 10 45 47 60 36 25 51 67 66 73 66 76 76 80 79 67 62 50 49 50 48 40 33 32
56 -40 -67 -90 75 10 366 328 363 463 478 378 284 270 172 147 123 133 122 113 92 153 140 62 -109 -23 -29 72 54 46 59 33 37 61 64 50 67 91 92 97 87 79 71 57 58 55 51 41 35
12 -39 -12 -37 42 88 212 528 380 455 483 442 348 283 232 154 107 93 83 84 107 147 128 68 3 -65 -60 160 56 93 46 60 97 42 29 30 85 108 103 104 94 96 81 65 63 51 54 50 42
57 17 11 46 -15 -25 110 218 405 441 458 423 354 332 290 197 177 119 126 128 102 124 125 95 35 -68 7 -32 118 30 -66 -28 88 72 32 46 65 95 83 97 105 87 63 45 46 41 40 34 41
44 0 62 3 25 55 94 94 283 233 365 404 391 331 301 233 161 110 98 109 98 118 67 79 69 5 39 68 36 37 43 84 13 111 94 78 79 73 66 85 95 77 71 55 55 60 67 77 74
76 21 13 19 -43 -19 73 20 113 43 269 258 382 304 248 217 214 171 107 70 88 74 82 92 61 57 65 87 64 135 84 108 72 -14 75 92 82 81 109 101 80 69 75 81 91 94 84 68 82
76 93 31 -84 -31 -16 5 53 47 32 51 180 160 312 226 166 189 161 131 98 62 48 48 48 52 68 86 130 93 65 88 135 77 98 134 139 181 155 149 135 159 102 35 55 86 119 106 92 72
49 48 77 65 19 7 70 65 65 7 48 11 198 227 161 108 100 114 111 114 110 92 68 57 32 27 37 72 123 145 70 153 188 160 192 197 211 197 180 208 184 157 94 103 62 68 88 84 77
75 75 146 153 93 103 23 47 71 36 39 97 85 82 61 82 100 100 89 96 98 88 82 62 61 73 68 79 79 93 110 136 169 170 128 147 119 153 134 170 195 162 90 91 100 93 92 85 90
40 68 111 82 45 28 45 43 64 92 82 12 20 22 56 50 65 72 57 56 73 72 67 88 79 58 83 86 87 82 76 95 110 178 209 182 157 143 126 168 205 202 97 105 93 81 75 79 71
52 51 155 131 77 66 79 53 66 76 89 75 36 70 90 92 52 47 64 55 50 71 76 68 90 81 93 95 78 71 63 74 107 140 179 206 189 169 162 133 184 154 122 112 98 95 90 67 72
52 84 96 112 96 63 106 116 69 60 112 167 107 100 129 128 123 134 127 87 82 85 88 60 68 85 92 102 106 110 111 95 84 116 147 173 177 210 240 187 175 149 152 144 93 71 56 14 54
86 56 79 113 138 96 79 125 111 89 91 102 128 111 113 128 118 125 139 131 114 89 79 72 62 72 98 125 134 123 114 110 121 134 153 189 240 251 195 172 153 163 168 89 41 49 25 90 74
64 48 50 44 76 77 83 69 37 88 94 74 64 87 116 118 116 122 111 118 120 108 105 96 97 94 99 99 98 99 100 107 119 143 194 247 271 257 229 240 224 193 128 74 68 105 103 84 83
5 34 44 39 67 77 71 95 73 69 48 52 72 81 95 94 90 90 91 104 112 118 117 98 80 88 87 92 106 122 129 132 144 160 176 188 211 233 239 197 156 85 103 110 127 102 98 104 99

GFSSGP_con_3kmhel_093.txt.gz
Helicity
97 106 139 198 217 221 153 287 209 90 137 153 96 230 212 162 173 196 40 66 93 137 94 65 48 51 46 49 58 47 39 -9 -5 4 4 16 30 33 33 39 18 13 13 16 15 -3 -20 -28 -38
114 112 166 214 270 341 92 235 136 112 77 191 86 237 201 189 102 91 45 61 83 120 95 62 60 63 46 45 50 43 32 -30 -17 -7 10 33 32 35 39 19 6 2 12 5 -3 -18 -29 -33 -26
129 143 160 186 211 103 143 190 130 127 70 141 170 108 207 175 87 20 28 75 89 100 80 64 64 65 44 44 43 43 36 18 2 7 5 21 36 54 13 4 -5 -0 1 -9 -18 -28 -37 -33 -16
149 180 191 169 177 70 193 173 121 109 197 98 164 -4 71 24 89 47 5 102 120 92 70 73 69 56 48 50 39 38 42 39 32 39 23 49 51 10 -3 -3 -12 -16 -23 -25 -26 -25 -22 -14 -12
188 239 257 186 87 173 153 131 179 66 98 88 27 50 52 60 39 18 57 113 115 84 76 66 66 65 60 48 37 23 27 33 57 68 71 38 -1 -5 -6 -15 -28 -35 -34 -28 -26 -20 -11 -7 -10
263 278 301 239 73 62 125 131 141 191 94 70 92 22 52 -53 66 25 86 115 110 93 81 55 65 48 44 29 27 19 10 11 23 39 18 -2 -1 -5 -13 -25 -36 -35 -30 -25 -18 -9 -4 -0 1
263 263 204 198 107 110 124 80 135 155 96 80 126 87 87 -56 -22 31 97 114 118 98 93 81 71 39 49 39 42 25 -0 -2 2 -5 -12 7 1 -21 -22 -29 -34 -31 -26 -15 -4 -0 7 6 7
224 252 158 177 135 70 97 83 117 126 78 116 122 96 149 159 84 73 105 150 134 106 101 117 67 55 55 54 47 32 8 4 5 -6 18 -3 -21 -29 -26 -23 -30 -20 -7 2 15 14 18 18 13
173 237 200 106 122 121 72 44 68 159 94 89 153 99 92 320 225 176 106 197 155 126 112 91 64 70 72 58 68 35 12 12 22 17 9 9 -24 -30 -26 -17 -0 10 20 19 23 22 25 24 25
186 177 130 122 102 84 79 -20 72 133 194 67 94 138 193 316 245 172 12 357 184 137 130 96 64 74 75 68 55 58 1 8 7 1 -5 -13 -19 -26 -20 -7 6 22 29 31 31 31 28 21 16
172 113 126 98 97 96 86 39 19 102 179 80 70 129 213 197 281 162 70 289 163 122 157 115 110 108 90 75 60 54 43 25 4 5 -7 -13 -18 -17 -6 10 16 27 32 34 32 29 25 23 18
93 86 91 76 67 73 56 51 37 23 103 76 62 254 303 191 50 146 1 147 155 135 158 125 123 118 104 87 52 41 44 39 21 13 -1 -2 4 9 17 24 28 32 37 37 33 30 28 23 16
63 62 70 53 77 74 62 65 45 62 21 38 71 187 248 248 63 -46 20 -45 68 82 124 133 132 113 97 77 55 44 37 44 42 38 29 30 29 27 36 37 39 35 39 34 31 32 27 20 15
86 57 34 78 45 29 21 11 29 2 130 75 30 166 246 173 70 41 10 43 72 102 85 115 89 74 63 65 59 57 51 51 52 50 48 40 46 45 48 43 41 42 42 42 36 28 25 20 20
-11 22 40 41 23 32 -21 -20 16 57 98 62 39 132 212 154 103 15 -0 -139 101 225 71 80 31 16 49 65 65 65 67 60 57 54 51 49 50 50 51 49 47 49 51 45 43 33 29 28 27
1 107 22 -4 17 35 -23 2 92 92 87 86 97 115 165 125 48 -37 215 -11 32 67 -82 -27 12 -11 90 62 64 69 72 70 69 63 65 51 47 52 56 56 50 63 62 56 53 46 37 31 28
6 25 -10 -20 -61 -60 -216 -170 55 259 290 225 201 194 130 135 136 135 144 100 59 33 -31 12 5 69 -20 92 60 52 71 101 79 70 62 49 46 48 55 63 63 72 77 68 67 59 47 37 28
28 9 8 -45 -52 -59 -211 -118 156 346 374 337 300 273 173 78 126 137 177 165 130 41 44 59 105 125 73 90 106 91 70 81 79 92 38 26 42 44 57 67 71 88 93 94 74 58 45 43 32
18 -21 -56 -14 -21 -98 -69 -8 209 293 388 399 357 299 277 216 227 237 132 99 85 106 52 96 36 36 6 -78 98 116 121 120 77 81 51 54 40 27 65 89 86 102 92 75 61 60 37 37 43
17 -18 -17 -17 11 9 37 -73 137 387 346 394 398 422 284 249 139 88 98 52 70 29 72 119 78 47 -38 -9 -72 99 78 55 40 119 80 80 95 74 70 96 93 86 97 77 58 61 88 87 69
28 9 -2 7 54 78 -63 9 117 330 255 302 386 386 302 167 95 3 -49 73 135 105 71 94 74 60 17 -50 11 -110 80 76 43 -25 58 126 110 101 99 104 81 101 121 123 118 85 86 87 64
16 56 3 -80 107 117 -40 100 188 380 273 255 365 331 310 216 133 94 97 87 49 31 78 72 25 13 24 -7 -14 -17 64 3 7 56 19 85 116 97 108 135 155 153 130 144 91 71 70 76 66
31 50 28 -79 11 103 10 103 162 169 78 172 275 301 264 205 110 111 98 90 67 56 38 53 60 20 -27 1 48 176 99 110 123 58 15 50 42 69 137 140 146 168 128 141 87 79 102 130 56
44 81 118 92 86 60 3 50 144 122 126 123 156 250 279 252 161 123 125 138 112 93 77 56 35 35 55 48 69 120 141 112 174 118 156 188 128 123 85 150 150 155 113 131 230 141 104 61 32
29 70 95 102 110 26 29 53 105 152 92 68 131 101 100 176 41 95 118 114 110 75 81 88 83 83 66 60 76 88 96 104 131 124 187 250 247 214 197 211 124 128 142 177 141 170 122 103 111
27 105 110 74 108 74 16 64 106 89 38 75 123 131 123 52 105 144 149 116 104 88 109 108 112 99 95 86 77 85 84 92 90 109 156 181 197 145 189 217 234 170 176 169 172 136 120 119 135
122 103 127 103 159 119 64 51 65 115 182 100 160 145 134 144 146 131 131 123 115 105 97 86 100 91 93 108 99 94 93 75 74 90 127 155 177 174 173 183 208 202 161 167 204 168 150 114 86
60 108 116 91 92 122 122 86 44 113 113 90 101 126 133 150 139 123 111 116 129 137 116 104 88 73 68 91 115 115 123 133 131 132 139 163 200 205 204 217 227 232 241 216 183 153 124 77 66
39 84 95 78 90 46 58 100 53 33 21 47 74 70 78 96 106 107 121 139 128 125 128 103 96 80 81 85 95 97 112 122 112 118 126 161 209 253 268 291 278 265 222 180 166 135 83 93 97
17 34 53 85 98 99 83 85 47 2 8 35 77 95 106 111 116 122 111 90 100 111 125 124 113 111 104 94 96 111 118 120 117 111 116 141 194 243 261 246 246 226 185 143 110 68 83 122 116

GFSSGP_con_3kmhel_096.txt.gz
Helicity
84 62 83 112 247 417 367 231 180 177 138 111 234 294 355 266 218 193 55 47 61 100 109 95 66 57 44 45 53 55 19 13 26 31 16 23 42 52 42 39 23 16 15 19 17 12 -5 -16 -17
76 72 102 155 373 386 424 205 187 187 119 146 131 229 391 306 128 77 2 46 70 95 101 78 60 59 46 47 51 60 14 1 -5 -1 -2 21 41 43 40 29 19 14 16 15 1 -15 -20 -20 -18
81 96 167 319 390 335 321 166 207 145 176 139 129 211 254 431 162 86 -0 12 79 86 77 103 63 60 48 50 52 55 14 -21 -26 -21 14 29 45 45 34 16 15 15 18 -1 -3 -22 -16 -5 -3
113 143 208 372 387 285 180 83 109 93 188 118 71 164 169 48 119 106 -27 -10 59 81 79 112 75 60 53 59 63 62 61 -10 -10 15 25 49 56 39 18 16 24 9 -1 4 -10 -18 -12 -4 2
164 254 338 384 314 155 134 76 101 96 109 32 68 48 45 186 21 32 -0 16 63 56 83 75 71 65 60 71 75 71 82 66 46 66 56 53 59 29 24 18 18 -2 -3 1 -7 -3 -0 1 2
288 305 461 427 299 138 135 115 63 114 224 76 61 17 7 141 133 31 -5 24 56 67 67 73 74 68 71 69 73 77 79 86 65 71 83 57 32 31 25 19 -3 -11 -4 -7 -6 2 8 7 3
220 285 398 288 219 115 127 92 95 132 114 182 19 -6 45 51 30 36 39 31 66 76 68 76 59 67 74 63 60 67 81 92 90 79 62 38 37 27 29 3 -11 -15 -10 -6 3 3 9 12 13
241 262 314 258 238 159 84 92 64 102 103 82 -13 19 -35 51 70 18 116 63 95 85 94 74 70 58 57 60 68 60 73 89 89 76 59 50 40 22 14 4 -11 -15 -4 7 11 14 19 18 19
168 341 401 273 212 185 106 84 70 75 88 170 22 47 107 4 135 -24 -87 -47 153 118 92 72 77 64 61 68 80 65 54 71 71 75 56 36 12 -2 -3 -3 -7 1 6 15 19 28 30 32 27
240 322 248 152 106 120 104 84 60 60 75 89 204 44 24 -19 211 62 -300 -5 250 146 113 114 94 75 78 73 60 61 55 36 23 14 16 3 6 2 1 11 10 18 29 37 34 35 31 1 16
193 184 143 131 91 108 144 148 69 114 90 57 105 32 27 19 208 244 236 110 -40 182 155 164 77 71 79 88 83 74 68 66 59 39 21 21 15 11 12 11 11 16 16 21 21 24 17 20 19
97 67 79 70 78 126 119 133 151 89 108 89 116 190 40 50 118 115 94 123 378 417 117 155 89 96 88 91 93 73 65 76 66 42 23 17 14 8 10 17 24 27 26 32 29 30 25 22 17
76 50 58 25 37 99 117 123 127 99 87 85 80 158 71 67 190 178 92 5 134 72 173 109 79 93 102 90 88 86 75 45 56 38 27 19 15 16 31 38 37 39 39 39 38 34 29 24 20
72 55 35 36 43 79 80 99 76 71 56 85 89 115 118 35 94 175 100 67 40 22 63 128 63 85 85 90 82 75 64 48 43 45 37 36 43 44 47 51 49 45 44 48 42 39 31 26 22
39 14 28 27 22 89 54 95 66 52 44 72 102 88 107 73 112 -13 -75 -68 -46 -97 61 145 95 70 55 54 63 81 79 56 41 42 41 44 50 55 56 55 50 50 52 50 47 47 37 34 31
7 28 -25 -42 13 61 70 61 24 29 10 51 88 15 60 38 60 16 -63 4 -26 40 113 131 61 68 44 49 43 62 66 72 68 60 54 46 52 59 59 54 49 53 56 58 58 57 46 42 39
43 -1 31 7 -22 30 31 54 19 68 -4 101 86 51 31 102 23 127 49 89 117 111 112 52 82 76 48 27 30 44 56 65 68 68 67 62 63 62 58 57 51 55 59 57 67 69 55 53 46
-13 -26 -2 -3 -12 15 14 19 16 74 24 189 59 34 54 58 -21 58 70 66 118 13 35 -9 -56 6 23 55 70 82 73 76 73 77 69 61 68 66 58 70 58 73 78 75 82 76 74 68 59
108 51 20 30 -10 -15 8 -10 27 14 162 273 26 -0 67 131 64 91 153 64 55 41 -26 -46 58 52 53 64 97 118 106 103 94 66 61 60 68 63 72 77 75 88 91 80 89 111 92 71 62
63 37 -5 3 -11 -3 -59 2 53 6 104 249 17 93 163 172 106 383 214 192 185 67 -22 27 36 16 56 76 97 123 167 137 97 75 59 61 64 68 83 86 97 100 117 130 135 134 109 100 98
44 8 11 24 -15 18 -12 -76 -52 -19 54 310 104 174 178 207 231 195 227 114 157 108 72 -20 -47 -18 42 43 75 71 149 223 146 104 96 79 104 104 87 87 113 119 149 196 224 211 183 161 128
31 10 21 5 95 1 48 88 47 185 148 115 213 220 258 190 118 29 85 20 64 48 34 -3 -2 -10 32 55 -0 2 65 126 109 51 42 102 82 75 63 78 86 113 185 164 195 178 169 160 166
41 12 18 55 169 33 17 25 171 150 360 250 213 248 332 246 138 35 -177 -76 13 7 22 -13 -27 3 22 52 -0 -4 -7 99 142 103 157 164 29 71 68 156 145 182 187 219 262 214 96 152 149
89 29 -10 22 41 35 50 89 128 361 327 240 243 252 313 307 136 65 -8 -17 21 22 38 42 15 5 -23 -29 76 46 2 -10 -50 33 41 82 118 128 45 52 101 188 124 73 101 142 128 151 218
68 45 65 101 54 84 36 125 149 342 228 171 253 164 222 129 143 124 10 39 57 71 57 50 53 56 48 15 13 35 92 59 57 87 106 203 201 211 169 149 94 142 156 110 143 146 125 112 88
25 74 138 66 29 52 58 89 116 92 52 75 118 170 156 155 133 165 94 63 51 76 77 54 57 66 55 45 43 47 46 58 58 93 117 155 152 165 192 195 179 152 131 183 132 116 119 142 131
80 112 103 107 92 23 49 61 47 8 28 88 229 203 206 182 161 104 22 101 104 113 112 87 64 73 91 85 92 81 72 66 63 62 71 108 122 145 182 142 149 166 167 163 172 145 147 149 141
148 122 120 128 112 49 34 55 70 85 81 94 169 159 135 94 63 73 109 132 140 138 127 116 100 90 110 114 116 121 124 122 110 96 96 106 125 154 203 183 159 186 194 200 202 185 153 138 126
158 123 100 82 93 72 45 30 56 67 47 32 37 42 41 67 108 112 117 123 124 128 135 126 104 87 87 92 101 113 120 126 129 127 122 117 140 170 201 200 217 219 225 217 192 149 143 143 143
137 150 108 80 62 64 61 36 27 17 33 52 65 53 70 86 104 115 112 104 111 113 106 102 91 84 84 76 75 87 106 111 104 102 102 112 127 152 205 245 266 267 254 215 169 146 143 134 119

GFSSGP_con_3kmhel_099.txt.gz
Helicity
88 40 71 99 176 249 157 158 57 73 16 44 66 169 175 197 134 193 86 51 122 179 121 99 106 71 48 36 38 35 30 43 65 55 48 38 46 44 45 41 48 33 29 39 31 28 18 7 -4
94 82 88 123 209 185 185 96 91 57 28 47 134 215 196 145 202 151 42 -12 161 143 102 99 116 75 49 49 44 34 22 34 44 49 37 38 44 45 50 44 38 26 33 40 37 13 2 -2 -3
57 54 129 215 202 109 151 70 48 21 49 15 108 85 184 207 234 240 122 -27 91 100 65 101 108 73 59 53 52 36 16 24 24 35 32 39 55 46 46 36 24 40 49 20 19 12 12 2 4
72 118 188 207 175 108 70 58 17 36 40 9 92 107 159 273 156 166 107 -32 30 80 55 126 98 74 72 66 61 36 16 10 17 22 22 55 46 39 43 29 58 46 35 26 7 8 5 7 7
103 168 187 190 147 111 103 33 25 35 64 30 63 73 119 87 138 132 73 -33 -10 91 122 83 81 75 79 78 69 50 23 2 -1 22 58 66 65 47 46 49 42 38 38 15 -1 5 4 6 6
179 214 184 167 117 111 85 50 22 34 32 46 33 96 63 81 33 131 14 -1 11 75 113 87 81 75 82 88 81 81 71 32 40 60 68 72 85 54 40 40 28 24 37 11 9 6 7 7 8
136 143 138 113 120 140 86 33 38 46 22 84 -1 55 80 92 21 117 105 76 76 85 79 99 89 69 93 97 100 78 118 115 121 95 74 84 89 52 50 36 13 14 24 7 11 13 16 14 11
141 151 106 143 173 160 90 38 32 27 63 -0 31 47 60 88 12 134 227 110 109 232 94 98 90 67 64 78 110 105 116 125 134 103 117 107 87 61 38 21 10 8 15 18 12 17 20 22 20
117 201 182 171 165 157 87 105 22 37 46 19 32 25 99 115 81 94 273 -92 -224 -406 60 75 102 68 64 69 106 134 106 112 115 118 107 80 58 59 34 25 17 28 29 22 18 23 24 26 24
166 198 145 133 147 137 65 55 46 31 62 58 42 53 45 41 -23 10 162 -22 -148 -242 -43 369 104 83 65 95 94 100 112 85 71 61 41 26 44 33 8 32 35 35 34 29 24 25 21 1 18
67 117 77 66 69 100 141 84 45 69 45 47 45 64 129 69 4 36 95 -78 -216 -524 -83 222 58 73 148 125 105 114 114 96 76 40 27 54 58 56 24 24 17 20 16 17 21 22 10 8 21
89 80 47 30 41 90 71 87 97 83 65 51 27 35 135 -1 29 18 99 44 -84 -209 -68 -35 8 75 183 125 102 101 103 92 71 34 42 65 65 37 25 16 18 19 22 13 15 20 23 25 19
100 49 51 32 48 58 92 93 95 93 85 76 69 103 71 53 31 71 51 19 5 -291 -161 130 44 117 166 110 101 116 114 107 103 114 90 73 57 47 38 34 32 36 38 40 36 30 27 20 17
47 65 67 48 52 61 69 68 98 76 105 49 135 99 64 75 13 82 37 47 -13 -86 200 301 121 155 157 82 92 114 124 120 105 109 95 70 60 57 51 44 50 49 45 42 38 32 30 30 22
-20 -7 5 24 58 63 68 69 82 54 55 95 40 95 107 31 -41 13 72 70 59 57 279 178 155 122 99 108 118 85 79 112 122 102 72 65 59 55 58 62 61 58 53 40 45 37 40 40 37
-28 12 -10 7 34 27 39 5 21 40 40 67 67 87 72 60 -26 18 -10 70 83 174 219 -8 68 64 88 77 102 114 114 96 87 81 79 58 59 56 70 71 62 49 48 47 47 45 47 44 41
18 10 31 -15 -40 27 57 -2 57 -6 52 58 42 82 48 77 20 29 11 -47 79 163 156 176 130 68 117 62 69 68 86 112 106 95 85 77 66 72 78 74 66 62 62 62 49 54 59 60 56
22 12 -35 2 29 55 29 3 25 40 51 54 14 55 40 69 33 116 -14 -0 35 80 57 79 196 112 106 79 72 83 80 81 90 102 98 79 90 81 83 90 86 69 76 78 65 55 73 81 81
-36 -32 -25 -3 -41 68 -3 18 31 -8 6 37 -67 136 52 85 84 79 45 -32 31 87 112 34 114 -28 45 99 60 70 75 92 96 100 80 87 84 82 78 94 78 83 72 81 74 82 104 127 121
-41 -46 -2 -1 -7 5 -10 29 22 -2 48 13 16 91 129 20 88 138 -3 -44 73 111 110 19 32 153 56 76 33 65 83 74 71 95 102 109 101 96 92 96 115 107 107 91 90 117 143 142 127
36 34 67 -0 14 28 11 12 3 -0 29 34 86 80 92 14 120 70 20 151 108 154 77 87 123 42 151 103 69 80 90 115 133 121 141 113 104 127 112 117 116 105 123 108 148 179 163 194 207
51 56 20 54 36 -22 -33 -44 18 -23 69 56 52 89 108 91 128 76 189 207 271 198 96 94 85 111 113 72 85 76 101 85 104 174 165 155 121 97 108 107 104 101 132 186 263 316 311 267 245
30 18 23 140 113 13 26 -30 26 132 90 87 46 61 152 177 97 119 113 125 182 156 88 107 64 21 27 23 44 53 107 116 157 114 129 134 120 117 111 88 69 128 181 191 241 198 399 219 221
70 42 118 123 85 -6 58 30 206 252 297 112 152 126 158 104 40 -17 -43 -57 -21 88 64 -24 -91 -61 -2 1 10 43 27 57 80 114 121 156 134 113 105 160 89 71 237 193 160 106 91 34 118
60 35 79 82 110 49 102 175 212 152 211 201 163 125 134 122 108 68 -69 -79 -43 -49 -48 -13 -16 3 -5 2 25 48 139 130 33 -17 -1 92 94 154 129 151 154 175 110 62 119 85 109 100 94
37 40 69 123 81 129 108 160 213 182 52 180 227 169 135 195 186 88 43 -4 3 18 2 -11 -4 13 22 32 23 54 94 133 131 90 42 7 65 108 79 81 103 158 123 76 89 106 90 126 94
26 43 46 20 -9 112 173 207 221 141 138 194 199 313 169 109 64 55 35 24 25 16 39 30 26 27 48 48 56 46 37 39 49 64 43 95 135 140 170 146 194 228 213 139 122 154 120 105 100
103 102 82 41 92 105 136 131 141 92 137 168 324 154 171 139 110 74 76 9 24 49 76 88 87 79 79 96 111 103 85 86 80 80 81 110 122 151 184 191 220 211 174 142 161 153 132 135 137
128 112 116 72 51 49 34 92 76 56 112 153 99 108 159 115 55 62 45 42 62 81 91 97 98 110 99 90 82 86 93 100 103 108 108 103 129 171 187 219 220 190 185 193 215 209 180 179 159
150 91 74 59 70 30 14 22 18 -8 -22 -7 30 20 25 39 38 52 73 79 95 92 98 109 102 98 94 85 83 85 81 90 98 107 111 111 112 130 146 195 222 213 210 221 231 231 198 177 157

GFSSGP_con_3kmhel_102.txt.gz
Helicity
67 87 71 156 200 211 142 129 83 23 16 7 10 49 159 141 156 133 33 114 129 133 105 142 109 79 56 52 54 48 48 53 64 47 40 30 46 46 34 30 46 37 56 59 55 44 31 22 12
110 112 125 167 255 247 91 83 50 42 28 26 56 233 213 232 8 45 149 57 60 156 97 162 84 87 59 55 53 53 43 56 60 49 43 42 53 51 53 58 49 50 56 56 41 29 18 9 3
53 90 165 218 259 198 118 80 61 5 19 38 55 136 186 244 194 110 97 62 70 128 92 154 101 88 63 60 54 54 45 55 54 51 46 54 62 52 57 62 47 56 72 42 26 21 13 10 8
98 118 196 262 202 88 40 48 16 9 18 14 39 140 238 248 208 131 25 -61 47 47 101 142 119 82 72 60 54 47 50 44 46 49 45 51 67 59 59 55 62 85 56 37 28 24 15 16 14
107 215 204 200 161 99 92 68 62 71 70 49 83 138 153 131 189 178 95 -2 12 66 157 139 110 75 79 65 54 42 51 44 33 46 32 54 70 63 56 72 59 67 54 31 19 19 18 18 15
212 212 239 185 134 100 73 44 80 105 52 36 91 74 120 185 180 224 153 10 6 101 145 137 91 97 81 69 61 40 47 51 45 27 37 65 61 60 66 57 51 66 40 18 17 15 15 16 14
168 164 158 139 135 110 67 13 63 89 123 75 4 100 69 300 225 277 172 110 233 294 156 154 140 116 85 81 72 33 58 51 34 43 95 95 82 60 61 52 51 53 37 23 20 13 11 13 13
145 160 154 144 146 94 101 113 62 91 64 15 31 72 79 146 181 285 339 238 282 317 385 524 337 117 106 111 88 59 109 97 79 96 134 120 102 72 74 51 50 42 43 32 24 20 19 16 15
134 210 175 138 109 81 109 154 139 59 113 60 18 19 59 119 172 267 202 263 236 265 254 283 348 397 68 96 139 94 163 182 182 167 138 129 116 96 78 73 52 37 41 34 26 22 20 16 15
161 173 130 100 108 132 156 165 148 180 183 112 70 47 74 50 133 127 132 115 194 125 155 24 26 307 205 71 148 125 155 210 206 179 135 151 103 110 89 87 56 47 57 41 24 21 14 8 8
60 98 101 114 161 184 178 188 195 221 207 135 81 81 68 45 115 46 159 163 120 80 61 -104 -243 -24 37 184 147 164 148 167 158 136 76 48 83 104 133 98 69 64 44 29 29 22 7 -5 12
58 55 59 62 87 126 139 166 245 218 216 123 22 33 112 86 187 105 104 114 83 91 -9 -146 -300 -4 187 120 157 217 120 139 128 61 9 92 160 127 103 88 45 29 16 12 18 20 3 9 16
78 49 58 59 57 67 78 105 129 179 159 86 143 57 119 58 283 136 128 108 92 45 -4 -47 140 -27 154 87 201 228 177 121 122 75 79 132 133 97 71 42 22 27 22 -3 20 29 31 40 17
73 84 73 42 19 63 66 70 86 85 70 126 181 87 76 83 118 128 99 95 110 81 12 -101 -164 -62 87 68 242 181 190 191 165 101 154 172 97 87 91 57 41 44 57 64 57 34 28 25 27
22 -7 -53 -71 -0 1 45 43 98 91 33 74 122 113 78 212 34 122 98 68 97 94 78 1 115 23 67 182 167 192 201 204 239 245 252 179 132 146 129 101 81 77 73 59 57 40 45 33 38
15 -15 52 41 -7 7 60 45 69 68 72 36 106 125 80 143 -1 94 28 25 56 117 93 163 136 250 230 86 69 94 198 256 209 200 192 150 123 116 108 101 89 88 83 61 64 52 62 62 52
-5 37 24 45 -1 21 95 66 53 26 21 51 72 98 -11 75 76 33 26 107 133 105 105 67 125 213 181 127 68 127 119 152 171 144 142 134 123 116 116 107 87 77 75 66 59 51 73 60 62
-52 -0 -25 4 34 37 5 81 58 32 -83 -109 53 83 59 104 99 11 11 103 124 76 90 68 105 167 131 190 138 77 79 112 114 124 136 117 126 126 116 109 94 95 99 88 73 64 68 53 64
-0 -30 -32 -43 11 53 -20 14 28 26 40 -20 62 14 132 12 40 -0 32 111 32 3 43 118 177 109 174 159 115 120 113 104 109 123 109 99 124 116 116 132 122 107 92 67 66 73 67 71 149
-47 -48 -39 -34 -8 87 4 45 22 4 86 25 39 13 28 61 40 74 52 91 62 -0 22 115 187 124 150 176 78 71 112 120 121 118 121 107 106 107 109 118 124 129 115 91 85 84 85 102 134
-20 -27 25 -30 -23 21 24 34 36 26 79 48 33 25 16 44 18 146 145 7 25 1 68 59 95 140 182 200 129 116 109 83 121 128 136 130 107 121 127 122 132 141 140 154 138 141 155 141 166
-44 8 6 37 -59 -15 55 -16 19 -0 11 26 20 19 44 66 108 124 90 70 12 165 220 124 128 177 166 68 124 169 79 115 103 102 130 145 142 136 117 122 114 128 124 135 162 215 227 214 263
36 -16 48 83 43 63 16 -13 -73 24 -7 5 83 91 40 120 15 73 110 131 225 295 226 196 182 121 81 97 134 146 136 148 88 130 141 179 181 140 126 105 97 93 118 144 182 245 336 334 267
-3 5 17 24 43 76 20 7 18 86 90 119 36 64 87 157 66 71 59 6 356 273 190 106 175 205 146 119 112 69 153 136 151 104 115 117 137 174 200 109 103 114 112 103 141 109 273 291 189
29 35 110 143 75 49 27 51 129 215 202 94 81 136 164 109 131 -7 -25 47 148 206 160 100 77 48 54 50 49 60 28 30 49 116 117 53 33 158 229 139 151 126 137 148 45 55 148 46 1
6 52 85 115 118 165 147 148 193 232 202 112 127 170 132 124 -6 -100 -83 -75 -74 8 49 44 63 30 31 16 37 27 113 113 102 48 75 35 105 4 68 119 99 115 75 146 108 180 97 4 32
37 71 40 130 234 314 198 199 130 137 232 197 138 134 196 113 37 26 33 23 4 -9 9 3 -5 -8 -20 -18 -12 -11 26 42 38 53 47 68 20 32 111 119 169 128 125 142 133 124 92 102 90
59 62 66 143 205 171 226 408 94 163 152 159 146 125 70 64 89 75 79 48 46 24 22 32 59 63 66 70 78 87 87 74 58 73 72 88 76 93 138 140 130 148 179 201 199 167 149 141 117
70 60 93 168 191 159 168 227 139 109 128 111 119 81 96 68 43 36 48 28 17 43 58 57 73 82 99 105 85 95 106 111 101 91 83 96 99 91 99 131 162 181 205 220 218 210 146 166 162
111 101 72 78 66 56 60 131 100 145 141 72 111 106 120 93 46 18 20 27 33 45 53 63 59 66 73 70 66 66 68 74 87 100 112 95 102 109 109 121 143 152 173 192 197 215 204 188 191

GFSSGP_con_3kmhel_105.txt.gz
Helicity
84 110 176 207 230 257 156 92 98 56 42 62 15 -5 12 48 64 70 139 107 130 118 87 92 121 148 110 86 83 75 67 70 56 52 34 23 44 41 28 49 73 72 70 67 59 51 45 31 16
108 142 179 226 290 316 84 93 86 33 -28 16 57 62 65 109 144 147 142 54 81 111 119 122 130 135 122 90 68 68 60 75 67 52 43 32 46 43 40 42 71 72 67 59 49 37 25 15 -2
131 162 225 244 290 251 94 68 56 122 64 -30 22 72 96 204 191 165 97 84 115 106 103 92 154 126 106 90 69 58 59 82 78 58 53 47 51 54 52 66 93 89 72 51 40 26 17 10 0
155 196 210 270 240 125 67 97 64 47 20 45 -18 67 102 137 183 154 79 91 74 56 70 60 135 131 103 91 73 63 56 67 79 70 52 46 63 65 72 95 112 93 67 48 39 25 17 17 13
193 246 233 227 182 95 100 90 159 137 53 45 59 101 85 148 52 0 21 16 24 37 94 76 93 127 102 82 66 60 60 56 70 67 60 50 66 74 83 113 97 84 69 52 34 25 21 18 11
249 259 231 199 167 136 95 46 69 96 116 54 75 96 86 148 189 115 111 132 69 69 114 86 93 99 87 70 64 57 55 56 43 48 61 63 88 85 64 82 93 82 63 44 30 24 23 21 10
199 236 210 188 166 140 104 92 113 103 -10 43 4 162 118 112 260 315 367 324 304 317 314 286 207 111 93 82 70 61 46 58 47 43 59 80 81 80 87 75 76 90 51 39 30 21 19 17 8
206 202 169 166 142 95 82 48 82 120 121 -36 -48 106 138 89 254 354 334 352 422 340 363 373 348 296 259 124 71 65 47 77 60 60 62 85 84 81 85 54 71 88 67 56 34 17 14 13 8
222 214 193 172 111 132 90 101 -43 -33 59 41 -61 66 2 -14 143 282 350 328 368 331 304 332 409 370 289 256 140 98 74 81 88 112 113 117 119 90 93 73 89 94 70 51 28 21 19 14 9
200 207 156 145 155 143 148 173 143 36 90 112 55 68 34 63 65 93 167 205 225 246 226 274 359 426 355 278 259 126 131 153 162 167 156 172 149 121 96 99 97 78 72 43 22 16 15 12 7
151 189 179 134 117 135 131 146 114 151 94 147 169 36 94 4 66 93 120 147 141 227 141 163 208 107 139 333 231 124 93 208 227 217 220 198 179 173 151 151 133 108 83 48 26 15 8 6 11
115 98 78 88 92 106 108 87 91 133 122 118 150 44 49 50 71 147 143 134 118 187 164 125 111 145 76 -104 125 59 60 187 259 245 205 186 204 163 131 134 127 107 76 43 22 12 3 8 11
75 77 93 69 62 67 75 93 84 76 47 82 95 148 82 110 134 178 148 179 123 135 158 124 101 94 40 -48 86 105 58 131 253 282 213 173 205 161 154 123 101 65 50 29 12 10 10 10 14
79 77 31 11 5 55 76 97 139 131 113 38 43 84 90 113 128 145 188 145 117 128 151 120 86 52 46 -11 198 152 67 125 194 153 169 149 132 145 124 124 86 47 27 9 20 17 21 14 31
27 71 32 69 52 44 42 88 11 38 69 88 32 -57 107 42 113 134 180 201 88 121 160 126 102 36 -6 8 337 103 117 164 149 101 73 109 130 106 113 109 78 29 37 37 30 23 41 40 30
51 75 131 55 38 38 39 175 194 71 75 103 89 12 -6 73 120 140 162 99 147 86 127 133 86 105 55 164 213 172 168 175 153 157 121 169 115 132 145 120 88 84 88 76 72 65 47 45 47
52 104 63 67 27 25 59 112 125 58 116 88 85 94 43 41 139 118 94 99 130 96 139 120 94 166 176 124 421 185 72 238 219 257 282 236 195 170 180 148 135 122 108 92 78 66 70 62 54
76 63 25 70 49 10 -22 125 169 97 96 45 61 45 62 117 113 122 73 127 158 139 84 83 102 98 148 71 160 63 89 257 288 255 278 245 202 173 178 154 141 126 113 88 90 80 70 74 56
56 46 -5 11 86 -36 35 69 37 29 56 84 53 19 121 105 78 84 127 130 141 55 81 97 72 64 108 206 306 233 62 108 168 176 209 186 166 156 161 148 127 112 102 89 80 87 82 74 94
20 37 45 15 27 36 14 21 7 38 103 64 -35 -120 1 56 114 54 86 83 62 63 56 103 124 71 135 203 169 248 133 155 129 101 110 160 135 137 137 126 116 105 113 104 97 102 111 98 123
4 28 37 24 7 55 41 8 34 24 35 11 -6 -12 31 55 45 52 66 16 47 1 -72 -31 92 146 101 162 154 172 50 92 90 90 109 105 112 109 103 114 126 120 126 125 114 99 96 130 164
-13 19 24 -20 19 -1 9 0 23 25 -27 -11 -29 54 61 38 34 75 100 57 62 -19 38 57 143 198 166 152 190 222 126 120 137 85 100 149 143 127 121 122 136 135 139 119 110 115 134 174 196
46 -23 -12 33 31 -6 75 51 45 -70 -20 -13 -17 9 -4 11 32 37 49 23 45 49 0 37 97 135 146 150 166 242 162 148 167 118 130 118 140 146 149 129 123 124 123 106 82 147 184 234 243
2 -9 9 3 18 61 35 65 7 22 -4 16 -16 -3 38 38 71 30 13 41 31 184 140 263 263 225 247 139 144 127 166 133 149 179 180 186 179 171 126 144 157 140 104 123 128 120 143 214 248
-11 11 79 119 53 -3 -3 12 55 102 87 47 15 39 49 81 37 -21 110 167 149 302 286 288 245 224 272 132 89 152 149 140 95 87 50 79 86 105 73 90 111 159 192 146 183 150 184 169 165
3 37 123 131 66 24 54 49 57 232 16 50 -21 77 206 143 177 103 18 131 402 281 177 315 288 175 151 83 50 12 22 65 97 48 50 36 88 87 60 131 140 138 124 113 140 190 193 217 266
17 84 50 106 116 230 241 182 235 230 172 267 139 125 23 64 80 55 6 -27 152 261 140 152 73 30 -5 -30 94 65 -14 -24 -37 -63 -11 -25 -8 63 61 110 -6 -19 120 109 109 123 105 118 37
80 14 189 208 165 175 335 286 157 279 155 133 114 79 62 86 66 77 67 32 2 11 16 31 27 21 18 7 1 6 18 -1 -5 5 9 23 40 56 47 33 32 29 93 150 124 128 123 86 61
62 101 218 249 210 149 116 244 237 155 155 94 98 89 51 146 55 72 63 70 40 41 49 58 66 63 67 59 49 48 56 60 64 57 32 39 46 49 60 65 68 101 131 141 170 155 190 152 105
124 156 126 98 108 138 219 170 145 70 127 62 112 93 78 75 62 44 93 45 54 61 56 48 45 49 47 37 40 45 52 61 66 66 63 54 52 53 59 75 92 101 105 133 155 200 193 188 156

GFSSGP_con_3kmhel_108.txt.gz
Helicity
95 128 129 208 206 254 154 105 146 125 101 72 102 47 85 64 87 10 87 -26 92 92 49 67 71 95 104 108 106 114 85 80 67 60 47 36 52 53 49 55 74 92 81 78 70 53 52 45 44
140 158 176 212 237 287 110 109 116 70 46 39 65 58 55 44 69 69 110 56 91 83 65 76 100 104 111 102 91 95 87 77 73 57 52 36 61 59 52 77 90 82 76 79 68 44 33 23 19
167 169 201 177 188 238 93 50 17 85 83 50 74 64 85 38 89 63 91 58 107 98 78 81 121 119 105 97 82 71 83 85 72 58 60 47 53 62 62 85 97 84 82 75 59 39 15 6 8
184 210 239 199 153 99 94 40 152 145 106 55 69 163 111 85 31 39 75 120 151 117 80 71 92 106 104 94 70 61 63 72 77 66 55 52 49 67 83 105 103 89 81 70 57 37 16 3 11
209 215 210 190 176 146 111 78 83 121 148 173 120 164 198 84 56 90 104 91 76 67 57 47 59 87 101 82 75 62 53 73 77 79 54 54 48 91 117 137 112 83 75 65 61 44 29 17 16
204 207 203 201 196 146 74 44 52 106 118 54 127 143 149 86 109 130 114 72 87 64 40 27 74 92 91 85 71 62 56 64 58 86 59 66 52 93 120 132 116 85 75 62 57 48 33 19 16
177 221 189 166 148 118 83 79 95 90 87 33 20 164 124 101 122 160 192 188 201 187 158 151 151 177 136 92 96 61 60 46 56 74 58 79 66 96 120 125 104 91 76 64 48 44 31 19 10
196 190 174 150 143 113 83 106 95 105 56 -7 -5 182 245 220 121 192 252 256 281 296 303 293 359 302 253 252 179 107 58 43 69 63 64 110 88 87 90 118 104 98 77 63 45 35 23 14 9
211 213 179 190 135 157 132 161 57 88 52 69 36 72 73 149 123 163 179 214 269 263 279 313 388 340 303 255 260 226 111 58 74 92 91 122 110 99 132 117 120 111 83 62 47 30 21 13 10
189 203 157 135 152 140 119 108 78 8 11 -53 8 122 155 247 242 166 152 145 179 232 274 309 370 329 298 312 281 275 197 113 115 117 126 141 145 144 131 98 104 126 104 81 47 34 26 22 15
171 197 145 146 124 126 85 96 79 64 19 -26 -59 104 87 124 213 243 152 104 122 176 185 207 277 299 256 217 255 263 253 136 117 150 165 202 208 170 141 137 107 142 109 88 58 42 28 15 18
175 139 104 108 86 80 62 56 55 73 69 16 -1 -24 14 126 172 246 226 125 111 164 150 191 215 209 180 136 139 175 187 136 85 173 214 258 253 210 168 151 146 143 114 82 57 42 23 10 8
108 93 84 56 72 65 64 61 52 48 76 43 21 34 -38 49 156 226 228 172 139 117 122 111 136 154 167 139 113 89 155 65 2 180 235 271 243 239 183 144 144 135 96 83 56 39 22 13 11
101 83 45 37 50 91 50 84 143 76 90 90 102 46 -24 -55 82 179 241 220 176 134 126 147 135 124 155 151 123 115 145 82 68 155 266 243 243 218 209 163 142 94 102 85 60 40 27 17 26
65 86 78 92 80 62 90 74 56 169 153 214 167 129 58 -28 -2 139 191 194 162 175 153 144 150 135 116 125 144 147 161 175 78 120 271 250 228 190 221 162 119 88 89 72 62 41 38 26 39
92 109 130 107 88 60 59 31 82 34 47 102 140 161 162 13 -7 110 178 170 154 158 170 154 154 124 91 128 119 124 160 148 96 195 211 258 187 177 233 147 111 126 85 63 67 59 45 41 45
110 106 106 90 55 62 20 17 39 109 127 86 94 86 138 151 30 110 161 154 153 136 116 140 109 136 103 91 79 128 180 262 171 107 100 108 167 241 148 106 113 122 78 74 83 77 80 72 56
101 82 76 50 24 82 -15 45 68 100 76 54 64 72 85 110 129 117 175 155 108 124 118 140 104 172 150 127 168 187 229 281 259 224 202 87 60 69 125 133 118 107 100 103 112 108 90 82 71
79 67 14 37 101 33 27 38 97 74 -18 -21 36 96 83 47 121 180 186 146 139 136 142 115 131 141 179 161 198 168 249 262 196 406 172 123 166 163 143 161 137 125 123 129 119 113 87 77 90
65 18 55 104 80 -31 22 12 101 45 53 60 39 44 50 66 114 129 173 145 136 93 101 127 131 157 153 156 103 84 40 144 245 367 312 226 226 182 185 174 159 153 150 132 114 126 133 103 118
26 31 69 71 75 7 -19 -34 29 20 65 31 61 32 -28 16 89 100 106 101 122 131 131 123 122 125 125 117 124 162 195 155 184 237 185 118 149 179 190 170 160 151 148 127 122 122 121 137 125
30 10 22 30 -1 -31 49 -37 44 42 55 29 -11 17 -24 -1 41 49 65 92 99 125 122 94 69 129 139 132 116 165 253 192 169 205 143 156 111 137 149 136 139 138 140 132 121 124 142 159 149
36 -5 -21 -16 15 -2 75 93 82 67 34 8 -10 -29 -19 8 40 44 63 49 82 29 48 80 117 57 97 129 92 117 123 158 197 217 189 132 102 98 102 131 157 166 172 159 143 139 126 129 126
23 3 34 20 35 51 18 100 65 -3 -30 -11 -55 -18 36 54 -3 1 38 49 38 13 74 109 80 110 191 168 132 212 126 144 135 157 142 129 121 80 75 110 108 133 119 124 126 129 123 151 124
-12 7 106 53 59 73 -4 80 37 29 80 41 31 -6 5 6 -7 24 28 66 29 22 31 127 177 146 159 203 110 119 126 197 132 125 86 116 112 114 132 141 167 176 105 111 125 125 158 202 177
10 24 91 69 29 59 -9 34 35 230 -41 -51 -49 -72 27 95 116 118 171 183 336 340 439 357 338 471 258 113 129 157 155 50 49 41 38 59 95 77 104 66 88 94 97 131 164 207 200 219 206
1 74 54 58 45 67 84 69 109 286 136 29 19 141 175 191 122 244 399 289 396 445 396 256 212 246 147 100 100 77 142 69 111 74 58 23 -31 32 88 64 83 86 110 104 144 196 154 165 202
51 60 80 91 78 65 80 102 107 191 96 77 104 140 118 125 111 70 127 170 181 172 158 173 122 18 25 96 141 88 -5 -35 -17 -40 -64 -38 18 39 30 32 22 46 55 49 62 73 105 113 124
78 121 143 138 107 66 121 123 141 64 105 112 73 108 92 74 125 61 35 35 24 18 19 23 36 26 1 -6 18 39 45 43 42 29 21 12 14 28 31 41 37 44 14 5 14 39 82 103 75
129 232 198 99 116 175 152 123 102 96 112 105 92 91 53 32 125 77 34 20 44 63 70 69 76 73 70 69 64 65 67 63 60 72 51 5 8 56 58 59 61 54 62 82 71 66 101 109 100

GFSSGP_con_3kmhel_111.txt.gz
Helicity
116 115 118 188 161 191 131 110 136 61 88 148 58 107 90 81 84 115 21 4 74 109 72 74 58 79 72 83 88 93 100 96 93 71 64 69 66 52 50 41 53 70 84 90 93 82 69 51 37
110 128 187 186 187 188 104 78 97 -8 153 124 99 106 103 49 7 40 80 36 62 73 85 80 63 91 93 84 89 84 83 72 78 68 60 59 52 57 56 76 95 83 89 78 83 69 64 39 15
107 146 175 132 182 179 93 58 29 137 136 104 122 115 110 98 51 47 50 109 87 73 77 82 103 95 96 83 75 81 73 66 74 58 59 55 57 65 76 96 111 104 88 69 72 56 46 31 14
134 185 211 168 124 82 83 55 111 120 157 208 179 214 144 106 112 85 45 125 130 107 82 80 93 99 88 79 75 63 60 62 66 58 52 59 52 76 87 117 144 109 91 65 58 40 31 30 19
174 184 197 164 135 124 87 55 64 89 131 167 174 213 219 180 82 59 86 89 100 103 79 79 67 67 84 77 60 60 59 56 59 63 57 53 40 88 107 125 122 104 83 66 56 41 30 34 33
188 168 166 132 144 122 81 60 54 71 99 174 175 209 204 110 237 142 91 107 94 108 67 51 52 66 69 85 77 60 58 54 64 56 58 55 56 84 128 119 97 92 88 71 61 49 39 34 39
151 169 127 126 94 97 77 68 92 70 87 144 143 200 184 217 243 153 96 115 109 129 123 96 75 87 123 106 100 84 65 69 66 54 53 60 86 88 124 103 88 88 96 79 62 52 46 36 39
151 143 137 115 109 76 93 112 134 97 87 86 116 204 227 231 184 146 132 125 137 162 152 151 149 182 203 207 177 132 94 72 64 56 73 70 112 92 130 111 86 82 96 92 66 55 47 38 35
145 188 142 145 119 109 115 134 131 123 86 105 73 127 122 204 160 173 155 159 122 154 171 196 206 204 230 262 249 204 174 104 67 77 88 92 140 138 143 125 103 89 89 92 72 55 48 38 29
183 183 114 107 122 123 103 70 88 72 91 46 102 85 160 156 217 220 197 175 145 116 142 176 252 241 265 256 244 218 192 170 126 110 123 142 147 144 148 128 106 102 90 81 72 56 52 42 34
181 162 119 109 94 98 88 68 44 68 35 -3 26 37 88 142 205 234 209 152 145 133 134 153 211 225 241 235 235 246 198 161 165 144 126 149 157 177 163 165 133 133 127 111 91 68 59 45 36
161 130 117 104 105 91 79 83 63 48 56 30 43 29 -2 78 148 184 202 224 181 151 124 101 155 165 187 206 187 181 177 119 146 138 126 176 200 199 177 172 178 172 156 120 93 72 59 41 32
123 108 104 99 87 74 86 80 79 60 72 49 60 53 -6 0 80 164 170 185 173 160 160 112 115 128 173 161 156 121 126 111 108 133 134 155 189 220 216 189 179 168 161 127 95 82 60 39 29
122 107 91 83 85 96 82 97 132 61 166 159 130 103 58 -10 -1 90 187 185 168 172 156 137 117 82 99 92 87 90 98 104 92 120 124 153 186 228 221 199 187 168 152 139 98 88 63 46 44
99 114 114 104 114 88 66 83 70 71 90 86 117 151 175 85 47 34 124 190 184 204 191 156 142 126 121 82 75 73 88 76 123 146 170 330 202 220 235 208 199 164 150 161 110 92 73 59 55
130 123 166 126 98 61 60 50 84 28 80 69 53 69 94 125 117 99 95 195 198 192 205 175 166 162 133 128 115 112 91 133 160 164 202 327 333 236 253 207 193 171 158 158 142 89 67 60 53
135 154 137 151 63 53 41 16 57 65 107 94 65 67 60 102 121 113 113 184 230 210 201 187 175 184 159 124 134 139 129 138 151 207 238 312 456 273 302 267 202 172 159 139 125 87 72 66 58
131 116 103 100 61 49 66 75 65 54 55 54 41 63 68 82 91 104 99 121 187 220 210 188 166 176 159 166 134 143 158 144 151 220 279 251 364 382 219 277 232 187 144 136 117 95 88 66 75
109 81 66 83 85 74 49 59 71 121 84 110 66 45 22 35 97 121 115 136 160 219 199 219 167 131 127 146 119 149 142 152 172 218 265 232 190 196 199 188 159 140 139 111 84 122 100 75 96
63 77 78 58 43 19 36 42 82 35 16 70 62 59 54 44 84 97 127 131 128 179 160 166 155 127 135 164 145 216 209 121 193 253 222 197 155 208 137 109 86 115 85 79 114 131 137 102 125
49 62 42 36 86 40 -13 -47 -23 55 37 35 45 48 64 18 20 85 79 155 110 155 127 146 121 126 123 133 163 177 212 190 178 209 169 163 145 188 127 70 -2 102 126 131 142 134 134 124 132
52 20 1 19 2 -7 66 -45 5 46 69 93 99 57 49 27 -39 0 33 69 75 85 120 126 139 116 114 138 144 145 137 91 107 123 177 208 174 213 148 167 112 139 160 144 145 155 152 156 143
19 24 24 19 24 17 54 29 7 20 52 87 98 36 6 15 24 30 31 37 49 111 131 133 139 146 151 141 116 133 116 142 152 146 173 229 234 181 111 96 114 137 169 141 155 179 171 177 184
20 15 63 16 0 17 -30 36 1 -32 43 60 34 12 -9 -35 -32 4 26 60 55 72 108 139 157 150 124 91 109 128 110 148 156 207 236 188 194 176 152 149 129 144 178 169 165 146 140 149 159
15 33 14 -2 -16 24 -13 23 38 44 140 58 72 19 -93 -94 -81 -82 -28 -22 48 53 79 126 142 100 73 45 143 68 108 183 124 153 204 170 183 175 178 193 115 56 86 97 107 113 132 155 151
-10 -24 -3 49 71 52 -11 13 -2 130 20 -26 -47 -85 -70 -2 129 123 119 81 -9 33 47 37 78 81 122 157 165 71 276 134 158 176 133 136 163 193 108 72 66 103 113 112 122 94 99 136 171
-8 33 21 41 38 26 23 22 5 252 121 6 22 15 65 37 225 264 180 289 328 257 198 353 309 249 353 166 115 108 14 51 36 53 94 57 54 40 73 70 81 45 83 91 103 134 127 155 179
53 24 12 11 38 76 74 75 77 160 151 93 61 114 100 74 222 320 318 382 339 309 234 142 201 268 265 132 77 73 76 66 59 40 37 13 10 4 18 43 66 48 46 68 79 91 147 137 122
43 39 15 19 34 84 76 100 74 93 118 78 114 165 130 89 123 144 107 70 188 252 204 207 177 246 329 223 158 48 29 37 30 27 29 31 41 47 35 35 43 44 35 61 62 72 53 71 58
133 116 58 51 88 68 70 82 75 133 141 99 141 168 128 67 43 15 31 15 23 31 41 43 34 28 38 47 31 37 65 66 74 66 62 51 39 39 26 21 41 55 66 101 98 85 76 71 77

GFSSGP_con_3kmhel_114.txt.gz
Helicity
91 92 86 149 159 170 134 97 104 53 57 128 122 147 147 111 119 137 23 6 19 99 98 93 67 42 57 73 95 105 104 98 100 89 78 66 66 63 40 47 41 38 70 82 85 79 63 51 45
90 100 156 142 174 158 105 96 58 49 108 121 136 125 126 102 66 78 42 33 41 110 102 77 59 60 56 73 83 82 88 85 76 63 63 59 52 43 51 61 54 74 96 89 80 75 47 36 20
89 122 162 153 148 114 73 35 62 133 134 143 156 117 151 147 106 78 39 40 61 104 94 85 86 76 71 88 72 72 68 67 56 40 49 51 41 36 55 60 77 92 84 95 66 64 45 27 18
127 170 173 166 109 86 91 53 64 142 153 165 144 177 184 118 186 179 82 51 81 100 103 80 80 88 65 75 72 58 54 55 49 29 42 49 40 49 81 94 125 105 86 87 62 45 35 29 28
180 165 171 138 113 88 86 84 68 68 91 126 159 172 217 183 234 171 143 83 105 104 84 69 71 60 70 56 55 61 54 51 57 51 39 42 28 64 102 128 145 103 79 64 56 45 27 37 33
190 152 124 73 101 88 65 72 99 77 72 107 125 150 170 146 245 285 190 105 87 95 99 65 56 44 53 56 54 50 58 53 58 66 51 43 43 61 107 124 119 92 67 61 51 47 44 36 40
140 156 98 93 79 92 63 81 91 90 84 102 122 126 165 190 292 246 164 164 80 72 90 88 71 55 51 64 59 58 48 52 68 60 63 49 50 70 106 110 92 81 71 65 57 56 55 44 42
137 154 121 90 90 83 95 111 110 103 100 147 112 137 146 185 228 227 163 142 150 101 96 128 115 91 87 89 71 72 71 69 85 65 66 83 85 86 111 115 86 83 81 78 69 57 55 53 45
138 184 131 103 85 89 107 118 96 92 101 130 148 148 124 179 177 172 215 184 157 133 98 93 123 139 136 110 103 96 74 89 87 77 79 99 129 117 108 120 89 92 99 87 82 69 55 50 48
170 159 83 111 104 98 80 54 76 96 96 108 112 106 94 107 121 196 213 220 205 154 129 104 133 126 158 161 132 112 114 132 139 125 110 136 144 150 152 119 93 91 106 99 89 85 70 65 58
152 128 110 106 89 111 80 53 46 59 33 40 54 74 110 91 136 142 195 197 168 196 143 89 101 127 151 155 146 117 119 141 167 156 141 123 154 177 183 179 130 110 116 134 120 101 89 69 60
143 112 106 102 126 100 76 61 69 89 111 75 97 99 86 72 82 140 160 194 193 150 153 130 110 110 130 152 141 118 106 130 148 147 142 146 153 163 183 179 168 148 140 131 135 118 86 68 61
120 105 108 92 77 67 62 61 70 69 51 102 79 68 98 112 96 116 141 153 185 181 137 118 129 102 113 125 124 123 122 120 97 88 109 142 147 140 189 199 170 165 163 144 132 125 103 71 57
89 72 73 58 80 73 78 79 95 56 147 102 91 88 95 108 105 93 151 174 164 181 156 151 132 109 104 104 117 119 130 107 86 67 96 108 162 169 187 200 177 180 165 169 138 126 104 70 68
93 76 90 79 93 86 51 82 79 79 97 92 116 108 128 111 99 86 79 164 189 180 187 169 159 136 131 104 90 109 103 75 70 68 67 90 154 196 255 236 211 216 179 159 157 152 122 94 56
94 73 123 110 105 100 90 87 81 83 88 82 94 85 82 77 88 97 107 98 202 207 196 185 179 167 145 130 96 83 88 87 82 79 100 110 136 188 236 312 272 256 204 167 172 172 136 103 52
112 89 79 118 101 80 81 57 49 81 105 114 100 59 65 71 79 99 93 100 119 208 217 228 206 189 167 156 142 84 51 73 100 107 126 125 168 208 220 303 369 301 233 209 184 179 147 98 76
93 88 90 78 99 103 80 44 71 86 82 106 70 61 91 90 80 99 99 87 103 152 194 229 231 215 188 191 167 147 120 79 93 112 147 162 195 228 268 274 301 284 259 249 149 165 128 97 96
69 57 54 69 95 96 57 82 112 123 111 87 99 96 88 71 56 71 76 78 108 119 148 208 243 218 222 210 183 174 160 125 116 138 141 167 204 256 302 357 435 321 285 212 158 115 104 86 119
49 48 78 71 63 63 75 80 104 84 51 69 73 73 69 72 60 44 61 81 86 79 141 167 213 202 182 208 220 211 162 134 124 137 156 203 210 238 345 320 266 249 268 277 102 87 87 75 132
67 80 106 60 79 74 25 32 19 19 36 20 69 73 71 61 57 52 40 43 76 79 101 137 148 165 148 160 186 172 163 169 150 155 164 160 182 226 259 256 265 189 260 277 197 113 107 85 121
77 38 19 29 52 109 51 32 -5 39 19 33 59 106 104 71 72 74 24 34 52 61 40 55 62 108 100 175 144 116 160 163 141 136 163 157 137 194 200 244 236 147 98 100 203 289 129 127 113
33 33 23 22 15 44 82 38 -3 2 15 52 100 100 83 78 69 58 38 13 22 19 -35 -2 40 100 101 100 124 143 168 142 135 132 154 127 144 179 166 212 157 202 120 91 -56 101 102 133 135
28 11 -1 -20 -38 -67 -63 -35 6 -53 53 65 53 4 13 -55 -44 74 64 41 30 33 20 35 86 59 122 153 160 144 102 126 164 134 136 151 157 152 194 181 152 105 120 145 28 106 112 134 169
-14 -4 -39 -39 -60 -27 -6 3 6 2 76 25 -12 -48 -42 -55 -73 -86 -79 5 16 24 36 60 80 97 119 136 124 110 106 106 124 127 152 215 219 179 91 128 104 138 124 141 134 78 92 90 106
-22 -48 -42 -1 -9 38 -40 -39 -14 40 136 -8 -42 -10 75 -14 19 -17 115 -97 59 52 45 85 88 150 96 92 63 77 90 152 127 169 129 226 264 237 165 123 87 119 128 78 58 71 88 108 110
-32 -5 -3 25 15 2 -14 -3 -4 48 209 46 51 106 66 51 148 210 198 55 -77 39 164 125 101 122 92 105 200 84 137 149 87 137 115 99 186 105 108 169 142 109 121 132 111 92 112 112 79
39 11 -1 11 45 104 62 52 57 63 107 127 6 67 96 94 216 243 317 309 208 197 193 143 212 209 238 89 155 137 80 53 41 42 60 91 67 37 31 49 85 104 77 83 54 81 93 87 118
10 25 15 9 44 65 86 86 64 79 78 103 89 138 155 111 102 243 295 238 308 240 244 228 317 328 262 229 168 195 171 201 176 148 154 103 79 77 71 60 52 43 39 55 50 40 19 26 34
60 33 20 50 37 45 71 56 83 123 158 174 185 172 162 107 78 92 127 83 76 170 207 242 187 320 358 127 87 92 59 80 94 87 67 46 57 50 42 49 53 55 68 76 77 75 72 74 90

GFSSGP_con_3kmhel_117.txt.gz
Helicity
79 69 72 138 171 174 130 98 106 82 63 94 129 137 131 133 128 161 16 9 40 24 67 72 72 61 66 56 77 82 78 75 67 72 69 68 53 51 27 24 23 20 52 50 70 73 72 54 35
78 84 136 142 181 151 113 94 58 74 92 113 98 116 122 142 131 113 35 15 -6 12 44 55 82 88 62 64 71 70 70 75 64 59 49 45 50 40 40 21 14 53 69 64 62 68 53 39 23
97 118 152 162 136 104 117 92 95 114 107 97 105 118 137 172 148 131 123 81 10 23 42 33 59 79 74 79 65 64 61 57 53 34 44 27 29 29 48 30 52 84 74 88 62 52 41 16 5
110 153 149 139 110 109 116 124 126 166 145 132 116 115 122 124 155 139 178 53 29 32 58 41 52 55 83 77 74 56 49 54 38 22 39 36 6 9 43 56 76 109 117 81 60 49 30 21 16
170 139 140 109 95 91 78 89 113 155 154 130 115 124 137 136 164 196 150 118 82 42 59 50 54 33 38 59 59 58 44 40 37 33 39 35 14 23 57 86 98 127 98 73 54 42 27 24 25
164 138 95 58 77 79 82 72 80 80 89 101 104 119 125 117 195 271 173 176 125 91 44 40 41 46 36 19 21 38 47 31 38 32 31 34 34 40 86 112 106 105 86 64 48 43 33 19 19
124 145 97 86 89 91 80 101 89 77 82 91 105 123 121 149 241 248 173 149 156 126 64 51 43 44 51 47 25 16 29 32 36 38 36 38 56 72 81 107 99 85 64 52 45 38 43 32 16
120 153 125 95 89 87 103 111 105 107 84 135 115 100 131 120 218 237 209 159 145 146 144 116 56 59 51 46 38 30 31 34 32 50 45 57 62 77 92 116 89 71 63 53 41 37 41 43 38
132 174 114 97 91 90 91 110 88 100 108 131 134 122 108 108 151 173 204 268 229 136 126 119 122 94 74 49 42 45 44 40 51 65 73 66 73 71 71 94 96 79 67 63 54 44 44 54 53
166 150 77 92 89 87 70 59 81 90 88 88 89 63 57 69 79 117 177 228 262 263 169 91 100 85 93 86 72 67 57 61 70 75 79 100 87 84 82 92 101 85 79 78 64 59 57 56 48
133 128 104 102 93 94 63 43 36 48 51 60 70 62 98 95 91 92 122 167 217 240 217 139 111 112 104 84 82 77 71 72 80 76 87 103 112 108 110 110 108 81 82 85 86 80 54 42 52
126 115 100 98 93 85 62 41 38 54 73 94 77 86 64 54 58 84 119 153 183 216 236 167 110 110 103 105 86 75 82 75 89 87 85 108 119 128 133 122 125 106 101 90 94 94 75 57 44
127 114 96 75 71 56 48 41 48 43 80 106 76 73 66 69 73 89 102 133 163 188 201 193 123 98 106 105 107 103 96 86 69 80 81 109 115 123 141 132 152 113 97 98 105 99 90 69 59
95 90 82 69 64 50 61 60 76 38 88 60 72 73 71 72 78 116 123 129 140 167 185 193 161 121 114 123 125 126 122 111 102 75 56 76 103 102 129 138 178 126 111 110 105 101 102 90 72
85 104 88 45 70 51 26 63 83 76 106 74 88 80 74 87 83 67 94 120 136 163 187 204 189 125 143 105 114 116 119 127 109 78 55 40 59 94 89 115 186 212 168 166 142 104 96 108 88
88 73 112 72 77 68 63 91 103 77 69 70 79 80 43 73 52 84 87 96 109 140 178 207 219 184 156 140 125 120 116 122 103 64 49 26 41 86 117 138 161 237 238 222 202 186 115 96 92
143 108 109 94 73 57 68 57 59 89 100 76 74 95 89 62 64 85 90 84 91 93 144 221 231 220 185 159 143 129 114 100 80 61 51 52 41 52 103 142 160 188 262 244 260 251 183 110 76
86 86 55 27 39 68 43 11 52 89 100 88 90 85 116 125 81 80 98 93 84 94 96 168 241 237 225 205 178 155 140 122 81 59 27 16 46 59 121 152 201 216 263 304 302 262 273 134 76
54 26 20 91 83 54 49 34 76 136 107 107 111 121 140 138 97 95 89 87 83 75 76 90 183 234 245 247 237 211 180 146 129 81 74 63 64 67 103 167 247 265 299 318 289 334 315 206 66
44 46 71 54 57 58 43 79 105 29 48 80 101 82 53 54 82 89 89 102 91 64 51 60 98 170 237 246 219 225 179 157 133 121 94 77 81 91 132 164 250 256 289 345 301 348 420 275 160
53 67 88 50 83 69 56 35 49 58 56 52 42 28 35 43 82 94 86 75 81 69 49 37 42 86 174 199 200 199 192 202 187 147 122 106 83 131 154 163 249 282 252 272 301 289 268 271 344
71 37 31 41 59 78 101 64 76 31 40 41 101 83 42 72 81 91 81 63 70 55 50 52 37 43 99 151 188 175 200 195 169 132 129 105 83 144 141 144 160 189 233 240 259 301 336 364 389
44 59 55 51 31 20 37 26 -16 46 30 92 90 75 39 74 93 95 53 49 45 19 41 62 39 2 47 102 116 138 145 153 145 129 114 93 103 125 125 132 157 164 185 204 185 187 229 246 300
20 6 -1 6 -41 -21 -52 -19 2 -68 -21 31 68 -61 -32 -33 12 15 42 74 34 44 27 39 -13 -16 -10 42 79 112 86 105 138 138 117 102 95 122 122 108 161 180 178 198 185 173 194 165 203
14 0 -5 4 -39 -11 -28 -22 -47 -62 30 90 -26 -7 10 -15 -10 40 67 10 39 24 29 36 -49 -36 -48 24 52 66 81 91 83 104 109 96 106 115 104 111 147 234 190 105 169 145 134 62 60
-15 -39 -37 -3 -13 8 -22 -36 -35 -43 -20 82 33 61 28 -6 -94 -53 119 30 60 26 23 33 12 9 18 50 66 78 76 103 128 123 122 106 118 165 150 130 104 153 171 148 103 141 95 69 45
-14 9 0 18 -12 -1 31 15 4 -38 36 48 7 -28 88 60 113 127 104 139 76 28 75 42 51 64 88 129 136 95 81 78 133 101 127 152 190 228 173 131 115 109 112 77 100 89 111 151 119
50 18 26 31 83 100 75 58 74 28 87 100 80 107 212 160 194 257 227 127 128 222 92 197 197 202 143 251 190 205 173 282 194 193 211 183 127 80 115 99 74 89 113 91 95 110 109 118 99
36 54 49 47 56 78 76 92 74 107 151 164 179 213 278 284 222 198 238 263 200 40 112 176 266 305 259 167 331 292 212 233 244 232 175 198 195 173 144 101 184 147 141 168 96 94 101 82 63
53 67 46 50 65 62 69 58 8 46 94 88 181 202 147 177 197 125 122 134 161 175 297 290 333 427 202 151 216 252 152 172 208 174 172 138 86 76 67 71 49 76 110 162 135 143 175 132 89